[[{"header":{"parameterUnit":"m.s-1","parameterCategory":1,"la1":30.6,"la2":29.2853,"lo1":-89.7004,"lo2":-87.6739,"dy":0.0162,"dx":0.0183,"nx":112,"ny":82,"refTime":"2023-10-24T06:00:00:Z","depth":0,"parameterNumber":2,"parameterNumberName":"U-component_of_WINDS"},"data":[0.0,0.0,0.0,0.0,0.0,0.0,0.0,0.0,0.0,0.0,0.0,0.0,0.0,0.0,0.0,0.0,0.0,0.0,0.0,0.0,0.0,0.0,0.0,0.0,0.0,0.0,0.0,0.0,0.0,0.0,0.0,0.0,0.0,0.0,0.0,0.0,0.0,0.0,0.0,0.0,0.0,0.0,0.0,0.0,0.0,0.0,0.0,0.0,0.0,0.0,0.0,0.0,0.0,0.0,0.0,0.0,0.0,0.0,0.0,0.0,0.0,0.0,0.0,0.0,0.0,0.0,0.0,0.0,0.0,0.0,0.0,0.0,0.0,0.0,0.0,0.0,0.0,0.0,0.0,0.0,0.0,0.0,0.0,0.0,0.0,0.0,0.0,0.0,0.0,0.0,-0.8334,-0.8817,-0.8741,-0.8503,-0.8158,-0.7052,-0.5838,-0.4634,0.0,0.0,0.0,0.0,0.0,0.0,0.0,0.0,0.0,0.0,0.0,0.0,0.0,0.0,0.0,0.0,0.0,0.0,0.0,0.0,0.0,0.0,0.0,0.0,0.0,0.0,0.0,0.0,0.0,0.0,0.0,0.0,0.0,0.0,0.0,0.0,0.0,0.0,0.0,0.0,0.0,0.0,0.0,0.0,0.0,0.0,0.0,0.0,0.0,0.0,0.0,0.0,0.0,0.0,0.0,0.0,0.0,0.0,0.0,0.0,0.0,0.0,0.0,0.0,0.0,0.0,0.0,0.0,0.0,0.0,0.0,0.0,0.0,0.0,0.0,0.0,0.0,0.0,0.0,0.0,0.0,0.0,0.0,0.0,0.0,0.0,0.0,0.0,0.0,0.0,0.0,0.0,0.0,0.0,0.0,0.0,0.0,0.0,0.0,0.0,0.0,0.0,0.0,0.0,-0.8211,-0.9127,-0.8161,-0.7541,-0.7756,-0.6521,-0.5474,-0.4875,0.0,0.0,0.0,0.0,0.0,0.0,0.0,0.0,0.0,0.0,0.0,0.0,0.0,0.0,0.0,0.0,0.0,0.0,0.0,0.0,0.0,0.0,0.0,0.0,0.0,0.0,0.0,0.0,0.0,0.0,0.0,0.0,0.0,0.0,0.0,0.0,0.0,0.0,0.0,0.0,0.0,0.0,0.0,0.0,0.0,0.0,0.0,0.0,0.0,0.0,0.0,0.0,0.0,0.0,0.0,0.0,0.0,0.0,0.0,0.0,0.0,0.0,0.0,0.0,0.0,0.0,0.0,0.0,0.0,0.0,0.0,0.0,0.0,0.0,0.0,0.0,0.0,0.0,0.0,0.0,0.0,0.0,0.0,0.0,0.0,0.0,0.0,0.0,0.0,0.0,0.0,0.0,0.0,0.0,0.0,0.0,0.0,0.0,0.0,0.0,0.0,0.0,0.0,-0.8313,-0.8801,-0.9313,-0.8556,-0.7856,-0.7454,-0.6446,-0.5552,-0.4943,-0.4138,0.0,0.0,0.0,0.0,0.0,0.0,0.0,0.0,0.0,0.0,0.0,0.0,0.0,0.0,0.0,0.0,0.0,0.0,0.0,0.0,0.0,0.0,0.0,0.0,0.0,0.0,0.0,0.0,0.0,0.0,0.0,0.0,0.0,0.0,0.0,0.0,0.0,0.0,0.0,0.0,0.0,0.0,0.0,0.0,0.0,0.0,0.0,0.0,0.0,0.0,0.0,0.0,0.0,0.0,0.0,0.0,0.0,0.0,0.0,0.0,0.0,0.0,0.0,0.0,0.0,0.0,0.0,0.0,0.0,0.0,0.0,0.0,0.0,0.0,0.0,0.0,0.0,0.0,0.0,0.0,0.0,0.0,0.0,0.0,0.0,0.0,0.0,0.0,0.0,0.0,0.0,0.0,0.0,0.0,0.0,0.0,0.0,0.0,0.0,0.0,0.0,0.0,-0.898,-0.8835,-0.8921,-0.8486,-0.7861,-0.7057,-0.6296,-0.5565,-0.4896,-0.3988,0.0,0.0,0.0,0.0,0.0,0.0,0.0,0.0,0.0,0.0,0.0,0.0,0.0,0.0,0.0,0.0,0.0,0.0,0.0,0.0,0.0,0.0,0.0,0.0,0.0,0.0,0.0,0.0,0.0,0.0,0.0,0.0,0.0,0.0,0.0,0.0,0.0,0.0,0.0,0.0,0.0,0.0,0.0,0.0,0.0,0.0,0.0,0.0,0.0,0.0,0.0,0.0,0.0,0.0,0.0,0.0,0.0,0.0,0.0,0.0,0.0,0.0,0.0,0.0,0.0,0.0,0.0,0.0,0.0,0.0,0.0,0.0,0.0,0.0,0.0,0.0,0.0,0.0,0.0,0.0,0.0,0.0,0.0,0.0,0.0,0.0,0.0,0.0,0.0,0.0,0.0,0.0,0.0,0.0,0.0,0.0,0.0,0.0,0.0,0.0,0.0,0.0,-0.751,-0.7396,-0.7525,-0.7018,-0.6583,-0.6371,-0.5792,-0.5242,-0.4749,-0.3719,0.0,0.0,0.0,0.0,0.0,0.0,0.0,0.0,0.0,0.0,0.0,0.0,0.0,0.0,0.0,0.0,0.0,0.0,0.0,0.0,0.0,0.0,0.0,0.0,0.0,0.0,0.0,0.0,0.0,0.0,0.0,0.0,0.0,0.0,0.0,0.0,0.0,0.0,0.0,0.0,0.0,0.0,0.0,0.0,0.0,0.0,0.0,0.0,0.0,0.0,0.0,0.0,0.0,0.0,0.0,0.0,0.0,0.0,0.0,0.0,0.0,0.0,0.0,0.0,0.0,0.0,0.0,0.0,0.0,0.0,0.0,0.0,0.0,0.0,0.0,0.0,0.0,0.0,0.0,0.0,0.0,0.0,0.0,0.0,0.0,0.0,0.0,0.0,0.0,0.0,0.0,0.0,0.0,0.0,0.0,0.0,0.0,0.0,0.0,0.0,0.0,0.0,-0.8502,-0.8401,0.0,-0.7913,-0.73,-0.6391,-0.5892,-0.5406,-0.4863,0.0,0.0,0.0,0.0,0.0,0.0,0.0,0.0,0.0,0.0,0.0,0.0,0.0,0.0,0.0,0.0,0.0,0.0,0.0,0.0,0.0,0.0,0.0,0.0,0.0,0.0,0.0,0.0,0.0,0.0,0.0,0.0,0.0,0.0,0.0,0.0,0.0,0.0,0.0,0.0,0.0,0.0,0.0,0.0,0.0,0.0,0.0,0.0,0.0,0.0,0.0,0.0,0.0,0.0,0.0,0.0,0.0,0.0,0.0,0.0,0.0,0.0,0.0,0.0,0.0,0.0,0.0,0.0,0.0,0.0,0.0,0.0,0.0,0.0,0.0,0.0,0.0,0.0,0.0,0.0,0.0,0.0,0.0,0.0,0.0,0.0,0.0,0.0,0.0,0.0,0.0,0.0,0.0,0.0,0.0,0.0,0.0,0.0,0.0,0.0,0.0,0.0,-0.8755,-0.9105,-0.9012,0.0,-0.8287,-0.766,-0.641,-0.5847,-0.5362,-0.4862,0.0,0.0,0.0,0.0,0.0,0.0,0.0,0.0,0.0,0.0,0.0,0.0,0.0,0.0,0.0,0.0,0.0,0.0,0.0,0.0,0.0,0.0,0.0,0.0,0.0,0.0,0.0,0.0,0.0,0.0,0.0,0.0,0.0,0.0,0.0,0.0,0.0,0.0,0.0,0.0,0.0,0.0,0.0,0.0,0.0,0.0,0.0,0.0,0.0,0.0,0.0,0.0,0.0,0.0,0.0,0.0,0.0,0.0,0.0,0.0,0.0,0.0,0.0,0.0,0.0,0.0,0.0,0.0,0.0,0.0,0.0,0.0,0.0,0.0,0.0,0.0,0.0,0.0,0.0,0.0,0.0,0.0,0.0,0.0,0.0,0.0,0.0,0.0,0.0,0.0,0.0,0.0,0.0,0.0,0.0,0.0,0.0,0.0,0.0,0.0,0.0,0.0,-0.8302,-0.8875,-0.8832,-0.7815,-0.7715,-0.7331,-0.6385,-0.5576,-0.4997,0.0,0.0,0.0,0.0,0.0,0.0,0.0,0.0,0.0,0.0,0.0,0.0,0.0,0.0,0.0,0.0,0.0,0.0,0.0,0.0,0.0,0.0,0.0,0.0,0.0,0.0,0.0,0.0,0.0,0.0,0.0,0.0,0.0,0.0,0.0,0.0,0.0,0.0,0.0,0.0,0.0,0.0,0.0,0.0,0.0,0.0,0.0,0.0,0.0,0.0,0.0,0.0,0.0,0.0,0.0,0.0,0.0,0.0,0.0,0.0,0.0,0.0,0.0,0.0,0.0,0.0,0.0,0.0,0.0,0.0,0.0,0.0,0.0,0.0,0.0,0.0,0.0,0.0,0.0,0.0,0.0,0.0,0.0,0.0,0.0,0.0,0.0,0.0,0.0,0.0,0.0,0.0,0.0,0.0,0.0,0.0,0.0,0.0,0.0,0.0,0.0,0.0,0.0,-0.907,-0.9666,-0.9617,-0.8715,-0.8623,-0.8015,-0.6577,-0.601,-0.5484,-0.4875,0.0,0.0,0.0,0.0,0.0,0.0,0.0,0.0,0.0,0.0,0.0,0.0,0.0,0.0,0.0,0.0,0.0,0.0,0.0,0.0,0.0,0.0,0.0,0.0,0.0,0.0,0.0,0.0,0.0,0.0,0.0,0.0,0.0,0.0,0.0,0.0,0.0,0.0,0.0,0.0,0.0,0.0,0.0,0.0,0.0,0.0,0.0,0.0,0.0,0.0,0.0,0.0,0.0,0.0,0.0,0.0,0.0,0.0,0.0,0.0,0.0,0.0,0.0,0.0,0.0,0.0,0.0,0.0,0.0,0.0,0.0,0.0,0.0,0.0,0.0,0.0,0.0,0.0,0.0,0.0,0.0,0.0,0.0,0.0,0.0,0.0,0.0,0.0,0.0,0.0,0.0,0.0,0.0,0.0,0.0,0.0,0.0,0.0,0.0,0.0,0.0,0.0,-0.9717,-1.0392,-1.044,-0.9718,-0.9594,-0.8856,-0.7115,-0.6599,-0.5969,-0.504,0.0,0.0,0.0,0.0,0.0,0.0,0.0,0.0,0.0,0.0,0.0,0.0,0.0,0.0,0.0,0.0,0.0,0.0,0.0,0.0,0.0,0.0,0.0,0.0,0.0,0.0,0.0,0.0,0.0,0.0,0.0,0.0,0.0,0.0,0.0,0.0,0.0,0.0,0.0,0.0,0.0,0.0,0.0,0.0,0.0,0.0,0.0,0.0,0.0,0.0,0.0,0.0,0.0,0.0,0.0,0.0,0.0,0.0,0.0,0.0,0.0,0.0,0.0,0.0,0.0,0.0,0.0,0.0,0.0,0.0,0.0,0.0,0.0,0.0,0.0,0.0,0.0,0.0,0.0,0.0,0.0,0.0,0.0,0.0,0.0,0.0,0.0,0.0,0.0,0.0,0.0,0.0,0.0,0.0,0.0,0.0,0.0,0.0,0.0,0.0,0.0,0.0,-1.0231,-1.0906,-1.1098,-1.0649,-1.046,-0.9662,-0.7886,-0.7244,-0.6433,-0.5219,0.0,0.0,0.0,0.0,0.0,0.0,0.0,0.0,0.0,0.0,0.0,0.0,0.0,0.0,0.0,0.0,0.0,0.0,0.0,0.0,0.0,0.0,0.0,0.0,0.0,0.0,0.0,0.0,0.0,0.0,0.0,0.0,0.0,0.0,0.0,0.0,0.0,0.0,0.0,0.0,0.0,0.0,0.0,0.0,0.0,0.0,0.0,0.0,0.0,0.0,0.0,0.0,0.0,0.0,0.0,0.0,0.0,0.0,0.0,0.0,-0.7344,-0.6789,0.0,0.0,0.0,0.0,0.0,0.0,0.0,0.0,0.0,0.0,0.0,0.0,0.0,0.0,0.0,0.0,0.0,0.0,0.0,0.0,0.0,0.0,0.0,0.0,0.0,0.0,0.0,0.0,0.0,0.0,0.0,0.0,0.0,0.0,0.0,0.0,0.0,0.0,0.0,0.0,-1.0231,-1.0801,-1.0942,-1.063,-1.0438,-0.9665,-0.8074,-0.7588,-0.6843,-0.558,-0.477,0.0,0.0,0.0,0.0,0.0,0.0,0.0,0.0,0.0,0.0,0.0,0.0,0.0,0.0,0.0,0.0,0.0,0.0,0.0,0.0,0.0,0.0,0.0,0.0,0.0,0.0,0.0,0.0,0.0,0.0,0.0,0.0,0.0,0.0,0.0,0.0,0.0,0.0,0.0,0.0,0.0,0.0,0.0,0.0,0.0,0.0,0.0,0.0,0.0,0.0,0.0,0.0,0.0,0.0,0.0,0.0,0.0,0.0,0.0,-0.8696,-0.8065,0.0,0.0,0.0,0.0,0.0,0.0,0.0,0.0,0.0,0.0,0.0,0.0,0.0,0.0,0.0,0.0,0.0,0.0,0.0,0.0,0.0,0.0,0.0,0.0,0.0,0.0,0.0,0.0,0.0,0.0,0.0,0.0,0.0,0.0,0.0,0.0,0.0,0.0,0.0,0.0,-1.0849,-1.1321,-1.1475,-1.1327,-1.1232,-1.058,-0.9129,-0.8773,-0.8078,-0.6833,-0.5977,0.0,0.0,0.0,0.0,0.0,0.0,0.0,0.0,0.0,0.0,0.0,0.0,0.0,0.0,0.0,0.0,0.0,0.0,0.0,0.0,0.0,0.0,0.0,0.0,0.0,0.0,0.0,0.0,0.0,0.0,0.0,0.0,0.0,0.0,0.0,0.0,0.0,0.0,0.0,0.0,0.0,0.0,0.0,0.0,0.0,0.0,0.0,0.0,0.0,0.0,0.0,0.0,0.0,-1.0982,-1.1118,-1.1043,-1.1321,-1.1389,-1.1205,-1.0222,-0.9655,-0.9376,-0.8832,0.0,0.0,0.0,0.0,0.0,0.0,0.0,0.0,0.0,0.0,0.0,0.0,0.0,0.0,0.0,0.0,0.0,0.0,0.0,0.0,0.0,0.0,-1.3275,-1.3344,-1.3244,-1.2696,-1.1081,0.0,0.0,0.0,0.0,0.0,0.0,0.0,0.0,0.0,0.0,0.0,-1.1483,-1.1903,-1.2105,-1.2148,-1.2116,-1.1588,-1.0293,-1.0013,-0.9406,-0.8205,-0.7368,-0.6589,0.0,0.0,0.0,0.0,0.0,0.0,0.0,0.0,0.0,0.0,0.0,0.0,0.0,0.0,0.0,0.0,0.0,0.0,0.0,0.0,0.0,0.0,0.0,0.0,0.0,0.0,0.0,0.0,0.0,0.0,0.0,0.0,-0.7885,-0.8364,0.0,0.0,0.0,0.0,0.0,0.0,0.0,0.0,0.0,0.0,0.0,0.0,0.0,-1.109,-1.1469,-1.205,-1.2257,-1.2033,-1.2583,-1.2718,-1.2429,-1.2469,-1.2583,-1.2717,-1.2386,0.0,-1.029,-0.992,0.0,0.0,0.0,0.0,0.0,0.0,0.0,0.0,0.0,0.0,0.0,0.0,0.0,0.0,0.0,0.0,0.0,0.0,0.0,0.0,0.0,0.0,-1.4527,-1.4157,-1.4039,-1.3958,-1.3702,-1.2473,-1.1279,-1.0782,-1.057,-1.0295,0.0,0.0,0.0,0.0,0.0,0.0,-1.1378,-1.1828,-1.2181,-1.2339,-1.2201,-1.167,-1.061,-1.0393,-0.9867,-0.8758,-0.8364,-0.773,-0.6772,-0.6262,0.0,0.0,0.0,0.0,0.0,0.0,0.0,0.0,0.0,0.0,0.0,0.0,0.0,0.0,0.0,0.0,0.0,0.0,0.0,0.0,0.0,0.0,0.0,0.0,0.0,0.0,0.0,0.0,0.0,-0.8121,-0.8994,-0.8995,-0.9247,-0.9144,0.0,0.0,0.0,0.0,0.0,0.0,0.0,0.0,0.0,-1.1484,-1.1975,-1.2383,-1.2712,-1.3098,-1.3336,-1.3295,-1.3595,-1.3607,-1.3485,-1.3485,-1.3471,-1.3451,-1.3342,-1.2888,-1.2067,-1.1225,-1.0556,-1.005,0.0,0.0,0.0,0.0,-1.1039,-1.15,-1.1179,-1.199,-1.3292,-1.3794,0.0,0.0,0.0,0.0,0.0,0.0,0.0,-1.4622,-1.442,-1.5049,-1.5634,-1.5308,-1.521,-1.521,-1.521,-1.4547,-1.3636,-1.2515,-1.2581,-1.2469,-1.1311,-1.0983,0.0,0.0,0.0,-1.1617,-1.2226,-1.2519,-1.2654,-1.2632,-1.2559,-1.2202,-1.151,-1.1249,-1.0871,-1.0246,-0.9681,-0.8876,-0.7795,-0.7545,-0.6848,0.0,0.0,0.0,0.0,0.0,0.0,0.0,0.0,0.0,0.0,0.0,0.0,0.0,0.0,0.0,0.0,0.0,0.0,0.0,0.0,0.0,0.0,0.0,0.0,0.0,0.0,0.0,0.0,-0.9163,-0.9883,-0.9621,-1.0188,-1.0243,0.0,0.0,0.0,0.0,0.0,0.0,-1.1387,-1.1782,-1.2223,-1.2786,-1.3166,-1.3498,-1.3797,-1.398,-1.4129,-1.4245,-1.4245,-1.4245,-1.4238,-1.4204,-1.4143,-1.4025,-1.395,-1.3788,-1.3546,-1.2427,-1.1705,-1.1362,-1.1456,-1.1957,-1.2643,-1.2387,-1.3351,-1.4678,-1.4117,-1.5023,-1.6348,-1.6114,-1.6249,-1.6291,-1.5144,0.0,0.0,0.0,0.0,-1.58,-1.5934,-1.6254,-1.6505,-1.6295,-1.6234,-1.619,-1.619,-1.6309,-1.5958,-1.4337,-1.4555,-1.4554,-1.3147,-1.2615,0.0,-1.2206,-1.2199,-1.2439,-1.3052,-1.3281,-1.3311,-1.3013,-1.309,-1.2942,-1.2321,-1.2093,-1.1844,-1.1531,-1.0938,-1.011,-0.8966,-0.8875,-0.8059,-0.6346,0.0,0.0,0.0,0.0,0.0,0.0,0.0,0.0,0.0,0.0,0.0,0.0,0.0,0.0,0.0,0.0,0.0,0.0,0.0,0.0,0.0,0.0,0.0,0.0,0.0,0.0,0.0,0.0,0.0,-1.0596,-1.1144,0.0,0.0,0.0,0.0,-1.126,-1.1823,-1.2359,-1.2873,-1.3275,-1.3729,-1.4183,-1.4353,-1.4584,-1.4935,-1.476,-1.4654,-1.466,-1.466,-1.466,-1.4654,-1.4557,-1.4518,-1.4633,-1.4401,-1.4272,-1.4183,-1.3309,-1.2793,-1.2766,-1.4141,-1.4584,-1.4667,-1.6134,-1.6637,-1.6521,-1.6083,-1.6485,-1.7335,-1.8508,-1.9141,-1.9194,-1.7671,-1.7303,0.0,0.0,-1.7148,-1.7314,-1.7021,-1.6947,-1.6969,-1.6947,-1.6786,-1.6656,-1.6656,-1.7467,-1.7751,-1.6334,-1.6187,-1.615,-1.5673,0.0,-1.4645,-1.4123,-1.3635,-1.3355,-1.3464,-1.3922,-1.4035,-1.3525,-1.3911,-1.3836,-1.2843,-1.274,-1.2559,-1.2083,-1.2017,-1.1488,-1.0356,-1.0193,-0.9533,-0.8296,-0.7143,0.0,0.0,0.0,0.0,0.0,0.0,0.0,0.0,0.0,0.0,0.0,0.0,0.0,0.0,0.0,0.0,0.0,0.0,0.0,0.0,0.0,0.0,0.0,0.0,0.0,0.0,0.0,0.0,-1.2145,-1.2684,0.0,-1.2006,-1.2121,-1.2325,-1.2522,-1.3003,-1.3526,-1.4075,-1.4434,-1.4746,-1.5004,-1.516,-1.5289,-1.5398,-1.5296,-1.5222,-1.5174,-1.5174,-1.5072,-1.4889,-1.4828,-1.478,-1.4687,-1.4586,-1.4539,-1.4595,-1.5126,-1.4499,-1.3329,-1.3758,-1.4403,-1.5114,-1.5799,-1.7021,-1.8317,-1.8219,-1.8826,-1.9552,-1.9197,-1.8981,-1.8696,-1.7851,-1.7543,-1.7461,-1.7467,-1.7456,-1.7435,-1.7433,-1.7464,-1.7464,-1.7464,-1.74,-1.7434,-1.7727,-1.8294,-1.8683,-1.8449,-1.8176,-1.7727,-1.6835,-1.6404,-1.5973,-1.5382,-1.5297,-1.534,-1.5358,-1.5683,-1.5785,-1.5405,-1.5373,-1.5047,-1.416,-1.361,-1.3093,-1.2594,-1.2104,-1.1456,-1.0571,-1.0776,-1.0237,-0.881,-0.8624,-0.802,0.0,0.0,0.0,0.0,0.0,0.0,0.0,0.0,0.0,0.0,0.0,0.0,0.0,0.0,0.0,0.0,0.0,0.0,0.0,0.0,0.0,0.0,0.0,0.0,0.0,-1.1826,-1.2703,-1.3105,-1.3722,-1.3829,-1.3132,-1.3383,-1.362,-1.3812,-1.415,-1.4545,-1.5086,-1.535,-1.5533,-1.5635,-1.5737,-1.5764,-1.571,-1.5614,-1.5539,-1.5486,-1.5486,-1.5357,-1.512,-1.5112,-1.4984,-1.4836,-1.4741,-1.5068,-1.5696,-1.6423,-1.6281,-1.5609,-1.5341,-1.6018,-1.7227,-1.7383,-1.8717,-2.0446,-2.0323,-2.0649,-2.0974,-1.9962,-1.9413,-1.9047,-1.8487,-1.8218,-1.811,-1.8151,-1.8035,-1.7884,-1.8035,-1.7959,-1.7841,-1.7841,-1.7776,-1.7848,-1.8416,-1.8865,-1.9249,-1.9695,-1.9546,-1.9052,-1.809,-1.7629,-1.7236,-1.6813,-1.6634,-1.66,-1.6782,-1.6962,-1.6916,-1.6579,-1.6532,-1.6179,-1.5288,-1.473,-1.412,-1.3475,-1.2979,-1.2311,-1.1384,-1.1794,-1.1293,-0.97,-0.9681,-0.9192,-0.8247,0.0,0.0,0.0,0.0,0.0,0.0,0.0,0.0,0.0,0.0,0.0,0.0,0.0,0.0,0.0,0.0,0.0,0.0,0.0,0.0,0.0,0.0,0.0,-1.1457,-1.2603,-1.3451,-1.3471,-1.42,-1.4498,-1.391,-1.4383,-1.4835,-1.4984,-1.5269,-1.5567,-1.5901,-1.6015,-1.6103,-1.6096,-1.6096,-1.6071,-1.5915,-1.5723,-1.5649,-1.569,-1.569,-1.5664,-1.5554,-1.5404,-1.5335,-1.5321,-1.5027,-1.5891,-1.7546,-1.73,-1.8163,-1.9606,-1.9026,-1.9664,-2.093,-2.12,-2.205,-2.2912,-2.2245,-2.1846,-2.1534,-2.0874,-2.0647,-2.0507,-1.9795,-1.9569,-1.9478,-1.9241,-1.8993,-1.8835,-1.8835,-1.8501,-1.8121,-1.8155,-1.7961,-1.7991,-1.8676,-1.918,-1.9593,-2.0061,-2.0203,-2.005,-1.9522,-1.892,-1.8541,-1.8457,-1.7571,0.0,-1.7606,-1.7647,-1.7462,-1.6943,-1.735,-1.7234,-1.6182,-1.6055,-1.5676,-1.4788,-1.469,-1.4136,-1.2906,-1.3281,-1.2764,-1.1132,-1.0296,-0.9874,-0.9784,0.0,0.0,0.0,0.0,0.0,0.0,0.0,0.0,0.0,0.0,0.0,0.0,0.0,0.0,0.0,0.0,0.0,0.0,0.0,0.0,0.0,-1.1925,-1.2888,-1.2996,-1.3754,-1.4491,-1.4924,-1.5337,-1.5438,-1.512,-1.5391,-1.552,-1.5459,-1.5832,-1.6096,-1.6178,-1.6429,-1.6466,-1.6402,-1.6402,-1.6334,-1.6185,-1.6035,-1.6489,-1.749,-1.749,-1.8029,-1.9005,-1.9003,-1.8978,-1.8978,-1.887,-1.9123,-1.9673,-2.0452,-2.0992,-2.1099,-1.9644,-1.993,-2.12,-2.1259,-2.2142,-2.3246,-2.288,-2.2589,-2.2299,-2.1802,-2.147,-2.1343,-2.143,-2.0786,-2.0076,-2.0463,-1.9801,-1.9156,-1.9723,-1.9346,-1.8953,-1.937,-1.9386,-1.9379,-1.9733,-2.0334,-2.0935,-2.1398,-2.1347,-2.0967,-2.0134,-1.985,-1.9651,-1.944,-1.9152,0.0,-1.8907,-1.8895,-1.8911,-1.8975,-1.8921,-1.8623,-1.7869,-1.7272,-1.6455,-1.5344,-1.4776,-1.434,-1.398,-1.3894,-1.3644,-1.3168,-1.2469,-1.1983,0.0,0.0,0.0,0.0,0.0,0.0,0.0,0.0,0.0,0.0,0.0,0.0,0.0,0.0,0.0,0.0,0.0,0.0,0.0,0.0,0.0,0.0,-1.32,-1.4197,-1.4597,-1.497,-1.5384,-1.5866,-1.6049,-1.6076,-1.5934,-1.6049,-1.6076,-1.5934,-1.6218,-1.6429,-1.6439,-1.6608,-1.6655,-1.6567,-1.6567,-1.6493,-1.6402,-1.6252,-1.6579,-1.7422,-1.7356,-1.8061,-1.9485,-1.9485,-1.9827,-2.038,-2.038,-2.0807,-2.1485,-2.2086,-2.2742,-2.3131,0.0,0.0,0.0,0.0,-2.2864,-2.3494,-2.3127,-2.3174,-2.3313,-2.2859,-2.2855,-2.3067,-2.312,-2.2491,-2.1809,-2.2085,-2.1308,-2.0541,-2.1007,-2.0637,-2.0188,-2.053,-2.0497,-2.0545,-2.1077,-2.1252,-2.1496,-2.2231,-2.205,0.0,-2.1056,-2.0655,-2.0361,-2.0187,-2.0067,-1.996,-1.995,-1.9736,-1.9642,-1.9786,-1.9575,-1.9203,-1.8696,-1.8255,0.0,0.0,0.0,-1.5592,-1.5213,-1.4755,0.0,0.0,0.0,-1.3767,-1.359,-1.295,0.0,0.0,-1.09,-1.0719,0.0,0.0,0.0,0.0,0.0,0.0,0.0,0.0,0.0,0.0,0.0,0.0,0.0,0.0,0.0,0.0,-1.4407,-1.537,-1.6056,-1.6092,-1.6049,-1.63,-1.6442,-1.6469,-1.6347,-1.6449,-1.6469,-1.6341,-1.6469,-1.6554,-1.6689,-1.6716,0.0,0.0,0.0,-1.6621,-1.6524,-1.6381,-1.6451,-1.6833,-1.6693,-1.7484,-1.9045,-1.9061,-1.9748,-2.0969,-2.1014,-2.1885,-2.3204,-2.3035,-2.381,-2.5076,-2.4409,-2.4,-2.383,-2.383,-2.383,-2.3776,-2.3278,0.0,0.0,-2.3904,-2.4367,-2.5059,-2.4714,-2.4308,-2.3936,-2.38,-2.3115,-2.2394,-2.2506,-2.2129,-2.1692,-2.174,-2.1545,-2.1589,-2.2405,-2.2049,-2.1863,-2.277,-2.2492,-2.2104,-2.2044,-2.1395,-2.0833,-2.0766,-2.0494,-2.037,-2.0601,-2.0174,-1.9853,-1.9853,0.0,0.0,-1.9023,-1.8996,-1.8637,-1.7769,-1.7675,-1.7314,-1.6524,-1.5905,-1.5739,-1.6113,-1.559,-1.5279,-1.5225,-1.4651,-1.4033,-1.3348,-1.3008,-1.2696,0.0,0.0,0.0,0.0,0.0,0.0,0.0,0.0,0.0,0.0,0.0,0.0,0.0,0.0,0.0,-1.4275,-1.516,-1.5949,-1.6479,-1.654,-1.65,-1.649,-1.6503,-1.651,-1.6483,-1.6503,-1.651,-1.6483,-1.6567,-1.6669,-1.6696,-1.687,-1.6937,-1.6937,-1.6763,-1.6621,-1.6524,-1.6381,-1.7543,-1.9923,-1.9881,0.0,-2.4085,-2.4307,-2.4472,-2.4518,-2.4903,-2.5068,-2.5017,-2.5214,-2.5105,-2.484,-2.4517,-2.4247,-2.4043,-2.4043,-2.4043,-2.4,-2.3754,-2.4108,-2.4648,-2.4383,-2.4734,-2.5404,-2.5799,-2.5116,0.0,-2.4759,-2.3959,-2.3079,-2.373,-2.335,-2.2849,-2.3078,-2.3051,-2.2899,-2.2639,-2.2982,-2.332,-2.3238,-2.2939,-2.2653,-2.2378,-2.2004,-2.1577,-2.1096,-2.0975,-2.0757,-2.0344,-2.0184,-2.0117,-2.0117,-2.0307,-2.0244,-1.9679,-1.9626,-1.9252,-1.837,-1.8063,-1.7849,-1.7689,-1.7795,-1.7782,-1.7609,-1.7266,-1.6718,-1.5982,-1.5643,-1.5524,-1.5562,-1.4422,-1.3265,0.0,0.0,0.0,0.0,0.0,0.0,0.0,0.0,0.0,0.0,0.0,-1.2203,-1.2983,0.0,-1.4563,-1.5391,-1.59,-1.6347,-1.6802,-1.6863,-1.6836,-1.6761,-1.6754,-1.672,-1.6594,-1.6707,-1.672,-1.6588,-1.6781,-1.6863,-1.6863,-1.6937,-1.6978,-1.6978,-1.6904,-1.7238,-1.7982,-1.7749,-1.8792,-2.1089,-2.0896,-2.2035,-2.4351,-2.4513,-2.4894,-2.5529,-2.5776,-2.5744,-2.5529,-2.5647,-2.57,-2.5717,-2.5484,-2.4884,-2.4164,-2.4657,-2.484,-2.4898,-2.5139,-2.5774,-2.6351,-2.594,-2.6327,-2.7034,-2.7217,-2.6558,-2.5878,-2.6182,-2.5424,-2.4649,-2.5036,-2.4727,-2.4316,-2.4489,-2.4357,-2.4175,-2.3925,-2.3928,-2.3941,-2.3794,-2.3527,-2.3308,-2.3126,-2.2846,-2.2405,-2.1657,-2.155,-2.139,-2.0949,-2.0762,-2.0584,-2.0468,-2.0454,-2.0334,-2.004,-1.988,-1.9613,-1.9172,-1.8703,-1.8529,-1.8704,-1.8571,-1.8557,-1.8704,-1.8244,-1.7853,-1.7567,-1.7259,-1.7168,-1.7286,-1.6605,-1.5747,0.0,0.0,0.0,0.0,0.0,0.0,0.0,-1.0968,-1.147,-1.2617,-1.3227,-1.3736,-1.4577,-1.5072,-1.5574,-1.6246,-1.6469,-1.6659,-1.6944,-1.6951,-1.6937,-1.6937,-1.6965,-1.6917,-1.6709,-1.689,-1.6917,-1.6709,-1.6897,-1.6978,-1.6978,-1.6978,-1.6978,-1.6978,-1.7346,-1.7939,-1.8908,-1.9249,-2.0031,-2.1265,-2.1245,-2.2084,-2.3668,-2.3708,-2.4382,-2.5518,-2.5712,-2.5734,-2.5583,-2.5734,-2.602,-2.6314,-2.6111,-2.5226,-2.4245,-2.5423,-2.5879,-2.5935,-2.6537,-2.7323,-2.7909,-2.7508,-2.7909,-2.8564,-2.8353,-2.7857,-2.7389,-2.7389,-2.68,-2.6172,-2.6172,-2.5905,-2.5665,-2.5611,-2.5424,-2.5275,-2.5184,-2.4743,-2.4356,-2.4302,-2.4048,-2.387,-2.3817,-2.3567,-2.3126,-2.2285,-2.2111,-2.1964,-2.1703,-2.143,-2.1149,-2.0802,-2.0601,-2.041,-2.0304,-2.0107,-1.9947,-1.988,-1.9492,-1.9345,-1.9562,-1.9078,-1.9052,-1.9562,-1.9034,-1.8813,-1.8984,-1.8715,-1.8582,-1.8582,-1.8459,-1.8137,-0.9508,-0.9656,-1.0136,-1.1056,-1.1165,-1.1608,0.0,-1.3774,-1.3687,-1.4665,-1.5113,-1.533,-1.5445,-1.5771,-1.6096,-1.6442,-1.6574,-1.673,-1.6958,-1.6863,-1.6723,-1.6723,-1.6897,-1.6917,-1.6709,-1.689,-1.6917,-1.6709,-1.6897,-1.6978,-1.6978,-1.6978,-1.6978,-1.6978,-1.8432,-1.8448,-1.6827,-1.9683,-2.1062,-2.0861,-2.2259,-2.3756,-2.5237,-2.5488,-2.5565,-2.5566,-2.6536,-2.6513,-2.5907,-2.6614,-2.616,-2.5029,-2.5007,-2.461,-2.4337,-2.6186,-2.6821,-2.6867,-2.6921,-2.7426,-2.7972,-2.7909,-2.8221,-2.8604,-2.8564,-2.8136,-2.7655,-2.7655,-2.7201,-2.672,-2.672,-2.6507,-2.6226,-2.6011,-2.5917,-2.5824,-2.5518,-2.5211,-2.4903,-2.4599,-2.4356,-2.4075,-2.3843,-2.3777,-2.3536,-2.2893,-2.2539,-2.2271,-2.1977,-2.1911,-2.167,-2.1122,-2.1301,-2.1221,-2.0699,-2.0632,-2.0468,-2.017,-2.0374,-2.0374,-2.0117,-2.0037,-2.0037,-2.0104,-2.0043,-1.9754,-1.9264,-1.9211,-1.9193,-1.9193,-1.8643,-1.8362,-1.1206,-1.1382,-1.1626,-1.2244,-1.2759,-1.3376,-1.438,-1.455,-1.4726,-1.554,-1.5879,-1.6083,-1.6202,-1.6463,-1.6646,-1.6768,-1.6842,-1.6904,-1.6971,-1.6768,-1.6533,-1.6503,-1.6469,-1.6497,-1.6605,-1.6673,-1.6727,-1.6696,-1.6757,-1.6883,-1.6978,-1.6978,-1.6978,-1.6978,-1.7653,-1.8574,-1.9716,-2.0722,-2.2196,-2.3929,-2.4366,-2.4949,-2.5723,-2.5679,-2.5679,-2.5771,-2.6211,-2.6217,-2.5912,-2.6244,-2.6542,-2.6744,-2.6547,-2.7014,-2.7689,-2.7199,-2.7003,-2.7184,-2.8326,-2.8879,-2.9063,-2.8906,-2.9004,-2.9058,-2.8711,-2.8297,-2.7965,-2.7749,-2.7281,-2.6787,-2.6787,-2.66,-2.636,-2.6279,-2.6252,-2.6172,-2.5838,-2.5717,-2.5504,-2.5197,-2.4917,-2.4676,-2.4593,-2.4285,-2.3941,-2.3688,-2.3247,-2.2832,-2.2572,-2.2338,-2.2084,-2.167,-2.177,-2.1743,-2.1489,-2.1475,-2.139,-2.1256,-2.1248,-2.1234,-2.1256,-2.0762,-2.0575,-2.0704,-2.0575,-2.0451,-2.033,-2.033,-2.0453,-2.0611,-2.019,-1.9956,-1.2121,-1.2467,-1.2793,-1.3261,-1.4048,-1.4794,-1.4916,-1.5181,-1.556,-1.6144,-1.6354,-1.6446,-1.6662,-1.6809,-1.687,-1.691,-1.6917,-1.6917,-1.6917,-1.6619,-1.6347,-1.6198,-1.5974,-1.5954,-1.6252,-1.6388,-1.6524,-1.6621,-1.6675,-1.6763,-1.6971,-1.6978,-1.6978,-1.6978,-1.7915,-1.929,-2.1207,-2.2156,-2.3315,-2.4816,-2.5271,-2.536,-2.5177,-2.5399,-2.5615,-2.5815,-2.6402,-2.65,-2.6255,-2.6842,-2.7501,-2.8186,-2.7946,-2.8539,-2.9404,-2.8004,-2.7653,-2.7998,-2.942,-2.9913,-2.9887,-2.9673,-2.9553,-2.9406,-2.8978,-2.862,-2.8272,-2.8003,-2.7522,-2.7041,-2.6961,-2.672,-2.6493,-2.6413,-2.6386,-2.6333,-2.6158,-2.6051,-2.5931,-2.5678,-2.5398,-2.5197,-2.5197,-2.4783,-2.4449,-2.4449,-2.3941,-2.346,-2.3188,-2.2859,-2.2552,-2.2291,-2.2151,-2.2111,-2.2111,-2.2211,-2.2191,-2.2111,-2.201,-2.197,-2.201,-2.1376,-2.1136,-2.1349,-2.1149,-2.1136,-2.1349,-2.1349,-2.1456,-2.1703,-2.1456,-2.1349,-1.1681,-1.2386,-1.3329,-1.4075,-1.4828,-1.5499,-1.5934,-1.6259,-1.6524,-1.6642,-1.6682,-1.6689,-1.6696,-1.6581,-1.6585,-1.6682,-1.6702,-1.6702,-1.6702,-1.6374,-1.6035,-1.5935,-1.5527,-1.533,-1.5587,-1.6062,-1.6374,-1.6517,-1.6615,-1.6763,-1.6971,-1.6978,-1.6978,-1.6978,-2.0148,-2.1044,-1.9315,-2.3762,-2.4457,-2.1388,-2.415,-2.474,-2.3326,-2.4838,-2.5518,-2.5626,-2.7646,-2.7983,-2.7212,-2.9184,-2.9249,-2.8198,-2.8198,-2.7907,-2.7619,-2.8503,-2.9248,-2.9824,-2.9869,-2.9913,-2.9913,-2.99,-2.9713,-2.9486,-2.9459,-2.9058,-2.8591,-2.8577,-2.8136,-2.7602,-2.7362,-2.7028,-2.6734,-2.6453,-2.6386,-2.6386,-2.6373,-2.6198,-2.5998,-2.5984,-2.5705,-2.5504,-2.5504,-2.5251,-2.505,-2.505,-2.4556,-2.4075,-2.3817,-2.3487,-2.318,-2.2907,-2.2579,-2.2405,-2.2405,-2.2706,-2.2746,-2.2418,-2.2706,-2.2599,-2.2004,-2.1964,-2.1951,-2.1964,-2.1951,-2.1951,-2.1964,-2.1964,-2.1964,-2.201,-2.1964,-2.1964,-1.2848,-1.3599,-1.4367,-1.4978,-1.5669,-1.6212,-1.6418,-1.6554,-1.6635,-1.6689,-1.6304,-1.5965,-1.5965,-1.5837,-1.5783,-1.5938,-1.629,-1.6547,-1.6547,-1.6469,-1.6171,-1.5622,-1.5513,-1.5411,-1.5215,-1.5513,-1.59,-1.6347,-1.6429,-1.6564,-1.6815,-1.6924,-1.7503,-1.8641,-1.8693,-1.9384,-2.0841,-2.1171,-2.1835,-2.273,-2.4794,-2.5766,-2.5809,-2.646,-2.7172,-2.7879,-2.8571,-2.868,-2.8389,-2.9068,-2.928,-2.919,-2.919,-2.9386,-2.9715,-3.0037,-3.0187,-3.0181,-2.998,-2.9913,-2.9913,-2.9913,-2.9847,-2.974,-2.9539,-2.9339,-2.9112,-2.8711,-2.831,-2.7924,-2.7429,-2.7041,-2.6747,-2.6453,-2.6386,-2.6386,-2.6386,-2.6319,-2.6279,-2.6279,-2.6051,-2.585,-2.585,-2.5558,-2.5304,-2.5141,-2.4583,-2.4102,-2.3843,-2.3723,-2.3616,-2.3509,-2.3415,-2.3313,-2.3313,-2.3442,-2.3455,-2.3362,-2.3442,-2.3322,-2.2886,-2.2672,-2.2472,-2.2271,-2.2084,-2.2084,-2.2271,-2.2084,-2.2084,-2.2271,-2.2071,-2.1991,-1.3804,-1.4478,-1.5093,-1.5742,-1.632,-1.6693,-1.6689,-1.6655,-1.656,-1.6344,-1.5749,-1.5235,-1.5134,-1.495,-1.4909,-1.533,-1.5764,-1.6137,-1.6408,-1.6354,-1.6103,-1.5628,-1.556,-1.5486,-1.535,-1.5411,-1.5696,-1.6191,-1.6374,-1.65,-1.6689,-1.6897,-1.7503,-1.8589,-1.8125,-1.9155,-2.1766,-2.1002,-2.1999,-2.4792,-2.5243,-2.6232,-2.7646,-2.7761,-2.8183,-2.8898,-2.9249,-2.9394,-2.9394,-2.9829,-3.0143,-3.038,-3.038,-3.0634,-3.0942,-3.0942,-3.0768,-3.052,-3.0181,-3.0007,-2.9913,-2.9913,-2.9913,-2.9887,-2.97,-2.9566,-2.9406,-2.9032,-2.8631,-2.8232,-2.775,-2.7362,-2.7054,-2.6774,-2.6707,-2.668,-2.656,-2.6547,-2.6507,-2.6413,-2.6279,-2.6145,-2.6145,-2.5865,-2.5531,-2.5181,-2.4756,-2.4409,-2.4115,-2.4075,-2.4035,-2.3941,-2.3928,-2.3928,-2.3928,-2.3928,-2.3928,-2.3928,-2.3928,-2.3794,-2.35,-2.3287,-2.3134,-2.2899,-2.2712,-2.2659,-2.2705,-2.2552,-2.2498,-2.2579,-2.2392,-2.2331,-1.4367,-1.5011,-1.5649,-1.6354,-1.6754,-1.6924,-1.6702,-1.6527,-1.6286,-1.5641,-1.5019,-1.4484,-1.4231,-1.3858,-1.3878,-1.4746,-1.5119,-1.5472,-1.6205,-1.6083,-1.5949,-1.5915,-1.5628,-1.5567,-1.5874,-1.575,-1.5798,-1.6076,-1.6439,-1.6682,-1.6696,-1.6897,-1.7031,-1.7136,-1.8589,-2.0192,-2.1993,-2.3149,-2.4842,-2.7005,-2.5518,-2.6186,-2.8704,-2.8692,-2.8692,-2.8836,-2.9793,-3.0175,-3.0271,-3.1284,-3.1711,-3.1711,-3.1711,-3.149,-3.1249,-3.1249,-3.1062,-3.0768,-3.0547,-3.0207,-2.9967,-2.9967,-2.9967,-2.9953,-2.994,-2.9753,-2.9526,-2.9486,-2.9085,-2.8577,-2.8286,-2.7991,-2.7642,-2.7403,-2.7322,-2.7229,-2.6907,-2.6787,-2.6734,-2.6466,-2.64,-2.6386,-2.6386,-2.6185,-2.581,-2.5248,-2.5141,-2.497,-2.4639,-2.4599,-2.4492,-2.4249,-2.4222,-2.4222,-2.4222,-2.4222,-2.4222,-2.4222,-2.4222,-2.4102,-2.3843,-2.383,-2.3817,-2.3803,-2.3803,-2.3634,-2.3319,-2.3319,-2.3193,-2.2947,-2.2947,-2.2947,-1.51,-1.5817,-1.6405,-1.6594,-1.6696,-1.6662,-1.6334,-1.5872,-1.5357,-1.4767,-1.3804,-1.2949,-1.2496,-1.2827,-1.3322,-1.3729,-1.4862,-1.5881,-1.6252,-1.653,-1.6524,-1.6076,-1.6151,-1.6137,-1.5928,-1.6123,-1.6286,-1.6252,-1.6354,-1.6466,-1.6682,-1.6897,-1.7549,-1.8798,-1.8073,-1.8998,-2.1731,-2.3175,-2.4537,-2.5914,-2.643,-2.7903,-3.0095,-2.9834,-3.0128,-3.0903,-3.1189,-3.1284,-3.1331,-3.1569,-3.1711,-3.1711,-3.1711,-3.1671,-3.1557,-3.1557,-3.137,-3.1102,-3.1036,-3.0808,-3.0568,-3.0568,-3.0568,-3.0528,-3.0314,-3.0239,-3.0092,-2.9606,-2.9379,-2.9138,-2.8617,-2.8299,-2.7991,-2.7655,-2.7469,-2.7282,-2.7215,-2.6974,-2.676,-2.672,-2.6533,-2.6386,-2.6386,-2.6185,-2.5944,-2.5797,-2.5396,-2.497,-2.4639,-2.4599,-2.4572,-2.4492,-2.4492,-2.4492,-2.4492,-2.4492,-2.4492,-2.4492,-2.4492,-2.4396,-2.4102,-2.4088,-2.3995,-2.3803,-2.3803,-2.3763,-2.3661,-2.3661,-2.3656,-2.3576,-2.3576,-2.3576,-1.579,-1.6378,-1.6836,-1.6716,-1.6601,-1.6354,-1.5567,-1.4977,-1.4292,-1.3241,-1.2379,-1.1624,-1.111,-1.1721,-1.2454,-1.3017,-1.4373,-1.5608,-1.6307,-1.6619,-1.6707,-1.6503,-1.6625,-1.6625,-1.6425,-1.6578,-1.6714,-1.67,-1.6639,-1.6646,-1.6696,-1.6897,-1.7451,-1.838,-1.8177,-1.9592,-2.2743,-2.476,-2.6004,-2.6495,-2.7699,-2.9054,-3.0547,-3.0347,-3.0781,-3.1711,-3.1711,-3.1711,-3.1711,-3.1711,-3.1711,-3.1711,-3.1711,-3.1711,-3.1711,-3.1711,-3.1557,-3.1423,-3.1423,-3.1316,-3.1142,-3.0875,-3.0795,-3.0742,-3.0493,-3.04,-3.0306,-2.9806,-2.9579,-2.9406,-2.9072,-2.8764,-2.8497,-2.8323,-2.807,-2.7857,-2.7724,-2.7415,-2.7134,-2.6827,-2.6694,-2.6533,-2.6413,-2.6292,-2.6145,-2.6011,-2.5717,-2.5358,-2.5026,-2.4759,-2.4599,-2.4599,-2.4599,-2.4599,-2.4599,-2.4599,-2.4599,-2.4599,-2.4599,-2.4532,-2.4359,-2.4396,-2.4315,-2.4155,-2.4155,-2.4088,-2.3968,-2.3968,-2.3937,-2.3803,-2.3803,-2.3803,-1.6358,-1.6775,-1.6965,-1.6716,-1.6483,-1.5927,-1.4699,-1.3971,-1.3139,-1.1572,-1.0975,-1.0535,-0.9974,-1.0828,-1.1893,-1.2549,-1.3995,-1.5461,-1.6651,-1.666,-1.6738,-1.7286,-1.7184,-1.7039,-1.7039,-1.7019,-1.7066,-1.7209,-1.7087,-1.6944,-1.6736,-1.691,-1.7083,-1.7346,-1.8955,-2.1207,-2.4117,-2.6717,-2.7878,-2.7613,-2.8821,-2.9702,-3.0223,-3.0573,-3.1081,-3.1711,-3.1711,-3.1738,-3.173,-3.173,-3.173,-3.173,-3.173,-3.1751,-3.1711,-3.1711,-3.1711,-3.1711,-3.1711,-3.1711,-3.1631,-3.1076,-3.0915,-3.0862,-3.0614,-3.0493,-3.04,-3.006,-2.9766,-2.9539,-2.9539,-2.9325,-2.9055,-2.9055,-2.8828,-2.8591,-2.8366,-2.8031,-2.7589,-2.6987,-2.6881,-2.68,-2.6547,-2.6466,-2.636,-2.6145,-2.6051,-2.5904,-2.5598,-2.5053,-2.4719,-2.4719,-2.4719,-2.4719,-2.4719,-2.4719,-2.4693,-2.4666,-2.4653,-2.4639,-2.4599,-2.4599,-2.4599,-2.4599,-2.4599,-2.4479,-2.4262,-2.4262,-2.4128,-2.3924,-2.3924,-2.3924,-1.6594,-1.6931,-1.706,-1.6659,-1.6246,-1.5588,-1.4214,-1.3234,-1.2162,-1.0798,-1.0032,-0.9544,-0.9169,-1.1224,-1.2876,-1.2581,-1.4877,-1.7119,-1.8393,-1.762,-1.7489,-1.9039,-1.8117,-1.7344,-1.7344,-1.7229,-1.7216,-1.7372,-1.7243,-1.7093,-1.6951,-1.6965,-1.7601,-1.9007,-2.0712,-2.2459,-2.4331,-2.6199,-2.6904,-2.641,-2.8612,-2.9363,-2.8806,-3.0879,-3.18,-3.1711,-3.1711,-3.181,-3.2024,-3.2024,-3.2024,-3.2024,-3.2024,-3.1877,-3.1711,-3.1711,-3.1711,-3.1711,-3.1711,-3.1711,-3.1698,-3.1591,-3.1564,-3.1463,-3.1169,-3.0902,-3.0662,-3.0413,-3.0074,-2.9847,-2.9847,-2.9619,-2.9406,-2.9406,-2.9179,-2.8908,-2.8855,-2.8457,-2.7938,-2.7349,-2.7229,-2.7215,-2.7162,-2.6907,-2.6734,-2.668,-2.6266,-2.5971,-2.5931,-2.5571,-2.5358,-2.5358,-2.5358,-2.5358,-2.5358,-2.5358,-2.5264,-2.5024,-2.4997,-2.489,-2.4613,-2.4599,-2.4599,-2.4599,-2.4599,-2.4572,-2.4519,-2.4519,-2.4492,-2.4452,-2.4452,-2.4452,-1.6809,-1.6971,-1.6992,-1.6612,-1.5954,-1.5044,-1.3485,-1.2277,-1.107,-0.9669,-0.9145,-0.8825,-0.85,-1.0251,-1.171,-1.1598,-1.3404,-1.5314,-1.6813,-1.6489,-1.663,-1.821,-1.7806,-1.7453,-1.748,-1.7473,-1.7406,-1.748,-1.7399,-1.7249,-1.71,-1.7853,-1.9059,-2.0764,-2.2374,-2.4029,-2.5697,-2.62,-2.6815,-2.7418,-2.8263,-2.9125,-3.0008,-3.1038,-3.1719,-3.2166,-3.1957,-3.2064,-3.238,-3.238,-3.2238,-3.2104,-3.2104,-3.1931,-3.1711,-3.1711,-3.1711,-3.1711,-3.1711,-3.1711,-3.1711,-3.1711,-3.1711,-3.1657,-3.1316,-3.1022,-3.0728,-3.0493,-3.014,-2.9913,-2.9913,-2.9806,-2.9713,-2.9713,-2.9486,-2.9232,-2.9028,-2.8818,-2.8484,-2.8043,-2.7871,-2.771,-2.7563,-2.7121,-2.6787,-2.6787,-2.6453,-2.6225,-2.6225,-2.6052,-2.5852,-2.5545,-2.5518,-2.5518,-2.5518,-2.5518,-2.5451,-2.5317,-2.5304,-2.5237,-2.5104,-2.5053,-2.4986,-2.4863,-2.4863,-2.4759,-2.4599,-2.4599,-2.4599,-2.4599,-2.4599,-2.4599,-1.6863,-1.6978,-1.6937,-1.6564,-1.5669,-1.4448,-1.2827,-1.1504,-1.0215,-0.8805,-0.8431,-0.8336,-0.8142,-0.9462,-1.0608,-1.079,-1.2102,-1.375,-1.5441,-1.5512,-1.5972,-1.7573,-1.76,-1.7561,-1.7629,-1.7615,-1.7609,-1.7684,-1.788,-1.7761,-1.7255,-1.8708,-2.0292,-2.1959,-2.3245,-2.4699,-2.6375,-2.5933,-2.6333,-2.752,-2.802,-2.9162,-3.0877,-3.1207,-3.1816,-3.2581,-3.2291,-3.2407,-3.2688,-3.2688,-3.2554,-3.2291,-3.2225,-3.2024,-3.1805,-3.1738,-3.1711,-3.1711,-3.1711,-3.1711,-3.1711,-3.1711,-3.1711,-3.1671,-3.1396,-3.1116,-3.0835,-3.0608,-3.0287,-3.002,-3.0087,-3.006,-3.002,-3.0087,-2.9887,-2.9593,-2.9255,-2.9135,-2.9001,-2.8751,-2.8497,-2.8286,-2.7949,-2.7455,-2.7081,-2.7014,-2.676,-2.656,-2.6493,-2.648,-2.6279,-2.5758,-2.5705,-2.5705,-2.5705,-2.5705,-2.5678,-2.5611,-2.5611,-2.5585,-2.5518,-2.5518,-2.5411,-2.5184,-2.517,-2.5064,-2.4786,-2.4786,-2.4786,-2.4786,-2.4786,-2.4786,-1.6709,-1.6965,-1.7039,-1.6469,-1.5432,-1.4156,-1.2651,-1.128,-0.9971,-0.8764,-0.8269,-0.8128,-0.8397,-1.0062,-1.1333,-1.1197,-1.3036,-1.5167,-1.7012,-1.657,-1.6897,-1.9204,-1.8484,-1.7881,-1.7846,-1.7717,-1.7704,-1.7881,-1.9228,-1.9215,-1.7315,-1.8766,-2.0369,-2.1968,-2.2166,-2.2995,-2.4596,-2.4647,-2.4432,-2.4103,-2.8071,-2.9667,-2.9219,-3.1683,-3.275,-3.2594,-3.2567,-3.2714,-3.2933,-3.2933,-3.2969,-3.2866,-3.2661,-3.2367,-3.2024,-3.177,-3.1711,-3.1711,-3.1711,-3.1711,-3.1711,-3.1711,-3.1711,-3.1711,-3.1684,-3.1423,-3.1183,-3.1156,-3.0742,-3.0426,-3.0648,-3.0515,-3.0426,-3.0648,-3.0488,-3.0239,-2.99,-2.9633,-2.9352,-2.9015,-2.8935,-2.8815,-2.8577,-2.8286,-2.7965,-2.7655,-2.7375,-2.7135,-2.6814,-2.6747,-2.6653,-2.6346,-2.6306,-2.6306,-2.6306,-2.6306,-2.6199,-2.5971,-2.5957,-2.5837,-2.5518,-2.5518,-2.5504,-2.5478,-2.5478,-2.5464,-2.5438,-2.5438,-2.5438,-2.5438,-2.5438,-2.5438,-1.6527,-1.6784,-1.6777,-1.6415,-1.5201,-1.379,-1.2569,-1.1036,-0.9612,-0.8702,-0.8223,-0.8081,-0.8342,-0.9091,-0.98,-1.0184,-1.1031,-1.2192,-1.3825,-1.3986,-1.4727,-1.6963,-1.7141,-1.7338,-1.807,-1.8091,-1.8036,-1.8002,-1.853,-1.8406,-1.7398,-1.9834,-2.1008,-2.0512,-2.1492,-2.2322,-2.2934,-2.3606,-2.4679,-2.6107,-2.8518,-3.0345,-3.164,-3.2544,-3.3013,-3.3053,-3.2929,-3.2973,-3.324,-3.324,-3.3133,-3.2973,-3.2902,-3.2674,-3.2407,-3.2286,-3.2246,-3.2246,-3.2246,-3.2126,-3.1931,-3.1931,-3.181,-3.1711,-3.1711,-3.1463,-3.1176,-3.1176,-3.0929,-3.0648,-3.0768,-3.0702,-3.0648,-3.0768,-3.0702,-3.0581,-3.0474,-3.0221,-3.0025,-2.986,-2.9553,-2.9272,-2.9152,-2.862,-2.8138,-2.8031,-2.7603,-2.7269,-2.7108,-2.7094,-2.7041,-2.6974,-2.676,-2.6653,-2.6653,-2.6814,-2.6787,-2.6493,-2.648,-2.6346,-2.6052,-2.6213,-2.6213,-2.6039,-2.6039,-2.5959,-2.5824,-2.5598,-2.5518,-2.5518,-2.5518,-2.5518,-1.6049,-1.6398,-1.6486,-1.6148,-1.4903,-1.3396,-1.2393,-1.0833,-0.9395,-0.8662,-0.8223,-0.806,-0.8267,-0.8376,-0.8689,-0.9422,-0.9612,-1.0177,-1.1712,-1.2393,-1.3363,-1.5113,-1.585,-1.6628,-1.7703,-1.8091,-1.8431,-1.8825,-1.8738,-1.8496,-1.818,-2.0343,-2.0947,-1.9529,-2.0668,-2.1648,-2.2468,-2.3235,-2.5122,-2.8201,-2.9432,-3.1214,-3.34,-3.32,-3.3213,-3.34,-3.32,-3.3227,-3.3414,-3.3414,-3.3293,-3.3093,-3.3013,-3.2902,-3.2714,-3.2621,-3.2594,-3.2594,-3.2594,-3.2393,-3.2104,-3.2104,-3.1904,-3.1711,-3.1711,-3.1517,-3.1356,-3.1356,-3.1209,-3.1036,-3.0942,-3.0982,-3.1049,-3.1049,-3.0982,-3.0915,-3.0915,-3.0688,-3.0507,-3.0426,-3.0065,-2.9686,-2.9513,-2.8995,-2.8553,-2.846,-2.8056,-2.7762,-2.7669,-2.763,-2.7536,-2.7443,-2.7201,-2.6974,-2.6841,-2.7014,-2.7041,-2.68,-2.6907,-2.6867,-2.6653,-2.6841,-2.6854,-2.6653,-2.6693,-2.6586,-2.6386,-2.6052,-2.5892,-2.5892,-2.5812,-2.5718,-1.5072,-1.5744,-1.6205,-1.5708,-1.4516,-1.3132,-1.2037,-1.065,-0.9395,-0.8662,-0.8223,-0.806,-0.8267,-0.8301,-0.8546,-0.9294,-0.9632,-1.0399,-1.2054,-1.2793,-1.3559,-1.4579,-1.5235,-1.5891,-1.6642,-1.7568,-1.8803,-2.0524,-2.0443,-2.017,-1.9991,-1.9865,-1.9746,-1.9529,-1.9522,-2.0808,-2.3536,-2.3587,-2.5533,-2.9319,-3.0987,-3.236,-3.3414,-3.3414,-3.3414,-3.3414,-3.3414,-3.3414,-3.3414,-3.3414,-3.3414,-3.3374,-3.3093,-3.2973,-3.2933,-3.2701,-3.2594,-3.2594,-3.2594,-3.2393,-3.2104,-3.2104,-3.1904,-3.1711,-3.1711,-3.1711,-3.1711,-3.1711,-3.1711,-3.1597,-3.1289,-3.1436,-3.1711,-3.1711,-3.1436,-3.1223,-3.1223,-3.0996,-3.0702,-3.0467,-3.04,-3.0212,-2.9579,-2.9472,-2.9366,-2.9028,-2.8988,-2.8868,-2.8631,-2.8366,-2.8058,-2.7722,-2.7696,-2.7455,-2.6827,-2.6787,-2.6787,-2.6787,-2.7094,-2.7296,-2.7296,-2.7296,-2.7296,-2.7296,-2.7296,-2.7296,-2.7296,-2.6947,-2.6814,-2.676,-2.652,-2.6265,-1.3499,-1.3912,-1.4055,-1.3607,-1.2752,-1.1809,-1.0962,-1.0005,-0.9145,-0.8498,-0.818,-0.806,-0.8267,-0.818,-0.8526,-0.9818,-0.9985,-1.038,-1.1653,-1.2603,-1.3559,-1.4572,-1.6391,-1.7649,-1.7893,-1.8145,-1.8431,-1.8881,-1.8645,-1.839,-1.8227,-1.8124,-1.7967,-1.7818,-1.8903,-2.0296,-2.1881,-2.4865,-2.7385,-2.9319,-3.0987,-3.236,-3.3364,-3.2662,-3.2712,-3.3414,-3.3414,-3.3414,-3.3414,-3.3414,-3.3414,-3.34,-3.3307,-3.328,-3.3267,-3.3173,-3.3133,-3.3133,-3.3133,-3.2946,-3.2666,-3.2514,-3.2211,-3.1971,-3.1971,-3.1824,-3.1711,-3.1711,-3.1711,-3.1698,-3.1557,-3.1597,-3.1711,-3.1711,-3.1597,-3.153,-3.153,-3.1303,-3.1062,-3.0969,-3.0635,-3.0413,-3.0381,-2.9873,-2.9526,-2.9575,-2.9255,-2.8961,-2.8868,-2.8818,-2.8724,-2.8588,-2.8444,-2.807,-2.7468,-2.7643,-2.7684,-2.7442,-2.7509,-2.7468,-2.7309,-2.7496,-2.7562,-2.7562,-2.7562,-2.7562,-2.7562,-2.7268,-2.7121,-2.7121,-2.7028,-2.6974,-1.1996,-1.2594,-1.2799,-1.242,-1.1728,-1.0975,-1.0369,-0.9601,-0.8879,-0.8396,-0.8147,-0.8047,-0.8167,-0.8081,-0.8378,-0.951,-0.97,-1.012,-1.128,-1.2298,-1.3458,-1.4863,-1.6669,-1.7872,-1.8091,-1.8179,-1.8453,-1.8963,-1.8115,-1.7764,-1.8302,-1.756,-1.7383,-1.7915,-1.8955,-2.0496,-2.2648,-2.5994,-2.8568,-3.0254,-3.129,-3.2159,-3.2762,-3.2109,-3.241,-3.3414,-3.3414,-3.3414,0.0,-3.3414,-3.3414,-3.3427,-3.3547,-3.3587,-3.3587,-3.3587,-3.3587,-3.3574,-3.3454,-3.3213,-3.2982,-3.2688,-3.2393,-3.2118,-3.2238,-3.2193,-3.2019,-3.1912,-3.1837,-3.181,-3.1751,-3.1711,-3.1711,-3.1711,-3.1711,-3.1711,-3.1711,-3.153,-3.1356,-3.1203,-3.0929,-3.0675,-3.0635,-3.0226,-2.9873,-3.006,-2.9673,-2.9375,-2.9526,-2.9339,-2.9205,-2.9205,-2.8938,-2.8577,-2.8083,-2.8152,-2.8058,-2.7722,-2.7802,-2.7831,-2.7643,-2.7817,-2.7911,-2.7911,-2.7911,-2.7911,-2.7911,-2.7575,-2.7469,-2.7469,-2.7362,-2.7362,0.0,-1.1491,-1.2013,-1.1887,-1.1185,-1.046,-1.0056,-0.9315,0.0,-0.8342,-0.814,-0.8002,-0.8029,-0.8008,-0.8189,-0.875,-0.9097,-0.9743,-1.1091,-1.2088,-1.3464,-1.5458,-1.6344,-1.6953,-1.7412,-1.7846,-1.8691,-2.0168,-1.8498,-1.8048,-1.9515,-1.7949,-1.7758,-1.9469,-1.9626,-2.1475,-2.5215,-2.7028,-2.919,-3.1819,-3.1819,-3.1819,-3.192,-3.1819,-3.241,-3.3414,-3.3414,-3.3414,-3.3414,-3.3414,-3.3414,-3.344,-3.3761,-3.3881,-3.3895,-3.3908,-3.3908,-3.3841,-3.3547,-3.3253,-3.2959,-3.2701,-3.2407,-3.2185,-3.2514,-3.2594,-3.2541,-3.2211,-3.2118,-3.2038,-3.177,-3.1724,-3.1711,-3.1711,-3.1711,-3.1711,-3.1711,-3.1711,-3.1583,-3.1316,-3.1236,-3.1062,-3.0587,-3.0467,-3.044,-3.0467,-3.0154,-3.0047,-3.0373,-2.9918,-2.9513,-2.9513,-2.9272,-2.8948,-2.8698,-2.8433,-2.8125,-2.7776,-2.8072,-2.8232,-2.8245,-2.8232,-2.8232,-2.8245,-2.8245,-2.8245,-2.8245,-2.7951,-2.7776,-2.7789,-2.7536,-2.7563,-0.8873,0.0,-0.9629,-0.9395,-0.9252,-0.9096,0.0,-0.8634,-0.8452,-0.8128,-0.804,-0.8121,-0.8466,-0.8243,-0.8459,-0.9849,-1.0134,-1.0642,-1.1887,-1.3587,-1.5248,-1.6659,-1.7392,-1.7772,-1.7758,-1.7968,-1.8142,-1.8265,-1.7744,-1.7512,-1.778,-1.7323,-1.7758,-1.9469,-2.0712,-2.2831,-2.5861,-2.8376,-3.0329,-3.1819,-3.1819,-3.2209,-3.3013,-3.2159,-3.241,-3.3414,-3.3414,-3.3414,-3.3414,-3.3414,-3.3414,-3.344,-3.3761,-3.3881,-3.3908,-3.4135,-3.4082,-3.3881,-3.3801,-3.3574,-3.3227,-3.2755,-3.2541,-3.25,-3.2567,-3.2594,-3.2581,-3.2514,-3.2278,-3.2091,-3.2024,-3.1837,-3.1711,-3.1711,-3.1711,-3.1711,-3.1711,-3.1711,-3.1698,-3.1583,-3.1383,-3.1249,-3.139,-3.0982,-3.0768,-3.0982,-3.0581,-3.0333,-3.04,-3.0034,-2.982,-2.982,-2.9753,-2.9593,-2.9299,-2.9005,-2.8711,-2.8417,-2.8457,-2.8604,-2.8818,-2.8617,-2.8604,-2.8818,-2.8831,-2.8831,-2.8831,-2.8537,-2.8511,-2.8668,-2.843,-2.8444,-0.8147,-0.8587,-0.8994,-0.8859,-0.8804,-0.8743,-0.8615,-0.8425,-0.8209,-0.8047,-0.7988,-0.8108,-0.8452,-0.8418,-0.8703,-0.9897,-1.0317,-1.1104,-1.2861,-1.4496,-1.5961,-1.7154,-1.765,-1.7914,-1.7968,-1.7989,-1.786,-1.7514,-1.7412,-1.7324,-1.7107,-1.7748,-1.8903,-2.0608,-2.227,-2.4328,-2.6834,-2.8591,-3.024,-3.1819,-3.1302,-3.1655,-3.2662,-3.2058,-3.241,-3.3414,-3.3414,-3.3414,-3.3414,-3.3414,-3.3494,-3.3654,-3.3961,-3.4175,-3.4309,-3.4469,-3.4336,-3.4068,-3.3935,-3.3587,-3.3187,-3.3,-3.2902,-3.2822,-3.2955,-3.2995,-3.2969,-3.2835,-3.2625,-3.2438,-3.2171,-3.1984,-3.1837,-3.1751,-3.1711,-3.1711,-3.1711,-3.1711,-3.1711,-3.1711,-3.1543,-3.1436,-3.1463,-3.1209,-3.1049,-3.1196,-3.0728,-3.0453,-3.0587,-3.0181,-2.9913,-2.9913,-2.9913,-2.9793,-2.9513,-2.9459,-2.9215,-2.8831,-2.8761,-2.8828,-2.8988,-2.8841,-2.8841,-2.8988,-2.9001,-2.9001,-2.9001,-2.8841,-2.8951,-2.9232,-2.8895,-2.8921,-0.8027,-0.8655,-0.9213,-0.9049,-0.894,-0.8865,-0.8818,-0.8419,-0.8054,-0.8081,-0.8101,-0.8182,-0.8457,-0.8696,-0.9103,-0.9774,-1.0473,-1.1708,-1.3926,-1.5086,-1.6123,-1.7249,-1.7487,-1.7697,-1.8002,-1.7914,-1.7724,-1.7439,-1.7399,-1.727,-1.6992,-1.8589,-2.0252,-2.1959,-2.3357,-2.5286,-2.7749,-2.8325,-2.9581,-3.1554,-3.0645,-3.0847,-3.2058,-3.1857,-3.241,-3.3414,-3.3414,-3.3414,-3.3414,-3.3467,-3.3641,-3.3921,-3.4255,-3.4536,-3.4815,-3.4869,-3.4643,-3.4336,-3.4002,-3.348,-3.3013,-3.3267,-3.3187,-3.3026,-3.3267,-3.3374,-3.336,-3.312,-3.3013,-3.2853,-3.2305,-3.2131,-3.2024,-3.1744,-3.1711,-3.1711,-3.1711,-3.1711,-3.1711,-3.1711,-3.1711,-3.1583,-3.1343,-3.1289,-3.1289,-3.1289,-3.0795,-3.056,-3.0755,-3.0287,-2.9913,-2.9913,-2.9913,-2.982,-2.9566,-2.978,-2.9655,-2.9161,-2.9081,-2.9068,-2.9068,-2.9108,-2.9135,-2.9135,-2.9135,-2.9135,-2.9135,-2.9081,-2.9259,-2.9539,-2.9245,-2.9259,-0.8303,-0.8967,-0.9327,-0.8405,-0.8453,-0.8682,-0.8457,-0.8328,-0.8294,-0.8391,-0.852,-0.8771,-0.9306,-0.9537,-0.9971,-1.0955,-1.2149,-1.3437,-1.4814,-1.5588,-1.6313,-1.7127,-1.7473,-1.7609,-1.7663,-1.7649,-1.7554,-1.7433,-1.7304,-1.7154,-1.6992,-1.8589,-2.0252,-2.1959,-2.227,-2.4241,-2.8092,-2.8449,-2.9225,-3.0443,-3.0291,-3.1252,-3.3113,-3.2209,-3.241,-3.3414,-3.3414,-3.3414,-3.3427,-3.3708,-3.3841,-3.3935,-3.4482,-3.4775,-3.4842,-3.5044,-3.495,-3.4616,-3.4082,-3.348,-3.2986,-3.3026,-3.3013,-3.2986,-3.3026,-3.3213,-3.34,-3.336,-3.3173,-3.2955,-3.2621,-3.2291,-3.2024,-3.1744,-3.1711,-3.1711,-3.1711,-3.1711,-3.1711,-3.1711,-3.1711,-3.1698,-3.161,-3.1597,-3.1597,-3.1597,-3.1102,-3.0742,-3.0782,-3.0287,-2.9913,-2.9913,-2.9913,-2.99,-2.986,-2.9887,-2.9873,-2.9793,-2.9553,-2.9419,-2.9419,-2.9646,-2.978,-2.978,-2.978,-2.978,-2.978,-2.9539,-2.9566,-2.9847,-2.9553,-2.9566,-0.8018,-0.8615,-0.9,-0.8601,-0.9021,-0.9503,-0.9279,-0.911,-0.9015,-0.9076,-0.9205,-0.9442,-0.989,-1.029,-1.0968,-1.2264,-1.3336,-1.4306,-1.5181,-1.575,-1.6361,-1.7107,-1.7392,-1.75,-1.7595,-1.7595,-1.7494,-1.7317,-1.7229,-1.7093,-1.687,-1.9226,-2.0581,-2.0379,-2.2103,-2.3939,-2.5867,-2.6023,-2.7403,-2.9972,-2.9418,-3.0224,-3.229,-3.1827,-3.2177,-3.3187,-3.3347,-3.3414,-3.3427,-3.3574,-3.3734,-3.3935,-3.4362,-3.4629,-3.4829,-3.491,-3.4776,-3.4456,-3.4042,-3.3587,-3.3213,-3.3213,-3.3213,-3.3213,-3.3213,-3.3307,-3.3414,-3.3414,-3.332,-3.3146,-3.2902,-3.2607,-3.2265,-3.1971,-3.1831,-3.1711,-3.1711,-3.1711,-3.1711,-3.1711,-3.1711,-3.1711,-3.1711,-3.1711,-3.1711,-3.1711,-3.1169,-3.0795,-3.0795,-3.0287,-2.9913,-2.9913,-2.9913,-2.9913,-2.9913,-2.9913,-2.9913,-2.9913,-2.9793,-2.9713,-2.9713,-2.9847,-2.9993,-3.0154,-3.0154,-3.0234,-3.0394,-3.0261,-3.0261,-3.0381,-3.0087,-3.0065,-0.7875,-0.833,-0.8757,-0.8912,-0.9483,-1.0005,-1.0136,-0.9893,-0.9741,-1.0019,-1.0136,-1.0317,-1.0548,-1.12,-1.2104,-1.3397,-1.4238,-1.4923,-1.5486,-1.5927,-1.6449,-1.7161,-1.7351,-1.7426,-1.7575,-1.7561,-1.7433,-1.7216,-1.7526,-1.7598,-1.7272,-2.0387,-2.1377,-1.9624,-2.1985,-2.3475,-2.3777,-2.3475,-2.5331,-2.9357,-2.8565,-2.9341,-3.1449,-3.15,-3.2136,-3.3093,-3.332,-3.3414,-3.3377,-3.3259,-3.3508,-3.4028,-3.4066,-3.4448,-3.487,-3.487,-3.4629,-3.4282,-3.4068,-3.3734,-3.3414,-3.3414,-3.3213,-3.3063,-3.3314,-3.3213,-3.3063,-3.3314,-3.3414,-3.3347,-3.3053,-3.2862,-3.2621,-3.2278,-3.2038,-3.1925,-3.1925,-3.1872,-3.1845,-3.1912,-3.1818,-3.1738,-3.1757,-3.1764,-3.1711,-3.1711,-3.1223,-3.0889,-3.0889,-3.0381,-3.002,-3.002,-2.9953,-2.9913,-2.9913,-2.9913,-2.9913,-2.9913,-2.9913,-2.9913,-2.9913,-2.998,-3.0127,-3.04,-3.048,-3.0568,-3.0795,-3.0795,-3.0795,-3.0795,-3.0614,-3.0467,-0.8316,-0.8567,-0.8777,-0.9097,-0.9089,-0.9291,-1.0387,-1.0191,-1.0089,-1.1246,-1.1448,-1.1497,-1.1482,-1.2345,-1.3295,-1.4102,-1.4862,-1.5506,-1.5967,-1.6293,-1.672,-1.7331,-1.7412,-1.7426,-1.7575,-1.7467,-1.7372,-1.7202,-1.8535,-1.9199,-1.8955,-2.213,-2.3108,-2.1287,-2.148,-2.2196,-2.3512,-2.2246,-2.3755,-2.8054,-2.8134,-2.9341,-3.1486,-3.1717,-3.2384,-3.3387,-3.34,-3.3414,-3.3353,-3.2878,-3.333,-3.4246,-3.3731,-3.4228,-3.5164,-3.5164,-3.4803,-3.4322,-3.4295,-3.3908,-3.3414,-3.3414,-3.2712,-3.2109,-3.3113,-3.2712,-3.2109,-3.3113,-3.3414,-3.3347,-3.3053,-3.3009,-3.2929,-3.2634,-3.2541,-3.2527,-3.2527,-3.2313,-3.2144,-3.2474,-3.2086,-3.1805,-3.2024,-3.1851,-3.1711,-3.1711,-3.1396,-3.1196,-3.1196,-3.0688,-3.0373,-3.0373,-3.0087,-2.9913,-2.9913,-2.9913,-2.9913,-2.9913,-2.9913,-2.9913,-2.9913,-3.0181,-3.0386,-3.04,-3.0621,-3.0768,-3.0795,-3.0795,-3.0795,-3.0795,-3.0768,-3.0667,-0.7862,-0.8384,-0.8899,-0.9247,-0.9537,-0.9985,-1.0812,-1.1185,-1.1592,-1.2413,-1.2739,-1.284,-1.2745,-1.3275,-1.3919,-1.4482,-1.508,-1.5737,-1.6279,-1.6449,-1.6707,-1.7216,-1.7277,-1.7304,-1.7358,-1.7311,-1.7641,-1.8588,-1.9043,-1.964,-2.0477,-2.1581,-2.1371,-1.9576,-2.0522,-2.1281,-2.1802,-2.228,-2.3859,-2.6435,-2.6667,-2.7866,-2.9947,-3.0218,-3.1285,-3.2942,-3.3253,-3.3521,-3.367,-3.349,-3.3739,-3.4311,-3.4294,-3.4663,-3.5191,-3.5191,-3.4937,-3.4563,-3.4389,-3.4055,-3.3681,-3.348,-3.3113,-3.2762,-3.2461,-3.2109,-3.1756,-3.1504,-3.1907,-3.2535,-3.3081,-3.3106,-3.2946,-3.2888,-3.2728,-3.2594,-3.2594,-3.25,-3.246,-3.2567,-3.242,-3.23,-3.2407,-3.2131,-3.1944,-3.1944,-3.153,-3.1176,-3.1176,-3.0875,-3.0555,-3.0426,-3.01,-2.9913,-2.9913,-2.9913,-2.9913,-2.9913,-2.9913,-2.9993,-3.0181,-3.0346,-3.0574,-3.0889,-3.1009,-3.1156,-3.1343,-3.1343,-3.1343,-3.133,-3.1142,-3.0996,-0.7818,-0.833,-0.8912,-0.926,-0.99,-1.0622,-1.1444,-1.1986,-1.2603,-1.3485,-1.3722,-1.3749,-1.3695,-1.3933,-1.4292,-1.474,-1.5357,-1.5954,-1.6449,-1.6564,-1.6896,-1.7883,-1.7507,-1.7401,-1.7932,-1.7507,-1.7794,-1.9251,-1.9688,-2.0535,-2.1954,-2.1868,-2.1001,-1.9224,-2.0209,-2.0799,-2.0799,-2.2387,-2.3951,-2.5518,-2.5679,-2.6924,-2.9006,-2.937,-3.0661,-3.2706,-3.2795,-3.3206,-3.3895,-3.3618,-3.3728,-3.4084,-3.4281,-3.4702,-3.5191,-3.5191,-3.5017,-3.4775,-3.4429,-3.4122,-3.3841,-3.3507,-3.3163,-3.2762,-3.2021,-3.1554,-3.1151,-3.0392,-3.0746,-3.1454,-3.2209,-3.2768,-3.302,-3.2722,-3.2712,-3.2763,-3.2432,-3.2549,-3.2559,-3.1962,-3.1979,-3.1986,-3.1721,-3.1387,-3.114,-3.114,-3.0964,-3.0839,-3.0839,-3.0916,-3.0782,-3.044,-3.0181,-3.006,-3.006,-3.006,-3.01,-3.0181,-3.0194,-3.0247,-3.04,-3.0493,-3.0728,-3.1162,-3.1316,-3.1463,-3.1711,-3.1711,-3.1711,-3.1711,-3.1463,-3.1316,-0.8328,-0.8486,-0.8791,-0.9117,-0.9958,-1.1016,-1.2244,-1.2515,-1.2942,-1.4397,-1.4394,-1.4173,-1.4278,-1.4306,-1.4455,-1.4949,-1.5594,-1.6185,-1.6476,-1.6601,-1.7429,-1.9476,-1.8198,-1.7872,-1.9515,-1.819,-1.7738,-1.9022,-2.0687,-2.2162,-2.3354,-2.3483,-2.2684,-2.0857,-2.0799,-2.0799,-2.0799,-2.2427,-2.4,-2.5518,-2.5518,-2.6707,-2.8994,-2.9309,-3.0762,-3.2923,-3.1933,-3.242,-3.3806,-3.2943,-3.2964,-3.3525,-3.3525,-3.4174,-3.5191,-3.5191,-3.5017,-3.4775,-3.4429,-3.4122,-3.3841,-3.3507,-3.2662,-3.1819,-3.1819,-3.105,-3.0189,-3.0189,-3.0189,-3.0189,-3.0189,-3.1743,-3.3113,-3.2058,-3.2611,-3.3063,-3.2008,-3.239,-3.2421,-3.0533,-3.0565,-3.0626,-2.9843,-2.9307,-2.9019,-2.9019,-2.9645,-3.008,-3.008,-3.0737,-3.1009,-3.048,-3.0413,-3.0413,-3.0413,-3.0413,-3.0533,-3.0768,-3.0795,-3.0662,-3.0426,-3.0648,-3.0929,-3.1176,-3.1517,-3.1711,-3.1711,-3.1711,-3.1711,-3.1711,-3.1711,-3.1517,-0.8045,-0.8554,-0.9306,-0.9852,-1.0927,-1.2108,-1.3152,-1.3526,-1.3939,-1.508,-1.5092,-1.4881,-1.478,-1.4855,-1.4964,-1.5099,-1.5662,-1.6185,-1.6476,-1.6601,-1.7387,-1.9315,-1.7932,-1.7502,-1.9205,-1.8794,-1.904,-2.0612,-2.204,-2.356,-2.5074,-2.3985,-2.3042,-2.2534,-2.2485,-2.2485,-2.2485,-2.4048,-2.5032,-2.5518,-2.5518,-2.6278,-2.7654,-2.7959,-2.9346,-3.1586,-3.1545,-3.242,-3.3908,-3.383,-3.359,-3.3232,-3.318,-3.339,-3.3744,-3.3938,-3.4321,-3.4775,-3.4429,-3.4122,-3.3841,-3.3507,-3.3163,-3.2662,-3.1151,-3.0443,-2.9885,-2.832,-2.8461,-2.8869,-2.8116,-2.953,-3.1088,-3.0746,-3.0949,-3.105,-3.0746,-3.0887,-3.085,-3.0317,-3.0309,-3.0336,-3.0107,-2.9729,-2.9512,-2.9512,-2.9529,-2.9725,-3.0314,-3.0251,-3.0361,-3.0889,-3.0782,-3.0662,-3.0662,-3.0662,-3.0702,-3.0782,-3.0795,-3.0849,-3.0969,-3.1049,-3.1236,-3.153,-3.1671,-3.1711,-3.1711,-3.1711,-3.1711,-3.1711,-3.1711,-3.1671,-0.8621,-0.9293,-1.0148,-1.0744,-1.1775,-1.2942,-1.4109,-1.4536,-1.4909,-1.5662,-1.5527,-1.5262,-1.5242,-1.5255,-1.5296,-1.5357,-1.5818,-1.6232,-1.6415,-1.7076,-1.7975,-1.9156,-1.8255,-1.8269,-2.002,-1.9414,-1.9869,-2.2136,-2.3002,-2.4086,-2.5684,-2.4119,-2.3219,-2.3219,-2.3219,-2.3219,-2.3219,-2.474,-2.5518,-2.5518,-2.5518,-2.5858,-2.6487,-2.6733,-2.8159,-3.0403,-3.1351,-3.2577,-3.3908,-3.3676,-3.3369,-3.29,-3.2418,-3.2272,-3.2489,-3.2959,-3.3588,-3.4111,-3.4128,-3.4108,-3.3988,-3.3547,-3.3193,-3.2603,-3.0771,-2.9885,-2.9174,-2.74,-2.74,-2.7758,-2.7104,-2.7911,-2.9022,-2.9479,-2.9885,-3.0088,-2.9682,-2.9885,-2.9936,-2.9072,-2.9276,-2.9428,-2.8971,-2.8661,-2.8488,-2.8488,-2.8617,-2.9013,-2.9773,-2.9644,-2.9582,-2.9969,-3.0223,-3.0352,-3.0352,-3.0723,-3.1009,-3.1129,-3.1142,-3.1223,-3.1396,-3.1289,-3.137,-3.1711,-3.1711,-3.1711,-3.1711,-3.1711,-3.1711,-3.1711,-3.1711,-3.1711,-0.9595,-1.0299,-1.1036,-1.1726,-1.2657,-1.3702,-1.4943,-1.5459,-1.575,-1.6008,-1.5744,-1.5506,-1.5587,-1.5547,-1.5493,-1.5566,-1.6001,-1.6337,-1.6488,-1.7886,-1.8963,-1.9217,-1.8998,-1.9597,-2.1488,-2.0071,-2.0326,-2.3396,-2.3611,-2.4153,-2.5432,-2.4156,-2.3404,-2.3394,-2.3394,-2.3394,-2.3394,-2.4758,-2.5496,-2.5518,-2.5518,-2.5518,-2.5529,-2.5755,-2.7187,-2.9527,-3.139,-3.2825,-3.3857,-3.2994,-3.2685,-3.2556,-3.1405,-3.1083,-3.1393,-3.2112,-3.263,-3.3004,-3.3544,-3.3953,-3.4137,-3.345,-3.2756,-3.192,-3.0465,-2.9377,-2.8359,-2.7206,-2.6899,-2.6899,-2.6899,-2.6899,-2.7155,-2.8206,-2.9174,-2.9631,-2.8665,-2.9225,-2.9276,-2.7309,-2.7758,-2.8104,-2.7104,-2.6767,-2.6616,-2.6616,-2.7214,-2.7973,-2.8822,-2.892,-2.8753,-2.8331,-2.9088,-2.9643,-2.9712,-3.0559,-3.1289,-3.165,-3.1738,-3.1751,-3.1711,-3.141,-3.1396,-3.1711,-3.1711,-3.1711,-3.1711,-3.1711,-3.1711,-3.1711,-3.1711,-3.1711,-0.9374,-1.0019,-1.0934,-1.2359,-1.3831,-1.5038,-1.5397,-1.5771,-1.5967,-1.5962,-1.5969,-1.5913,-1.5874,-1.5826,-1.573,-1.56,-1.5913,-1.6572,-1.7801,-1.8509,-1.9413,-2.0722,-1.9638,-1.9414,-2.1153,-2.0738,-2.1178,-2.3159,-2.4394,-2.5172,-2.5469,-2.5178,-2.4948,-2.4779,-2.4768,-2.4768,-2.4768,-2.5105,-2.5346,-2.5518,-2.5518,-2.5518,-2.5529,-2.5755,-2.7289,-2.9781,-3.1277,-3.2644,-3.3868,-3.3428,-3.2874,-3.2213,-3.1072,-3.0696,-3.0717,-3.025,-3.1045,-3.2391,-3.2532,-3.3196,-3.3769,-3.254,-3.2149,-3.1818,-2.9601,-2.8767,-2.8359,-2.7206,-2.6899,-2.6899,-2.6899,-2.6899,-2.695,-2.7195,-2.7451,-2.7553,-2.7309,-2.7451,-2.7451,-2.7001,-2.7104,-2.7206,-2.695,-2.6856,-2.6823,-2.6823,-2.6862,-2.7192,-2.8176,-2.8153,-2.8267,-2.8777,-2.9031,-2.938,-2.9956,-3.0229,-3.073,-3.1616,-3.1877,-3.1904,-3.1724,-3.161,-3.1644,-3.1711,-3.1711,-3.1711,-3.1711,-3.1711,-3.1711,-3.1711,-3.1711,-3.1711,-0.9713,-1.0561,-1.1676,-1.3295,-1.4509,-1.5343,-1.5445,-1.571,-1.5845,-1.5764,-1.5866,-1.5996,-1.5915,-1.5786,-1.5877,-1.6594,-1.6763,-1.7378,-1.9004,-2.0085,-2.0817,-2.0917,-2.078,-2.1084,-2.2215,-2.1965,-2.2507,-2.4337,-2.5144,-2.5518,-2.5518,-2.5518,-2.5464,-2.5346,-2.5238,-2.5227,-2.5335,-2.5227,-2.5292,-2.5518,-2.5518,-2.5572,-2.569,-2.5858,-2.7379,-3.0035,-3.06,-3.1919,-3.3641,-3.348,-3.2854,-3.1921,-3.1362,-3.0569,-2.9817,-2.9777,-3.0137,-3.0666,-3.1106,-3.1704,-3.2201,-3.1438,-3.0927,-3.0449,-2.9139,-2.8308,-2.7656,-2.7052,-2.6899,-2.6745,-2.5902,-2.5697,-2.5697,-2.5697,-2.6324,-2.6899,-2.6899,-2.6899,-2.6899,-2.6899,-2.6899,-2.6899,-2.6899,-2.6899,-2.6899,-2.6899,-2.6791,-2.6916,-2.7353,-2.727,-2.7353,-2.765,-2.8119,-2.8541,-2.8801,-2.9272,-3.0043,-3.1112,-3.129,-3.1544,-3.1877,-3.1877,-3.181,-3.1724,-3.1711,-3.1711,-3.1711,-3.1711,-3.1711,-3.1711,-3.1711,-3.1711,-0.9924,-1.1193,-1.2547,-1.4055,-1.4814,-1.5221,-1.5377,-1.5479,-1.5677,-1.5891,-1.5904,-1.5847,-1.5799,-1.5725,-1.6145,-1.7495,-1.782,-1.8436,-1.9811,-2.1609,-2.2154,-2.0562,-2.1768,-2.2925,-2.3287,-2.3023,-2.3614,-2.5614,-2.536,-2.5227,-2.5469,-2.5184,-2.5141,-2.5351,-2.5173,-2.5163,-2.5389,-2.5206,-2.5249,-2.5518,-2.5518,-2.5636,-2.5912,-2.583,-2.7279,-2.9852,-2.9837,-3.1039,-3.3163,-3.3314,-3.2862,-3.2058,-3.1857,-3.0691,-2.9169,-2.9714,-2.9467,-2.8952,-2.9652,-3.0206,-3.0576,-3.0319,-2.965,-2.8929,-2.8682,-2.7803,-2.6847,-2.658,-2.6478,-2.6118,-2.4441,-2.3968,-2.3968,-2.3968,-2.5069,-2.6118,-2.6426,-2.6272,-2.6067,-2.6067,-2.6272,-2.658,-2.6847,-2.6899,-2.6899,-2.6899,-2.6899,-2.6823,-2.667,-2.6648,-2.6552,-2.6315,-2.7042,-2.7577,-2.7463,-2.8285,-2.9274,-3.0332,-3.0419,-3.082,-3.1592,-3.164,-3.1509,-3.122,-3.1358,-3.1521,-3.1711,-3.1521,-3.1521,-3.1711,-3.1764,-3.1764,-0.8933,-1.0725,-1.2718,-1.3887,-1.4658,-1.5221,-1.5377,-1.5479,-1.5884,-1.7027,-1.6371,-1.5588,-1.5323,-1.6263,-1.7033,-1.6949,-1.8236,-1.9366,-1.9625,-2.131,-2.1944,-2.0407,-2.1601,-2.2545,-2.2642,-2.2711,-2.3493,-2.5163,-2.4161,-2.4107,-2.5421,-2.4,-2.3711,-2.4857,-2.4725,-2.4667,-2.4893,-2.4872,-2.5076,-2.5518,-2.5518,-2.5636,-2.5912,-2.5658,-2.6639,-2.8534,-2.9403,-3.0651,-3.2109,-3.3013,-3.3314,-3.3113,-3.2159,-3.1074,-2.9933,-2.9135,-2.8739,-2.866,-2.8779,-2.9593,-3.0422,-2.9456,-2.9043,-2.8826,-2.7813,-2.7236,-2.658,-2.5224,-2.4802,-2.4338,-2.2736,-2.2322,-2.2322,-2.2322,-2.2477,-2.3047,-2.4493,-2.3667,-2.2633,-2.2633,-2.3822,-2.5275,-2.6642,-2.6899,-2.6899,-2.6899,-2.6899,-2.6888,-2.6856,-2.6856,-2.6759,-2.6562,-2.6681,-2.7036,-2.7688,-2.7863,-2.8407,-2.9394,-2.9698,-2.9772,-2.9689,-2.9738,-2.9616,-2.9347,-2.9967,-3.0747,-3.1711,-3.0747,-3.0795,-3.1724,-3.1931,-3.1904,-0.9623,-1.1043,-1.244,-1.3785,-1.438,-1.4746,-1.4984,-1.5039,-1.5487,-1.6841,-1.6011,-1.558,-1.715,-1.7156,-1.7416,-1.9032,-1.9979,-2.0864,-2.1811,-2.2911,-2.3384,-2.2668,-2.3196,-2.367,-2.3794,-2.3784,-2.4109,-2.4911,-2.4435,-2.4402,-2.5072,-2.4345,-2.4193,-2.476,-2.471,-2.5047,-2.5856,-2.5856,-2.6034,-2.639,-2.5809,-2.5572,-2.5669,-2.5561,-2.6496,-2.8225,-2.9236,-3.0453,-3.187,-3.2963,-3.3063,-3.2461,-3.1958,-3.0797,-2.9276,-2.8767,-2.8206,-2.7656,-2.7656,-2.8119,-2.8705,-2.8331,-2.8131,-2.7991,-2.7602,-2.7241,-2.6745,-2.6057,-2.58,-2.5224,-2.2685,-2.2011,-2.1751,-2.0816,-1.9887,-1.9678,-2.1336,-2.1855,-2.2011,-2.2011,-2.2581,-2.3306,-2.4038,-2.4915,-2.5481,-2.5543,-2.6324,-2.6899,-2.6899,-2.6899,-2.6856,-2.6799,-2.6788,-2.6895,-2.7097,-2.7125,-2.7576,-2.8626,-2.8769,-2.9043,-2.9523,-2.956,-2.9368,-2.9006,-2.9163,-2.9507,-2.9937,-2.9507,-2.9507,-2.9997,-3.0854,-3.1129,-0.9765,-1.0779,-1.1696,-1.3456,-1.4003,-1.4248,-1.4861,-1.484,-1.5181,-1.6943,-1.5896,-1.5744,-1.9437,-1.8489,-1.8004,-2.0603,-2.1477,-2.2144,-2.3038,-2.3881,-2.4205,-2.3771,-2.4095,-2.4391,-2.4517,-2.4441,-2.4474,-2.47,-2.4387,-2.4372,-2.476,-2.4366,-2.4308,-2.4807,-2.4743,-2.5206,-2.6208,-2.6275,-2.6577,-2.7104,-2.6003,-2.5518,-2.5518,-2.5518,-2.6283,-2.7692,-2.8649,-2.9907,-3.1353,-3.2221,-3.2259,-3.1718,-3.1037,-2.962,-2.794,-2.794,-2.7225,-2.6324,-2.6745,-2.7101,-2.7338,-2.7627,-2.7541,-2.7338,-2.7627,-2.7056,-2.617,-2.5748,-2.5337,-2.4348,-2.1492,-2.0712,-2.0408,-1.9164,-1.7915,-1.7346,-1.8589,-1.9835,-2.0868,-2.1284,-2.1336,-2.1492,-2.1907,-2.2995,-2.3977,-2.439,-2.5491,-2.6426,-2.6847,-2.6899,-2.6899,-2.6899,-2.6899,-2.6823,-2.6692,-2.6681,-2.7025,-2.7835,-2.7885,-2.8188,-2.8933,-2.8925,-2.8752,-2.8414,-2.8156,-2.8198,-2.8596,-2.8368,-2.8452,-2.8705,-2.987,-3.0185,-0.8309,-0.9252,-1.0468,-1.277,-1.349,-1.3991,-1.5414,-1.5186,-1.5419,-1.8038,-1.6442,-1.6166,-2.1547,-2.0389,-1.9035,-2.0385,-2.2127,-2.2818,-2.1522,-2.2955,-2.3529,-2.1833,-2.2948,-2.383,-2.3851,-2.4,-2.4226,-2.4509,-2.3361,-2.3284,-2.4713,-2.3165,-2.3051,-2.4749,-2.4639,-2.4639,-2.4912,-2.515,-2.5869,-2.7104,-2.6003,-2.5518,-2.5518,-2.5518,-2.5707,-2.6113,-2.7433,-2.8717,-2.994,-3.0232,-3.0949,-3.1554,-2.8924,-2.7243,-2.623,-2.623,-2.5512,-2.475,-2.6375,-2.7101,-2.7338,-2.7627,-2.7541,-2.7338,-2.7627,-2.6202,-2.4235,-2.2685,-2.1128,-1.9469,-1.7706,-1.7241,-1.7241,-1.7136,-1.7083,-1.7031,-1.7083,-1.7188,-1.7706,-1.9313,-1.9626,-2.0148,-2.1751,-2.2063,-2.2633,-2.4184,-2.4544,-2.5172,-2.6694,-2.6899,-2.6899,-2.6899,-2.6899,-2.6899,-2.6877,-2.6877,-2.6928,-2.698,-2.698,-2.698,-2.7031,-2.6855,-2.6775,-2.6743,-2.6465,-2.7093,-2.8596,-2.7819,-2.7996,-2.9006,-2.9513,-2.9527,-0.7848,-0.871,-0.9751,-1.1162,-1.1976,-1.2654,-1.3491,-1.3922,-1.493,-1.7681,-1.6164,-1.6074,-2.1649,-2.0429,-1.9321,-2.1562,-2.2606,-2.295,-2.241,-2.3094,-2.3432,-2.2799,-2.3202,-2.3625,-2.3776,-2.3688,-2.3817,-2.4215,-2.3655,-2.3567,-2.4129,-2.3676,-2.3641,-2.4129,-2.4391,-2.5224,-2.6724,-2.7486,-2.7806,-2.7771,-2.672,-2.5946,-2.5518,-2.5518,-2.5561,-2.5609,-2.5243,-2.6506,-2.8739,-2.8445,-2.8268,-2.7969,-2.5851,-2.5039,-2.4998,-2.5049,-2.5481,-2.6108,-2.6694,-2.6378,-2.589,-2.7079,-2.663,-2.5681,-2.5815,-2.5154,-2.4071,-2.2477,-2.1596,-2.0712,-1.9059,-1.8589,-1.8327,-1.7241,-1.6978,-1.6978,-1.6978,-1.6978,-1.7188,-1.7758,-1.7915,-1.8073,-1.8693,-1.9678,-2.0608,-2.118,-2.2218,-2.3461,-2.5069,-2.5327,-2.5748,-2.6796,-2.6899,-2.6899,-2.6899,-2.6899,-2.6899,-2.6899,-2.6899,-2.6899,-2.6899,-2.6813,-2.6226,-2.5003,-2.4921,-2.5582,-2.7055,-2.6749,-2.6843,-2.725,-2.8276,-2.8553,-0.7333,-0.8092,-0.9119,-1.0443,-1.0941,-1.1459,-1.2785,-1.3202,-1.4176,-1.7203,-1.586,-1.5853,-2.1505,-2.0322,-1.9404,-2.2244,-2.2891,-2.3008,-2.3008,-2.3246,-2.3365,-2.3289,-2.3278,-2.3343,-2.3494,-2.3375,-2.3451,-2.3849,-2.372,-2.3679,-2.3679,-2.3784,-2.3871,-2.3916,-2.4616,-2.5865,-2.7765,-2.804,-2.8175,-2.815,-2.6785,-2.5917,-2.5518,-2.5518,-2.5518,-2.5432,-2.4554,-2.5667,-2.7961,-2.611,-2.5622,-2.5861,-2.3152,-2.2406,-2.2779,-2.2788,-2.3512,-2.4554,-2.5697,-2.5166,-2.4285,-2.5952,-2.5346,-2.4022,-2.3956,-2.3412,-2.252,-2.144,-2.0764,-2.0095,-1.8955,-1.8641,-1.838,-1.7241,-1.7019,-1.7039,-1.6992,-1.6978,-1.6978,-1.6978,-1.6978,-1.6978,-1.6978,-1.7915,-1.885,-1.9417,-2.0452,-2.1751,-2.34,-2.3616,-2.408,-2.5131,-2.5285,-2.5522,-2.612,-2.5655,-2.5552,-2.6182,-2.5655,-2.5293,-2.5293,-2.5274,-2.4679,-2.347,-2.3394,-2.3862,-2.479,-2.5274,-2.5484,-2.5544,-2.7039,-2.7834,0.0,0.0,0.0,-1.0654,-1.0465,-1.0534,-1.3407,-1.3117,-1.3223,-1.6687,-1.5515,-1.5554,-2.1153,-2.0163,-1.9438,-2.2179,-2.2826,-2.2987,-2.2987,-2.3214,-2.3278,-2.3019,-2.2987,-2.2987,-2.3008,-2.2998,-2.3084,-2.3386,-2.3397,-2.3386,-2.3386,-2.3397,-2.3612,-2.4086,-2.5282,-2.655,-2.7741,-2.6596,-2.6724,-2.8138,-2.6203,-2.534,-2.5507,-2.5518,-2.5518,-2.5469,-2.5421,-2.6277,-2.7462,-2.3243,-2.3228,-2.5471,-2.0917,-1.927,-1.9522,-1.9522,-1.9582,-2.0103,-2.3306,-2.3567,-2.2761,-2.4308,-2.3691,-2.238,-2.224,-2.0966,-1.9485,-1.9433,-1.8237,-1.6985,-1.6985,-1.6978,-1.6978,-1.6978,-1.7087,-1.7148,-1.7012,-1.6978,-1.6978,-1.6978,-1.6978,-1.6978,-1.6978,-1.6978,-1.7556,-1.9164,-1.9417,-2.0043,-2.17,-2.1907,-2.1959,-2.2011,-2.2011,-2.2766,-2.4545,-2.3151,-2.2932,-2.4617,-2.3151,-2.2205,-2.2196,-2.2073,-2.2064,-2.2153,-2.2021,-2.1925,-2.1873,-2.3315,-2.4036,-2.4138,-2.6014,-2.732,-0.6641,0.0,0.0,0.0,0.0,0.0,-1.0457,-1.0942,-1.1889,-1.4546,-1.4743,-1.54,-1.8463,-1.9297,-1.9779,-2.0585,-2.1724,-2.2493,-2.2493,-2.2449,-2.2482,-2.2751,-2.2482,-2.2471,-2.2955,-2.2697,-2.2729,-2.3354,-2.3246,-2.3105,-2.3105,-2.3311,-2.3537,-2.3884,-2.5707,-2.6874,-2.722,-2.8251,-2.839,-2.7642,-2.7216,-2.6411,-2.5281,-2.5443,-2.5518,-2.5372,-2.3111,-2.312,-2.4534,-2.2223,-2.1215,-2.0874,-1.8544,-1.8395,-1.9522,-1.9522,-2.1117,-2.3459,-2.419,-2.3526,-2.26,-2.4027,-2.2693,-2.0478,-2.043,-2.0099,-1.9516,-1.8305,-1.7588,-1.7107,-1.7005,-1.6978,-1.6978,-1.6978,-1.7012,-1.7026,-1.6992,-1.6978,-1.6978,-1.6978,-1.6978,-1.6978,-1.6978,-1.6978,-1.7136,-1.7601,-1.7706,-1.8282,-1.9991,-2.02,-2.066,-2.1855,-2.2011,-2.2246,-2.287,-2.2468,-2.2407,-2.2879,-2.2531,-2.2284,-2.2205,-2.2275,-2.1763,-2.0546,-2.0497,-1.9889,-1.8672,-2.1309,-2.317,-2.4353,-2.6087,-2.6912,0.0,0.0,0.0,-0.7991,0.0,0.0,-0.9612,-1.0059,-1.0918,-1.3248,-1.363,-1.4237,-1.6647,-1.7467,-1.8118,-1.9227,-2.0313,-2.1295,-2.2064,-2.2072,-2.2116,-2.2492,-2.2288,-2.232,-2.2848,-2.2643,-2.2654,-2.3074,-2.2977,-2.2858,-2.2858,-2.3084,-2.3365,-2.3635,-2.5758,-2.6939,-2.7003,-2.8667,-2.8825,-2.7536,-2.738,-2.6599,-2.5324,-2.5464,-2.5518,-2.5372,-2.2867,-2.2002,-2.228,-2.0812,-1.9814,-1.9066,-1.7467,-1.7955,-1.9522,-1.9522,-2.0787,-2.2701,-2.3341,-2.2039,-2.045,-2.1995,-2.0799,-1.8725,-1.8725,-1.8791,-1.8628,-1.7606,-1.7216,-1.7087,-1.7005,-1.6978,-1.6978,-1.6978,-1.7026,-1.7053,-1.6992,-1.7026,-1.7053,-1.6992,-1.6978,-1.6978,-1.6978,-1.6978,-1.6978,-1.6978,-1.6978,-1.7346,-1.8327,-1.8432,-1.885,-1.9835,-1.9887,-2.0264,-2.1127,-2.0584,-2.0518,-2.1261,-2.0741,-2.036,-2.0265,-2.0281,-1.99,-1.896,-1.8894,-1.8381,-1.7419,-1.9869,-2.183,-2.3409,-2.44,-2.4794,0.0,0.0,0.0,0.0,-0.8419,0.0,-0.9903,-0.989,-1.0156,-1.226,-1.2194,-1.2539,-1.5007,-1.5102,-1.55,-1.7626,-1.8602,-1.9725,-2.1637,-2.19,-2.1997,-2.2266,-2.2202,-2.232,-2.2579,-2.2579,-2.2589,-2.2643,-2.2665,-2.2686,-2.2686,-2.2869,-2.3116,-2.3386,-2.5459,-2.6692,-2.7003,-2.824,-2.8457,-2.767,-2.7121,-2.6374,-2.5486,-2.5507,-2.5518,-2.5421,-2.3658,-2.2133,-2.0687,-1.9219,-1.8845,-1.9027,-1.7376,-1.7995,-1.973,-1.9365,-1.9485,-1.9987,-2.1409,-1.9999,-1.7769,-1.9394,-1.8764,-1.7446,-1.7446,-1.746,-1.7433,-1.7263,-1.7114,-1.6998,-1.6985,-1.6978,-1.6978,-1.6978,-1.708,-1.7141,-1.7026,-1.7087,-1.7134,-1.7026,-1.6992,-1.6978,-1.6978,-1.6992,-1.6998,-1.6985,-1.6992,-1.6998,-1.6985,-1.6978,-1.6978,-1.6978,-1.6978,-1.7664,-1.9386,-1.8234,-1.8058,-1.9608,-1.8383,-1.7609,-1.7595,-1.7534,-1.7534,-1.7615,-1.7541,-1.746,-1.7446,-1.8999,-2.0402,-2.1734,-2.196,-2.2055,0.0,0.0,0.0,0.0,0.0,0.0,-0.8818,-0.9009,-0.9449,-1.0017,-1.0921,-1.1627,-1.1589,-1.3489,-1.4824,-1.4112,-1.6441,-1.907,-2.1144,-2.1456,-2.1607,-2.1986,-2.1706,-2.1653,-2.2104,-2.1933,-2.1986,-2.2331,-2.2579,-2.2686,-2.2686,-2.2869,-2.3116,-2.3386,-2.4744,-2.5985,-2.7003,-2.824,-2.8415,-2.7451,-2.7746,-2.6999,-2.5249,-2.5432,-2.5518,-2.5324,-2.2525,-2.1094,-2.0588,-1.8008,-1.7814,-1.8888,-1.7512,-1.882,-2.118,-1.8484,-1.9293,-2.1611,-2.0556,-1.9873,-1.9509,-1.9807,-1.8845,-1.7548,-1.7548,-1.7684,-1.7724,-1.7453,-1.727,-1.7127,-1.7012,-1.6978,-1.6978,-1.6978,-1.7005,-1.7046,-1.7134,-1.708,-1.7046,-1.7134,-1.706,-1.6978,-1.6978,-1.7073,-1.7114,-1.6998,-1.708,-1.7107,-1.6992,-1.6978,-1.6978,-1.6978,-1.6978,-1.7197,-1.7653,-1.7545,-1.7527,-1.7904,-1.7895,-1.7772,-1.7595,-1.7738,-1.7792,-1.7826,-1.7847,-1.7717,-1.7548,-1.9109,-1.995,-2.0154,-2.1659,-2.2196,0.0,0.0,0.0,-0.9335,0.0,0.0,0.0,-0.8988,-0.9083,-0.9605,-1.0003,-1.0259,-1.0242,-1.1475,-1.2475,-1.2594,-1.4371,-1.6643,-1.921,-2.0341,-2.109,-2.1394,-2.134,-2.1416,-2.176,-2.2207,-2.2721,-2.3344,-2.3255,-2.3144,-2.3144,-2.2945,-2.2977,-2.317,-2.4375,-2.5338,-2.6089,-2.7482,-2.7631,-2.6676,-2.711,-2.6496,-2.5001,-2.5238,-2.4901,-2.4031,-2.1793,-2.0357,-1.9446,-1.735,-1.7989,-2.0012,-1.7846,-1.9059,-2.17,-1.9164,-1.9367,-2.0809,-1.9959,-1.9144,-1.8507,-1.8686,-1.8178,-1.7507,-1.7704,-1.7704,-1.7595,-1.7372,-1.7202,-1.7073,-1.6998,-1.6978,-1.6978,-1.6978,-1.6978,-1.6998,-1.7073,-1.7032,-1.7005,-1.7073,-1.7032,-1.6978,-1.6978,-1.7039,-1.706,-1.6992,-1.7039,-1.706,-1.6992,-1.6978,-1.6978,-1.6978,-1.6978,-1.7012,-1.708,-1.729,-1.7419,-1.7419,-1.7704,-1.7826,-1.7758,-1.7826,-1.7915,-1.7915,-1.7915,-1.7826,-1.7758,-1.8551,-1.8759,-1.8587,-1.9455,-1.9829,0.0,0.0,0.0,0.0,0.0,-0.9655,0.0,0.0,0.0,-0.9595,-0.9237,-0.9007,-0.9609,-0.9643,-1.0014,-1.1348,-1.2471,-1.3951,-1.624,-1.8228,-1.9813,-2.0758,-2.083,-2.1,-2.1405,-2.2173,-2.3103,-2.4208,-2.3633,-2.3351,-2.3511,-2.3122,-2.2924,-2.2998,-2.4019,-2.4742,-2.5194,-2.6497,-2.671,-2.5879,-2.6223,-2.5832,-2.4807,-2.5012,-2.445,-2.3184,-2.1457,-2.0175,-1.9199,-1.7567,-1.8924,-2.1625,-1.8307,-1.9261,-2.2166,-1.9887,-1.9216,-1.9493,-1.9664,-1.8745,-1.7562,-1.7906,-1.7751,-1.7514,-1.7827,-1.765,-1.7392,-1.727,-1.7114,-1.6978,-1.6978,-1.6978,-1.6978,-1.6978,-1.6978,-1.6985,-1.7019,-1.6998,-1.6992,-1.7019,-1.6998,-1.6978,-1.6978,-1.7005,-1.7019,-1.7019,-1.7019,-1.7019,-1.7019,-1.6998,-1.6978,-1.6978,-1.6978,-1.6978,-1.6978,-1.7249,-1.7419,-1.7419,-1.7704,-1.7915,-1.7915,-1.7915,-1.7915,-1.7915,-1.7956,-1.7956,-1.7915,-1.7956,-1.7758,-1.7467,-1.7494,-1.7473,0.0,0.0,0.0,0.0,-1.0664,0.0,0.0,0.0,-0.9347,-0.8777,0.0,-0.856,-0.8642,0.0,0.0,-0.8912,-1.0815,-1.2209,-1.2142,-1.3943,-1.6649,-2.0352,-1.9806,-1.9584,-2.0856,-2.0542,-2.1169,-2.3293,-2.26,-2.2448,-2.3204,-2.3427,-2.335,-2.2987,-2.3367,-2.4085,-2.5194,-2.5823,-2.6064,-2.5879,-2.6223,-2.5832,-2.4807,-2.4829,-2.4874,-2.4742,-2.1756,-2.1283,-2.2455,-1.9593,-2.0518,-2.319,-1.8722,-1.9939,-2.3555,-1.9007,-1.823,-1.9493,-1.9672,-1.956,-1.9424,-1.957,-1.8705,-1.7595,-1.7812,-1.765,-1.7419,-1.7399,-1.7195,-1.6978,-1.6978,-1.6978,-1.6978,-1.6978,-1.6978,-1.7019,-1.7141,-1.7066,-1.7019,-1.7148,-1.7066,-1.6978,-1.6978,-1.7087,-1.7168,-1.7168,-1.7168,-1.7168,-1.7168,-1.706,-1.6978,-1.6978,-1.6978,-1.6978,-1.6978,-1.7249,-1.7419,-1.7419,-1.7704,-1.7915,-1.7915,-1.7915,-1.7915,-1.7915,-1.8002,-1.8002,-1.7915,-1.8002,-1.7914,-1.7575,-1.7758,-1.767,0.0,0.0,0.0,0.0,0.0,0.0,-0.9598,0.0,-0.9096,0.0,0.0,0.0,0.0,0.0,0.0,0.0,-0.9688,-1.0626,-1.1244,-1.1833,-1.3402,-1.6681,-1.7396,-1.8559,-2.1055,-2.1186,-2.1811,-2.3475,-2.2855,-2.2802,-2.3675,-2.3353,-2.3188,-2.3341,-2.3119,-2.338,-2.4163,-2.4506,-2.4749,-2.4846,-2.5003,-2.4816,-2.4409,-2.4538,-2.4261,-2.3578,-2.2346,-2.1256,-2.0432,-2.0333,-2.0603,-2.0967,-2.0209,-2.1751,-2.3977,-1.9939,-1.8903,-1.9537,-1.9555,-1.8956,-1.8164,-1.8409,-1.8,-1.7473,-1.7589,-1.746,-1.727,-1.7188,-1.7073,-1.6978,-1.6978,-1.6978,-1.6978,-1.6978,-1.7046,-1.7121,-1.7182,-1.7216,-1.7229,-1.7195,-1.7148,-1.708,-1.6992,-1.7032,-1.71,-1.7182,-1.7195,-1.7195,-1.7195,-1.7141,-1.7073,-1.6992,-1.7053,-1.7107,-1.7107,-1.7378,-1.75,-1.75,-1.7758,-1.7915,-1.7915,-1.7915,-1.7915,-1.7915,-1.7935,-1.7935,-1.7915,-1.7935,-1.7901,-1.7772,-1.7881,-1.7847,-1.1511,0.0,0.0,0.0,0.0,0.0,0.0,0.0,0.0,0.0,0.0,0.0,0.0,0.0,0.0,0.0,0.0,-0.9553,-1.0366,-1.0163,-1.1162,-1.4508,-1.6424,-1.826,-2.0337,-2.0775,-2.1637,-2.3305,-2.2579,-2.2622,-2.3808,-2.3226,-2.3033,-2.3477,-2.2996,-2.2912,-2.3397,-2.3614,-2.3819,-2.4011,-2.4011,-2.4011,-2.4021,-2.4369,-2.402,-2.3104,-2.2883,-2.1879,-2.0423,-2.1456,-2.1543,-2.106,-2.2105,-2.3535,-2.4671,-2.1371,-2.02,-2.0252,-2.0712,-1.9783,-1.8438,-1.8701,-1.8166,-1.7439,-1.7521,-1.7439,-1.729,-1.7141,-1.7073,-1.7032,-1.6992,-1.6978,-1.6978,-1.6978,-1.7087,-1.7195,-1.7195,-1.7283,-1.7324,-1.7216,-1.7161,-1.71,-1.6998,-1.6978,-1.7026,-1.7168,-1.7195,-1.7195,-1.7195,-1.7229,-1.7202,-1.7053,-1.7168,-1.7256,-1.7256,-1.7446,-1.7609,-1.7704,-1.7812,-1.7915,-1.7915,-1.7915,-1.7915,-1.7915,-1.7956,-1.7956,-1.7915,-1.7956,-1.7956,-1.7915,-1.7915,-1.7915,0.0,0.0,0.0,-1.0704,0.0,0.0,0.0,0.0,-0.992,0.0,0.0,0.0,0.0,0.0,0.0,0.0,0.0,0.0,0.0,-0.8612,-1.0612,-1.5631,-1.8119,-1.8984,-1.7937,-1.813,-1.9453,-2.2245,-2.1086,-2.1163,-2.32,-2.3058,-2.298,-2.3215,-2.2865,-2.2912,-2.3397,-2.3408,-2.3571,-2.3808,-2.3808,-2.3808,-2.3819,-2.4294,-2.4592,-2.4629,-2.3362,-2.3739,-2.5178,-2.3727,-2.4283,-2.5829,-2.4227,-2.482,-2.616,-2.3076,-2.1907,-2.2166,-2.3771,-2.3254,-2.1864,-2.2134,-2.0029,-1.7473,-1.7813,-1.7758,-1.7548,-1.7392,-1.7297,-1.7154,-1.7019,-1.6978,-1.6978,-1.6978,-1.7087,-1.7195,-1.7195,-1.7195,-1.7195,-1.7195,-1.708,-1.6985,-1.6978,-1.6978,-1.7026,-1.7168,-1.7195,-1.7195,-1.7195,-1.7324,-1.7358,-1.7202,-1.7324,-1.7412,-1.7412,-1.75,-1.7704,-1.7902,-1.7915,-1.7915,-1.7915,-1.7915,-1.7915,-1.7915,-1.8002,-1.8002,-1.7915,-1.8002,-1.8002,-1.7915,-1.7915,-1.7915,0.0,0.0,-1.2847,-1.1504,0.0,0.0,0.0,0.0,0.0,0.0,0.0,0.0,0.0,0.0,0.0,0.0,0.0,0.0,0.0,-0.8756,-1.0145,-1.2045,-1.472,-1.6785,-1.7799,-1.8712,-1.9634,-2.0597,-2.0588,-2.1248,-2.2968,-2.3149,-2.3243,-2.3256,-2.3166,-2.3035,-2.2923,-2.3085,-2.3289,-2.3515,-2.3722,-2.3797,-2.3808,-2.4294,-2.4592,-2.4771,-2.453,-2.4232,-2.402,-2.4701,-2.4106,-2.2972,-2.487,-2.5336,-2.4819,-2.39,-2.3479,-2.317,-2.1708,-2.0816,-2.0204,-1.9334,-1.8256,-1.7324,-1.7629,-1.7616,-1.7467,-1.7311,-1.7304,-1.729,-1.7046,-1.7053,-1.71,-1.7005,-1.7168,-1.7317,-1.7216,-1.7426,-1.7548,-1.7249,-1.7236,-1.7243,-1.7141,-1.7121,-1.7168,-1.7317,-1.7344,-1.7378,-1.7426,-1.7487,-1.746,-1.7358,-1.7426,-1.7514,-1.7514,-1.7704,-1.7812,-1.7915,-1.7915,-1.7915,-1.7915,-1.7915,-1.7915,-1.7915,-1.7914,-1.797,-1.7915,-1.797,-1.7914,-1.7915,-1.7915,-1.7915,-1.3152,-1.3254,0.0,-1.2128,-1.1742,0.0,-1.0256,0.0,0.0,0.0,0.0,0.0,0.0,0.0,0.0,0.0,0.0,0.0,0.0,-0.8493,-0.9363,-1.0112,-1.3043,-1.5622,-1.7171,-1.8158,-1.9011,-1.9746,-1.976,-2.0521,-2.2331,-2.2737,-2.3054,-2.3438,-2.3442,-2.3355,-2.3149,-2.3183,-2.3261,-2.3397,-2.3592,-2.3711,-2.3808,-2.4294,-2.4592,-2.4818,-2.5066,-2.4773,-2.4117,-2.5288,-2.4548,-2.2966,-2.5492,-2.58,-2.4861,-2.5164,-2.4825,-2.3948,-2.1967,-2.0452,-1.9359,-1.8483,-1.775,-1.7243,-1.744,-1.7446,-1.7392,-1.7236,-1.7263,-1.7283,-1.7039,-1.7046,-1.7093,-1.7005,-1.7209,-1.7392,-1.7297,-1.7548,-1.7704,-1.7412,-1.7392,-1.7392,-1.729,-1.727,-1.7304,-1.7405,-1.7467,-1.7487,-1.7575,-1.7684,-1.7684,-1.7589,-1.767,-1.7717,-1.7717,-1.7812,-1.7915,-1.7915,-1.7915,-1.7915,-1.7915,-1.7915,-1.7914,-1.8023,-1.797,-1.797,-1.8023,-1.797,-1.7915,-1.7915,-1.7915,-1.7915]},{"header":{"parameterUnit":"m.s-1","parameterCategory":1,"la1":30.6,"la2":29.2853,"lo1":-89.7004,"lo2":-87.6739,"dy":0.0162,"dx":0.0183,"nx":112,"ny":82,"refTime":"2023-10-24T06:00:00:Z","depth":0,"parameterNumber":3,"parameterNumberName":"V-component_of_WINDS"},"data":[0.0,0.0,0.0,0.0,0.0,0.0,0.0,0.0,0.0,0.0,0.0,0.0,0.0,0.0,0.0,0.0,0.0,0.0,0.0,0.0,0.0,0.0,0.0,0.0,0.0,0.0,0.0,0.0,0.0,0.0,0.0,0.0,0.0,0.0,0.0,0.0,0.0,0.0,0.0,0.0,0.0,0.0,0.0,0.0,0.0,0.0,0.0,0.0,0.0,0.0,0.0,0.0,0.0,0.0,0.0,0.0,0.0,0.0,0.0,0.0,0.0,0.0,0.0,0.0,0.0,0.0,0.0,0.0,0.0,0.0,0.0,0.0,0.0,0.0,0.0,0.0,0.0,0.0,0.0,0.0,0.0,0.0,0.0,0.0,0.0,0.0,0.0,0.0,0.0,0.0,2.5509,2.8838,3.4657,3.7485,3.5601,3.5757,3.3003,2.6115,0.0,0.0,0.0,0.0,0.0,0.0,0.0,0.0,0.0,0.0,0.0,0.0,0.0,0.0,0.0,0.0,0.0,0.0,0.0,0.0,0.0,0.0,0.0,0.0,0.0,0.0,0.0,0.0,0.0,0.0,0.0,0.0,0.0,0.0,0.0,0.0,0.0,0.0,0.0,0.0,0.0,0.0,0.0,0.0,0.0,0.0,0.0,0.0,0.0,0.0,0.0,0.0,0.0,0.0,0.0,0.0,0.0,0.0,0.0,0.0,0.0,0.0,0.0,0.0,0.0,0.0,0.0,0.0,0.0,0.0,0.0,0.0,0.0,0.0,0.0,0.0,0.0,0.0,0.0,0.0,0.0,0.0,0.0,0.0,0.0,0.0,0.0,0.0,0.0,0.0,0.0,0.0,0.0,0.0,0.0,0.0,0.0,0.0,0.0,0.0,0.0,0.0,0.0,0.0,2.6041,3.2979,3.4999,3.6255,3.7288,3.4347,3.1044,2.7739,0.0,0.0,0.0,0.0,0.0,0.0,0.0,0.0,0.0,0.0,0.0,0.0,0.0,0.0,0.0,0.0,0.0,0.0,0.0,0.0,0.0,0.0,0.0,0.0,0.0,0.0,0.0,0.0,0.0,0.0,0.0,0.0,0.0,0.0,0.0,0.0,0.0,0.0,0.0,0.0,0.0,0.0,0.0,0.0,0.0,0.0,0.0,0.0,0.0,0.0,0.0,0.0,0.0,0.0,0.0,0.0,0.0,0.0,0.0,0.0,0.0,0.0,0.0,0.0,0.0,0.0,0.0,0.0,0.0,0.0,0.0,0.0,0.0,0.0,0.0,0.0,0.0,0.0,0.0,0.0,0.0,0.0,0.0,0.0,0.0,0.0,0.0,0.0,0.0,0.0,0.0,0.0,0.0,0.0,0.0,0.0,0.0,0.0,0.0,0.0,0.0,0.0,0.0,2.568,2.8843,3.4831,3.6069,3.6468,3.6433,3.4361,3.1586,2.8124,2.3466,0.0,0.0,0.0,0.0,0.0,0.0,0.0,0.0,0.0,0.0,0.0,0.0,0.0,0.0,0.0,0.0,0.0,0.0,0.0,0.0,0.0,0.0,0.0,0.0,0.0,0.0,0.0,0.0,0.0,0.0,0.0,0.0,0.0,0.0,0.0,0.0,0.0,0.0,0.0,0.0,0.0,0.0,0.0,0.0,0.0,0.0,0.0,0.0,0.0,0.0,0.0,0.0,0.0,0.0,0.0,0.0,0.0,0.0,0.0,0.0,0.0,0.0,0.0,0.0,0.0,0.0,0.0,0.0,0.0,0.0,0.0,0.0,0.0,0.0,0.0,0.0,0.0,0.0,0.0,0.0,0.0,0.0,0.0,0.0,0.0,0.0,0.0,0.0,0.0,0.0,0.0,0.0,0.0,0.0,0.0,0.0,0.0,0.0,0.0,0.0,0.0,0.0,3.0014,3.1722,3.578,3.6848,3.6787,3.5477,3.4072,3.1663,2.7854,2.262,0.0,0.0,0.0,0.0,0.0,0.0,0.0,0.0,0.0,0.0,0.0,0.0,0.0,0.0,0.0,0.0,0.0,0.0,0.0,0.0,0.0,0.0,0.0,0.0,0.0,0.0,0.0,0.0,0.0,0.0,0.0,0.0,0.0,0.0,0.0,0.0,0.0,0.0,0.0,0.0,0.0,0.0,0.0,0.0,0.0,0.0,0.0,0.0,0.0,0.0,0.0,0.0,0.0,0.0,0.0,0.0,0.0,0.0,0.0,0.0,0.0,0.0,0.0,0.0,0.0,0.0,0.0,0.0,0.0,0.0,0.0,0.0,0.0,0.0,0.0,0.0,0.0,0.0,0.0,0.0,0.0,0.0,0.0,0.0,0.0,0.0,0.0,0.0,0.0,0.0,0.0,0.0,0.0,0.0,0.0,0.0,0.0,0.0,0.0,0.0,0.0,0.0,3.0334,3.345,3.6179,3.6638,3.6402,3.5567,3.2535,2.9538,2.6849,2.116,0.0,0.0,0.0,0.0,0.0,0.0,0.0,0.0,0.0,0.0,0.0,0.0,0.0,0.0,0.0,0.0,0.0,0.0,0.0,0.0,0.0,0.0,0.0,0.0,0.0,0.0,0.0,0.0,0.0,0.0,0.0,0.0,0.0,0.0,0.0,0.0,0.0,0.0,0.0,0.0,0.0,0.0,0.0,0.0,0.0,0.0,0.0,0.0,0.0,0.0,0.0,0.0,0.0,0.0,0.0,0.0,0.0,0.0,0.0,0.0,0.0,0.0,0.0,0.0,0.0,0.0,0.0,0.0,0.0,0.0,0.0,0.0,0.0,0.0,0.0,0.0,0.0,0.0,0.0,0.0,0.0,0.0,0.0,0.0,0.0,0.0,0.0,0.0,0.0,0.0,0.0,0.0,0.0,0.0,0.0,0.0,0.0,0.0,0.0,0.0,0.0,0.0,3.0274,3.2929,0.0,3.6735,3.6185,3.5563,3.3311,3.066,2.7582,0.0,0.0,0.0,0.0,0.0,0.0,0.0,0.0,0.0,0.0,0.0,0.0,0.0,0.0,0.0,0.0,0.0,0.0,0.0,0.0,0.0,0.0,0.0,0.0,0.0,0.0,0.0,0.0,0.0,0.0,0.0,0.0,0.0,0.0,0.0,0.0,0.0,0.0,0.0,0.0,0.0,0.0,0.0,0.0,0.0,0.0,0.0,0.0,0.0,0.0,0.0,0.0,0.0,0.0,0.0,0.0,0.0,0.0,0.0,0.0,0.0,0.0,0.0,0.0,0.0,0.0,0.0,0.0,0.0,0.0,0.0,0.0,0.0,0.0,0.0,0.0,0.0,0.0,0.0,0.0,0.0,0.0,0.0,0.0,0.0,0.0,0.0,0.0,0.0,0.0,0.0,0.0,0.0,0.0,0.0,0.0,0.0,0.0,0.0,0.0,0.0,0.0,2.8694,3.1239,3.3779,0.0,3.7093,3.643,3.556,3.316,3.0509,2.7662,0.0,0.0,0.0,0.0,0.0,0.0,0.0,0.0,0.0,0.0,0.0,0.0,0.0,0.0,0.0,0.0,0.0,0.0,0.0,0.0,0.0,0.0,0.0,0.0,0.0,0.0,0.0,0.0,0.0,0.0,0.0,0.0,0.0,0.0,0.0,0.0,0.0,0.0,0.0,0.0,0.0,0.0,0.0,0.0,0.0,0.0,0.0,0.0,0.0,0.0,0.0,0.0,0.0,0.0,0.0,0.0,0.0,0.0,0.0,0.0,0.0,0.0,0.0,0.0,0.0,0.0,0.0,0.0,0.0,0.0,0.0,0.0,0.0,0.0,0.0,0.0,0.0,0.0,0.0,0.0,0.0,0.0,0.0,0.0,0.0,0.0,0.0,0.0,0.0,0.0,0.0,0.0,0.0,0.0,0.0,0.0,0.0,0.0,0.0,0.0,0.0,0.0,2.9072,3.3412,3.6525,3.7674,3.7815,3.7175,3.5643,3.1621,2.8431,0.0,0.0,0.0,0.0,0.0,0.0,0.0,0.0,0.0,0.0,0.0,0.0,0.0,0.0,0.0,0.0,0.0,0.0,0.0,0.0,0.0,0.0,0.0,0.0,0.0,0.0,0.0,0.0,0.0,0.0,0.0,0.0,0.0,0.0,0.0,0.0,0.0,0.0,0.0,0.0,0.0,0.0,0.0,0.0,0.0,0.0,0.0,0.0,0.0,0.0,0.0,0.0,0.0,0.0,0.0,0.0,0.0,0.0,0.0,0.0,0.0,0.0,0.0,0.0,0.0,0.0,0.0,0.0,0.0,0.0,0.0,0.0,0.0,0.0,0.0,0.0,0.0,0.0,0.0,0.0,0.0,0.0,0.0,0.0,0.0,0.0,0.0,0.0,0.0,0.0,0.0,0.0,0.0,0.0,0.0,0.0,0.0,0.0,0.0,0.0,0.0,0.0,0.0,2.9782,3.3639,3.6609,3.8318,3.8499,3.7912,3.6482,3.4083,3.1201,2.7739,0.0,0.0,0.0,0.0,0.0,0.0,0.0,0.0,0.0,0.0,0.0,0.0,0.0,0.0,0.0,0.0,0.0,0.0,0.0,0.0,0.0,0.0,0.0,0.0,0.0,0.0,0.0,0.0,0.0,0.0,0.0,0.0,0.0,0.0,0.0,0.0,0.0,0.0,0.0,0.0,0.0,0.0,0.0,0.0,0.0,0.0,0.0,0.0,0.0,0.0,0.0,0.0,0.0,0.0,0.0,0.0,0.0,0.0,0.0,0.0,0.0,0.0,0.0,0.0,0.0,0.0,0.0,0.0,0.0,0.0,0.0,0.0,0.0,0.0,0.0,0.0,0.0,0.0,0.0,0.0,0.0,0.0,0.0,0.0,0.0,0.0,0.0,0.0,0.0,0.0,0.0,0.0,0.0,0.0,0.0,0.0,0.0,0.0,0.0,0.0,0.0,0.0,3.1054,3.5014,3.7966,3.9526,3.9395,3.8647,3.7256,3.4969,3.2106,2.8582,0.0,0.0,0.0,0.0,0.0,0.0,0.0,0.0,0.0,0.0,0.0,0.0,0.0,0.0,0.0,0.0,0.0,0.0,0.0,0.0,0.0,0.0,0.0,0.0,0.0,0.0,0.0,0.0,0.0,0.0,0.0,0.0,0.0,0.0,0.0,0.0,0.0,0.0,0.0,0.0,0.0,0.0,0.0,0.0,0.0,0.0,0.0,0.0,0.0,0.0,0.0,0.0,0.0,0.0,0.0,0.0,0.0,0.0,0.0,0.0,0.0,0.0,0.0,0.0,0.0,0.0,0.0,0.0,0.0,0.0,0.0,0.0,0.0,0.0,0.0,0.0,0.0,0.0,0.0,0.0,0.0,0.0,0.0,0.0,0.0,0.0,0.0,0.0,0.0,0.0,0.0,0.0,0.0,0.0,0.0,0.0,0.0,0.0,0.0,0.0,0.0,0.0,3.2572,3.6817,3.9851,4.0902,4.0265,3.9298,3.8019,3.4921,3.1976,2.9503,0.0,0.0,0.0,0.0,0.0,0.0,0.0,0.0,0.0,0.0,0.0,0.0,0.0,0.0,0.0,0.0,0.0,0.0,0.0,0.0,0.0,0.0,0.0,0.0,0.0,0.0,0.0,0.0,0.0,0.0,0.0,0.0,0.0,0.0,0.0,0.0,0.0,0.0,0.0,0.0,0.0,0.0,0.0,0.0,0.0,0.0,0.0,0.0,0.0,0.0,0.0,0.0,0.0,0.0,0.0,0.0,0.0,0.0,0.0,0.0,4.1781,3.8627,0.0,0.0,0.0,0.0,0.0,0.0,0.0,0.0,0.0,0.0,0.0,0.0,0.0,0.0,0.0,0.0,0.0,0.0,0.0,0.0,0.0,0.0,0.0,0.0,0.0,0.0,0.0,0.0,0.0,0.0,0.0,0.0,0.0,0.0,0.0,0.0,0.0,0.0,0.0,0.0,3.2572,3.6318,3.9205,4.0826,4.0271,3.9499,3.8818,3.6884,3.4404,3.1343,2.6964,0.0,0.0,0.0,0.0,0.0,0.0,0.0,0.0,0.0,0.0,0.0,0.0,0.0,0.0,0.0,0.0,0.0,0.0,0.0,0.0,0.0,0.0,0.0,0.0,0.0,0.0,0.0,0.0,0.0,0.0,0.0,0.0,0.0,0.0,0.0,0.0,0.0,0.0,0.0,0.0,0.0,0.0,0.0,0.0,0.0,0.0,0.0,0.0,0.0,0.0,0.0,0.0,0.0,0.0,0.0,0.0,0.0,0.0,0.0,4.9317,4.574,0.0,0.0,0.0,0.0,0.0,0.0,0.0,0.0,0.0,0.0,0.0,0.0,0.0,0.0,0.0,0.0,0.0,0.0,0.0,0.0,0.0,0.0,0.0,0.0,0.0,0.0,0.0,0.0,0.0,0.0,0.0,0.0,0.0,0.0,0.0,0.0,0.0,0.0,0.0,0.0,3.4343,3.7916,4.0434,4.1368,4.111,4.0274,3.8864,3.7624,3.5699,3.2851,2.9877,0.0,0.0,0.0,0.0,0.0,0.0,0.0,0.0,0.0,0.0,0.0,0.0,0.0,0.0,0.0,0.0,0.0,0.0,0.0,0.0,0.0,0.0,0.0,0.0,0.0,0.0,0.0,0.0,0.0,0.0,0.0,0.0,0.0,0.0,0.0,0.0,0.0,0.0,0.0,0.0,0.0,0.0,0.0,0.0,0.0,0.0,0.0,0.0,0.0,0.0,0.0,0.0,0.0,6.2281,6.3051,6.2826,6.4205,6.4589,6.3749,5.7973,5.4582,5.3005,4.9928,0.0,0.0,0.0,0.0,0.0,0.0,0.0,0.0,0.0,0.0,0.0,0.0,0.0,0.0,0.0,0.0,0.0,0.0,0.0,0.0,0.0,0.0,4.2506,4.2976,4.366,4.252,3.6316,0.0,0.0,0.0,0.0,0.0,0.0,0.0,0.0,0.0,0.0,0.0,3.6559,3.9944,4.2042,4.2192,4.2079,4.1174,3.9097,3.8202,3.6785,3.4507,3.2896,3.0667,0.0,0.0,0.0,0.0,0.0,0.0,0.0,0.0,0.0,0.0,0.0,0.0,0.0,0.0,0.0,0.0,0.0,0.0,0.0,0.0,0.0,0.0,0.0,0.0,0.0,0.0,0.0,0.0,0.0,0.0,0.0,0.0,4.4859,4.7432,0.0,0.0,0.0,0.0,0.0,0.0,0.0,0.0,0.0,0.0,0.0,0.0,0.0,6.2897,6.525,6.8558,6.9513,6.8244,7.136,7.2129,7.0713,7.0944,7.136,7.1892,7.0244,0.0,5.8357,5.6439,0.0,0.0,0.0,0.0,0.0,0.0,0.0,0.0,0.0,0.0,0.0,0.0,0.0,0.0,0.0,0.0,0.0,0.0,0.0,0.0,0.0,0.0,5.0043,4.8768,4.8558,4.8378,4.7395,4.1445,3.5436,3.2517,3.1476,3.0167,0.0,0.0,0.0,0.0,0.0,0.0,3.7654,4.0333,4.2305,4.3031,4.2461,4.1638,4.0751,3.9919,3.8764,3.7105,3.5432,3.3735,3.1946,2.9778,0.0,0.0,0.0,0.0,0.0,0.0,0.0,0.0,0.0,0.0,0.0,0.0,0.0,0.0,0.0,0.0,0.0,0.0,0.0,0.0,0.0,0.0,0.0,0.0,0.0,0.0,0.0,0.0,0.0,4.6206,5.1169,5.0851,5.2274,5.1856,0.0,0.0,0.0,0.0,0.0,0.0,0.0,0.0,0.0,6.5128,6.7699,7.0007,7.2091,7.4522,7.563,7.5399,7.6854,7.7169,7.6476,7.6476,7.6399,7.6284,7.5907,7.3091,6.8436,6.3865,6.0056,5.6813,0.0,0.0,0.0,0.0,5.3362,5.3105,5.5726,5.5517,5.3812,5.2394,0.0,0.0,0.0,0.0,0.0,0.0,0.0,4.6464,4.763,5.0501,5.3098,5.2949,5.2936,5.2936,5.2936,4.8816,4.3662,3.8731,3.7805,3.6276,3.1342,3.0961,0.0,0.0,0.0,3.8072,4.0622,4.2776,4.4038,4.3963,4.3618,4.2908,4.1682,4.0822,3.9873,3.8746,3.7602,3.6273,3.4802,3.3176,3.1211,0.0,0.0,0.0,0.0,0.0,0.0,0.0,0.0,0.0,0.0,0.0,0.0,0.0,0.0,0.0,0.0,0.0,0.0,0.0,0.0,0.0,0.0,0.0,0.0,0.0,0.0,0.0,0.0,5.213,5.6049,5.439,5.778,5.8088,0.0,0.0,0.0,0.0,0.0,0.0,6.4788,6.6821,6.9321,7.2514,7.4668,7.6553,7.8246,7.9285,8.0131,8.0785,8.0785,8.0785,8.0746,8.0554,8.0208,7.9792,7.9369,7.8446,7.6823,7.0475,6.6596,6.4436,6.1997,6.0629,6.029,6.2097,6.1817,6.0993,6.4008,6.3802,6.182,5.9618,5.6783,5.339,4.8961,0.0,0.0,0.0,0.0,5.0885,5.3049,5.4544,5.561,5.6363,5.6381,5.6231,5.6231,5.4405,5.0999,4.4957,4.3818,4.2044,3.6368,3.606,0.0,3.6613,3.8914,4.1496,4.38,4.5198,4.576,4.5195,4.5092,4.4402,4.2793,4.2086,4.1304,4.0297,3.9692,3.8742,3.7257,3.6354,3.4822,3.2551,0.0,0.0,0.0,0.0,0.0,0.0,0.0,0.0,0.0,0.0,0.0,0.0,0.0,0.0,0.0,0.0,0.0,0.0,0.0,0.0,0.0,0.0,0.0,0.0,0.0,0.0,0.0,0.0,0.0,6.0287,6.3403,0.0,0.0,0.0,0.0,6.3858,6.7051,7.009,7.2776,7.5284,7.7861,8.0439,8.14,8.2708,8.4431,8.3708,8.337,8.3409,8.3409,8.3409,8.337,8.2554,8.2601,8.3255,8.167,8.0939,8.0439,7.5238,7.2552,7.1486,6.9314,6.8983,6.9564,6.8517,6.8637,6.9147,6.7806,6.6583,6.5842,6.7023,6.4362,6.03,5.7911,5.594,0.0,0.0,5.6641,5.7529,5.8634,5.8981,5.9056,5.9102,5.8539,5.7967,5.7967,5.6911,5.4732,5.0552,4.8379,4.6246,4.343,0.0,4.3376,4.3466,4.3826,4.4728,4.6569,4.672,4.6727,4.6877,4.6682,4.5971,4.4512,4.4339,4.3618,4.1967,4.1823,4.1161,3.9687,3.8801,3.7196,3.4806,3.2386,0.0,0.0,0.0,0.0,0.0,0.0,0.0,0.0,0.0,0.0,0.0,0.0,0.0,0.0,0.0,0.0,0.0,0.0,0.0,0.0,0.0,0.0,0.0,0.0,0.0,0.0,0.0,0.0,6.866,7.1937,0.0,6.809,6.8744,6.9898,7.1014,7.3745,7.6707,7.9823,8.1862,8.3632,8.5093,8.5978,8.6709,8.7325,8.7025,8.6602,8.6055,8.6055,8.5478,8.4439,8.4093,8.3824,8.3563,8.2986,8.2716,8.2508,7.9909,7.7523,7.5353,7.4005,7.3246,7.2863,7.2957,7.2642,7.2124,7.2068,7.1347,7.0057,6.7925,6.5386,6.2865,6.0996,5.958,5.883,5.9684,5.9768,5.9815,6.067,6.0905,6.0905,6.0905,6.068,6.0304,5.9607,5.8577,5.7181,5.5037,5.2323,4.9375,4.6333,4.6404,4.6555,4.5559,4.6904,4.8286,4.8895,4.9365,4.9497,4.9044,4.848,4.7723,4.6771,4.5223,4.4113,4.3649,4.2124,4.1048,4.0599,3.9696,3.8627,3.7414,3.541,3.2622,0.0,0.0,0.0,0.0,0.0,0.0,0.0,0.0,0.0,0.0,0.0,0.0,0.0,0.0,0.0,0.0,0.0,0.0,0.0,0.0,0.0,0.0,0.0,0.0,0.0,6.6853,7.1815,7.4084,7.7823,7.8677,7.4714,7.5899,7.7246,7.8084,8.0246,8.2755,8.5555,8.7055,8.8094,8.8671,8.9248,8.9402,8.9094,8.8833,8.841,8.7825,8.7825,8.7094,8.5747,8.5431,8.4978,8.4409,8.387,8.3852,8.4174,8.2801,8.1156,7.9378,7.8237,7.7223,7.6522,7.7408,7.6855,7.5645,7.5354,7.4617,7.3146,6.9616,6.7701,6.6425,6.4472,6.3533,6.3158,6.3431,6.2895,6.2369,6.2895,6.2632,6.2219,6.2219,6.1994,6.1607,6.0828,5.9831,5.8805,5.7708,5.5196,5.2344,4.9618,4.9783,4.9879,4.8827,4.9713,5.0712,5.1268,5.125,5.1019,5.0554,4.9952,4.9246,4.8302,4.6717,4.5475,4.4774,4.321,4.1982,4.1312,4.0627,3.9877,3.9088,3.7602,3.5227,3.1961,0.0,0.0,0.0,0.0,0.0,0.0,0.0,0.0,0.0,0.0,0.0,0.0,0.0,0.0,0.0,0.0,0.0,0.0,0.0,0.0,0.0,0.0,0.0,6.4974,7.1475,7.6284,7.6399,8.0793,8.2485,7.9138,8.1831,8.4132,8.4978,8.6594,8.8286,8.9893,9.0825,9.1325,9.1287,9.1287,9.0855,8.997,8.9171,8.8748,8.8701,8.8701,8.8269,8.7376,8.653,8.6146,8.6069,8.4415,8.4455,8.5523,8.3859,8.3436,8.3671,8.2001,8.1127,8.0931,8.1789,8.1402,8.0067,7.7577,7.6187,7.5098,7.2646,7.1858,7.137,6.8892,6.8104,6.7926,6.71,6.6237,6.5551,6.5551,6.4387,6.3195,6.3185,6.251,6.185,6.1566,6.0714,5.9637,5.8574,5.6952,5.5181,5.3544,5.3429,5.3561,5.3508,5.2324,0.0,5.3588,5.2174,5.1165,5.138,5.1203,5.0499,4.9163,4.8958,4.789,4.5427,4.5212,4.416,4.1967,4.1726,4.1029,3.9719,3.8935,3.7754,3.612,0.0,0.0,0.0,0.0,0.0,0.0,0.0,0.0,0.0,0.0,0.0,0.0,0.0,0.0,0.0,0.0,0.0,0.0,0.0,0.0,0.0,6.7628,7.3091,7.3707,7.8253,8.2447,8.4909,8.6978,8.7555,8.6025,8.7286,8.8017,8.7671,8.9787,9.1287,9.1748,9.3172,9.3681,9.3018,9.3018,9.2633,9.1787,9.0941,9.0065,8.92,8.92,8.8614,8.7531,8.7291,8.7177,8.7177,8.6681,8.6705,8.6942,8.5598,8.4784,8.4233,8.2819,8.2027,8.1789,8.2016,8.1742,8.1069,7.9792,7.8778,7.7764,7.5875,7.4873,7.3975,7.1914,7.0597,6.9583,6.8533,6.7385,6.6393,6.6186,6.5972,6.5557,6.4743,6.4411,6.3883,6.2465,6.1778,6.1124,6.001,5.8949,5.7508,5.5317,5.5004,5.4827,5.4238,5.3802,0.0,5.3392,5.2898,5.2851,5.3492,5.2972,5.2498,5.2264,5.061,4.8825,4.7136,4.5308,4.4053,4.343,4.276,4.2225,4.1844,4.0548,3.9349,0.0,0.0,0.0,0.0,0.0,0.0,0.0,0.0,0.0,0.0,0.0,0.0,0.0,0.0,0.0,0.0,0.0,0.0,0.0,0.0,0.0,0.0,7.4861,8.0516,8.2785,8.4901,8.7248,8.9979,9.1018,9.1171,9.0364,9.1018,9.1171,9.0364,9.1979,9.3172,9.3527,9.4489,9.4758,9.4258,9.4258,9.3835,9.3018,9.2172,9.1399,9.0685,9.034,8.9524,8.8345,8.8345,8.8069,8.7622,8.7622,8.7722,8.78,8.6764,8.619,8.5763,0.0,0.0,0.0,0.0,8.2272,8.1932,8.0818,7.9992,7.9178,7.7479,7.6543,7.5745,7.3889,7.2571,7.1473,7.0447,6.8889,6.7449,6.7265,6.6848,6.6291,6.5613,6.5255,6.4789,6.3919,6.2831,6.188,6.1496,6.0481,0.0,5.785,5.6748,5.5941,5.5464,5.5133,5.484,5.4719,5.4132,5.3875,5.4363,5.3691,5.312,5.2886,5.1551,0.0,0.0,0.0,4.5364,4.4338,4.3545,0.0,0.0,0.0,4.3088,4.3349,4.2525,0.0,0.0,3.8811,3.8983,0.0,0.0,0.0,0.0,0.0,0.0,0.0,0.0,0.0,0.0,0.0,0.0,0.0,0.0,0.0,0.0,8.1708,8.6893,9.1056,9.097,9.1018,9.2441,9.3249,9.3403,9.271,9.3287,9.3403,9.2672,9.3403,9.4181,9.4951,9.5104,0.0,0.0,0.0,9.4566,9.371,9.2903,9.2414,9.2226,9.1458,9.0474,8.936,8.9436,8.8847,8.7764,8.7954,8.8184,8.8331,8.7689,8.7522,8.7452,8.5124,8.3697,8.2933,8.2933,8.2933,8.2745,8.1181,0.0,0.0,7.8185,7.7428,7.6837,7.5224,7.4124,7.3259,7.244,7.0486,6.8667,6.863,6.7603,6.6513,6.6292,6.5698,6.5231,6.5533,6.3921,6.2497,6.2879,6.1692,6.0627,6.0566,5.8682,5.7141,5.6957,5.6308,5.6062,5.6602,5.5427,5.4546,5.4546,0.0,0.0,5.2354,5.2281,5.1206,4.8737,4.848,4.7489,4.5324,4.4758,4.5148,4.6548,4.6849,4.7731,4.9222,4.9559,4.986,4.9926,4.4179,4.3294,0.0,0.0,0.0,0.0,0.0,0.0,0.0,0.0,0.0,0.0,0.0,0.0,0.0,0.0,0.0,8.1216,8.5978,9.0163,9.3758,9.4104,9.3873,9.3518,9.3595,9.3633,9.348,9.3595,9.3633,9.348,9.4258,9.4835,9.4989,9.5672,9.6057,9.6057,9.5374,9.4566,9.371,9.2903,9.1855,9.0569,9.0378,0.0,8.9107,8.9735,8.9568,8.8786,9.0179,9.0012,8.889,8.9403,8.846,8.6626,8.55,8.4561,8.3847,8.3847,8.3847,8.3697,8.267,8.1713,8.0776,7.9754,7.8746,7.7752,7.655,7.5338,0.0,7.3068,7.1606,7.0375,7.0158,7.0038,6.9546,6.7986,6.7542,6.7098,6.5866,6.5126,6.4508,6.3956,6.3025,6.2132,6.1484,6.0456,5.9281,5.796,5.7629,5.7127,5.5989,5.5548,5.5365,5.5365,5.5794,5.5526,5.4069,5.3922,5.2894,5.0472,4.9711,4.9123,4.8683,4.9143,4.9272,4.8961,4.9704,5.0055,4.9926,5.077,5.1582,5.2223,4.9179,4.8654,0.0,0.0,0.0,0.0,0.0,0.0,0.0,0.0,0.0,0.0,0.0,6.9206,7.3868,0.0,8.2593,8.7286,9.0171,9.271,9.5288,9.5634,9.548,9.5057,9.5018,9.4826,9.4412,9.4749,9.4826,9.4373,9.5172,9.5634,9.5634,9.6057,9.6288,9.6288,9.5865,9.5329,9.4714,9.3486,9.2365,9.1347,9.051,8.9837,8.9318,8.9719,8.9574,8.9029,8.9893,8.978,8.9029,8.9442,8.8532,8.6818,8.6031,8.5027,8.4097,8.3913,8.3859,8.372,8.2709,8.1899,8.11,7.9837,7.8969,7.8234,7.726,7.5918,7.4625,7.4063,7.2549,7.1082,7.0946,7.0682,7.0246,6.9275,6.8783,6.8268,6.7445,6.6531,6.5778,6.5375,6.464,6.393,6.3539,6.2768,6.1557,5.9501,5.9208,5.8767,5.7556,5.7042,5.665,5.6235,5.6198,5.5868,5.506,5.462,5.3885,5.2674,5.1473,5.0996,5.1389,5.1022,5.0986,5.1389,5.1969,5.2311,5.2407,5.3414,5.414,5.4512,5.3375,5.2738,0.0,0.0,0.0,0.0,0.0,0.0,0.0,6.2204,6.5051,7.1552,7.4776,7.79,8.267,8.5478,8.8325,9.2133,9.3403,9.448,9.6095,9.6134,9.6057,9.6057,9.6211,9.5942,9.5066,9.5788,9.5942,9.5066,9.5826,9.6288,9.6288,9.6288,9.6288,9.6288,9.6222,9.5915,9.533,9.3827,9.2744,9.2108,9.0669,8.9825,8.9501,8.9652,8.9431,8.8992,8.8936,8.9011,8.9217,8.9011,8.8195,8.7088,8.6415,8.5334,8.4033,8.3643,8.3504,8.3363,8.2435,8.1808,8.1197,7.9889,7.9087,7.8479,7.7766,7.6408,7.5124,7.5124,7.3509,7.1784,7.1784,7.1174,7.0513,7.0367,6.9853,6.9325,6.9192,6.7981,6.6916,6.6769,6.6072,6.5472,6.5325,6.4751,6.3539,6.1227,6.075,6.0346,5.9526,5.8877,5.8107,5.7152,5.6602,5.6172,5.5879,5.5244,5.4803,5.462,5.3555,5.3151,5.3654,5.2417,5.2344,5.3654,5.3844,5.4252,5.4937,5.5731,5.6145,5.6145,5.6186,5.551,5.4093,5.4939,5.7671,6.2903,6.332,6.5622,0.0,7.8369,7.7869,8.317,8.5709,8.7218,8.7872,8.944,9.1287,9.3249,9.4296,9.5181,9.6172,9.5634,9.5143,9.5143,9.5826,9.5942,9.5066,9.5788,9.5942,9.5066,9.5826,9.6288,9.6288,9.6288,9.6288,9.6288,9.5941,9.5182,9.3934,9.3098,9.1914,9.0357,8.9902,8.9438,8.9112,8.9812,8.9709,8.8978,8.8693,8.9149,8.9977,8.8955,8.7786,8.6572,8.6497,8.5473,8.4007,8.3367,8.3165,8.315,8.3009,8.2267,8.1381,8.1197,7.9971,7.8589,7.8479,7.7304,7.5983,7.5983,7.4735,7.3413,7.3413,7.2826,7.2055,7.1344,7.1087,7.083,7.011,6.9265,6.8421,6.77,6.6916,6.6145,6.5398,6.5215,6.4554,6.2793,6.1924,6.119,6.0382,6.0199,5.9538,5.8033,5.8425,5.8205,5.6774,5.659,5.6235,5.5511,5.5978,5.5978,5.5365,5.5144,5.5144,5.5328,5.535,5.5495,5.575,5.5892,5.5939,5.5939,5.6125,5.6095,6.3551,6.4551,6.5936,6.9436,7.236,7.5861,8.1554,8.2516,8.3516,8.8132,9.0056,9.121,9.218,9.3364,9.4403,9.5095,9.5518,9.5865,9.6249,9.5095,9.4066,9.3595,9.3403,9.3557,9.4172,9.4557,9.4864,9.4989,9.5335,9.5749,9.6288,9.6288,9.6288,9.6288,9.6127,9.5555,9.4528,9.3232,9.2009,9.0887,8.9759,8.9396,8.9705,8.9555,8.9555,8.9691,8.9563,8.9765,9.0179,8.9676,8.8365,8.663,8.6159,8.5031,8.3662,8.3247,8.3106,8.3047,8.2705,8.2265,8.1786,8.1345,8.0646,7.9837,7.8883,7.7745,7.6702,7.624,7.4955,7.3722,7.3722,7.3083,7.2422,7.2078,7.2004,7.1784,7.0991,7.0536,7.0073,6.9229,6.8458,6.7797,6.7453,6.6609,6.5778,6.5081,6.387,6.2732,6.1912,6.1374,6.0676,5.9538,5.971,5.9636,5.8939,5.8902,5.8767,5.84,5.8279,5.8242,5.84,5.7042,5.6528,5.698,5.6528,5.6573,5.7114,5.7114,5.7361,5.7802,5.7413,5.7246,6.8744,7.0706,7.2552,7.4969,7.9669,8.3901,8.4593,8.6094,8.8248,9.1556,9.2749,9.3566,9.4797,9.5326,9.5672,9.5903,9.5942,9.5942,9.5942,9.4249,9.271,9.1864,9.0594,9.0479,9.2172,9.2941,9.371,9.4566,9.4874,9.5374,9.6249,9.6288,9.6288,9.6288,9.6078,9.5612,9.4925,9.3183,9.2014,9.1418,8.9793,8.9361,9.0022,8.931,8.933,8.9841,8.967,8.9641,8.9713,8.954,8.8399,8.6747,8.6167,8.4984,8.3613,8.3392,8.3098,8.2776,8.2364,8.2186,8.2113,8.1525,8.1195,8.0791,7.9617,7.85,7.7546,7.6937,7.5616,7.4294,7.4074,7.3413,7.2789,7.2569,7.2496,7.2349,7.1747,7.1454,7.1123,7.055,6.9779,6.9229,6.9229,6.8091,6.7173,6.7173,6.5778,6.4457,6.36,6.2805,6.1961,6.1141,6.086,6.075,6.075,6.0921,6.097,6.075,6.037,6.026,6.037,5.8731,5.807,5.8657,5.8107,5.807,5.8657,5.8657,5.8951,5.9526,5.8951,5.8657,6.6244,7.0244,7.5592,7.9823,8.4093,8.7902,9.0364,9.221,9.371,9.4681,9.4912,9.4951,9.4989,9.4335,9.4057,9.4912,9.5027,9.5027,9.5027,9.2864,9.0941,9.0086,8.7778,8.694,8.8679,9.1095,9.2864,9.3672,9.4527,9.5374,9.6249,9.6288,9.6288,9.6288,9.5555,9.4922,9.4411,9.2504,9.1474,9.1277,8.9737,8.9211,8.9591,8.9184,8.8992,8.9001,8.8354,8.8247,8.8488,8.7858,8.7259,8.6784,8.6784,8.5728,8.422,8.3966,8.3171,8.2219,8.2203,8.2186,8.2186,8.215,8.1636,8.1012,8.0938,7.9837,7.8552,7.8516,7.7304,7.5836,7.505,7.4258,7.345,7.2679,7.2496,7.2496,7.2459,7.1857,7.1307,7.127,7.0624,7.0073,7.0073,6.9376,6.8825,6.8825,6.7467,6.6145,6.5325,6.453,6.3686,6.2829,6.2034,6.1557,6.1557,6.2279,6.2389,6.1594,6.2279,6.1985,6.0456,6.0346,6.0309,6.0346,6.0309,6.0309,6.0346,6.0346,6.0346,6.037,6.0346,6.0346,7.3098,7.7369,8.1477,8.5217,8.8863,9.1941,9.3412,9.4181,9.4643,9.4951,9.2758,9.0834,9.0834,9.0103,8.9795,9.068,9.2681,9.4143,9.4143,9.3403,9.171,8.8594,8.7979,8.7401,8.6286,8.7979,9.0171,9.271,9.3172,9.3941,9.5365,9.598,9.6194,9.59,9.589,9.5274,9.4006,9.3091,9.2055,9.0953,9.0169,8.9489,8.8908,8.9327,8.9399,8.9099,8.8921,8.8927,8.902,8.8801,8.7826,8.6455,8.6455,8.5646,8.4498,8.4383,8.379,8.292,8.237,8.2186,8.2186,8.2186,8.2003,8.1709,8.1158,8.0608,7.9984,7.8883,7.7781,7.6592,7.5234,7.4294,7.3487,7.2679,7.2496,7.2496,7.2496,7.2312,7.2078,7.2078,7.1454,7.0903,7.0903,7.022,6.9522,6.8958,6.754,6.6219,6.5398,6.5068,6.4774,6.4481,6.4224,6.4053,6.4053,6.4297,6.4334,6.4077,6.4297,6.3967,6.2879,6.2291,6.1741,6.119,6.0676,6.0676,6.119,6.0676,6.0676,6.119,6.0639,6.0419,7.8284,8.237,8.5871,8.9564,9.2556,9.4672,9.4951,9.4758,9.422,9.2988,8.9603,8.6679,8.6102,8.4786,8.4555,8.694,8.9402,9.1518,9.3056,9.2749,9.1325,8.8632,8.8248,8.7825,8.6778,8.7401,8.9017,9.1825,9.2864,9.3873,9.4951,9.5826,9.6194,9.591,9.6039,9.548,9.4278,9.329,9.1855,8.9967,8.9882,8.9272,8.8354,8.8891,8.9045,8.8774,8.87,8.8652,8.8652,8.8507,8.7698,8.6541,8.6541,8.5912,8.5013,8.5013,8.4535,8.3711,8.292,8.2443,8.2186,8.2186,8.2186,8.2113,8.1599,8.1232,8.0791,7.9764,7.8662,7.7436,7.6114,7.5175,7.4331,7.356,7.3377,7.3303,7.2973,7.2936,7.2826,7.2569,7.2078,7.1711,7.1711,7.1064,7.0146,6.9068,6.8017,6.7063,6.6256,6.6145,6.6035,6.5778,6.5742,6.5742,6.5742,6.5742,6.5742,6.5742,6.5742,6.5375,6.4567,6.398,6.3453,6.2915,6.2401,6.2254,6.2487,6.1961,6.1814,6.2034,6.152,6.1251,8.1477,8.5132,8.8748,9.2749,9.5018,9.598,9.5027,9.4027,9.2364,8.8987,8.5448,8.2408,8.0708,7.8592,7.8707,8.3632,8.547,8.7748,9.1902,9.121,9.0163,8.997,8.8632,8.8286,8.9739,8.9325,8.9594,9.1171,9.3527,9.4912,9.4989,9.5826,9.6279,9.626,9.591,9.5506,9.5027,9.3062,9.0925,8.8674,8.8992,8.8757,8.8016,8.7978,8.7978,8.7931,8.7612,8.7481,8.7448,8.7132,8.6978,8.6978,8.6978,8.6518,8.5857,8.5857,8.5343,8.4535,8.3785,8.2994,8.2333,8.2333,8.2333,8.2296,8.226,8.1746,8.1122,8.1012,7.991,7.8516,7.7582,7.6775,7.5946,7.516,7.494,7.4683,7.3927,7.3722,7.345,7.2716,7.2532,7.2496,7.2496,7.1821,7.0793,6.9252,6.8958,6.8605,6.7811,6.77,6.7407,6.6623,6.6549,6.6549,6.6549,6.6549,6.6549,6.6549,6.6549,6.6219,6.5398,6.5362,6.5325,6.5288,6.5288,6.4934,6.4176,6.4176,6.3723,6.2939,6.2939,6.2939,8.5909,8.9988,9.3335,9.4412,9.4989,9.4797,9.2633,9.0017,8.7094,8.3747,7.8284,7.3437,7.1097,7.2745,7.5315,7.7861,8.4286,8.9778,9.2172,9.3749,9.371,9.1171,9.1595,9.1518,9.0047,9.1441,9.2364,9.2172,9.2749,9.3681,9.4912,9.5826,9.6146,9.587,9.6049,9.5511,9.4125,9.2734,9.1574,9.0747,8.9947,8.9174,8.8499,8.7887,8.7497,8.7268,8.7166,8.7132,8.7115,8.7029,8.6978,8.6978,8.6978,8.6867,8.6701,8.6701,8.6187,8.5453,8.527,8.4646,8.3985,8.3985,8.3985,8.3875,8.3287,8.2941,8.2537,8.1342,8.0718,8.0057,7.8626,7.7619,7.6775,7.5983,7.5344,7.483,7.4647,7.4111,7.3648,7.3413,7.2899,7.2496,7.2496,7.1821,7.116,7.0756,6.9655,6.8605,6.7811,6.77,6.7627,6.7407,6.7407,6.7407,6.7407,6.7407,6.7407,6.7407,6.7407,6.7026,6.6219,6.6182,6.5925,6.5288,6.5288,6.5178,6.5007,6.5007,6.4884,6.4664,6.4664,6.4664,8.9834,9.3181,9.548,9.5104,9.445,9.2749,8.8286,8.4939,8.1054,7.5091,7.0206,6.6134,6.3211,6.6474,7.0629,7.3822,8.1516,8.8517,9.2479,9.4249,9.4749,9.3595,9.4287,9.4287,9.2855,9.4018,9.4788,9.4711,9.4364,9.4403,9.4989,9.5826,9.6203,9.5951,9.6029,9.5232,9.3605,9.2606,9.1818,9.1271,9.0423,8.9586,8.8716,8.8289,8.7683,8.6978,8.6978,8.6978,8.6978,8.6978,8.6978,8.6978,8.6978,8.6978,8.6978,8.6978,8.6701,8.6334,8.6334,8.604,8.5563,8.4829,8.4609,8.4462,8.3638,8.3381,8.3124,8.1893,8.1269,8.0791,7.9874,7.9029,7.8295,7.7818,7.7121,7.6408,7.6041,7.5322,7.4551,7.3832,7.334,7.2899,7.2569,7.2114,7.1711,7.1344,7.0536,6.9669,6.8875,6.8141,6.77,6.77,6.77,6.77,6.77,6.77,6.77,6.77,6.77,6.7517,6.704,6.7026,6.6806,6.6366,6.6366,6.6182,6.5852,6.5852,6.5655,6.5288,6.5288,6.5288,9.3065,9.5134,9.6211,9.5104,9.348,9.0325,8.3362,7.9485,7.4752,6.5628,6.2243,5.994,5.6747,6.0444,6.5769,7.1168,7.8369,8.5766,9.2656,9.3885,9.4625,9.6193,9.6529,9.6634,9.6634,9.6519,9.6788,9.7596,9.6903,9.6095,9.522,9.5903,9.6269,9.6222,9.5839,9.4925,9.3462,9.2793,9.2083,9.1388,9.0891,9.0073,8.9033,8.879,8.8075,8.6978,8.6978,8.7051,8.7178,8.7178,8.7178,8.7178,8.7178,8.7088,8.6978,8.6978,8.6978,8.6978,8.6978,8.6978,8.6757,8.538,8.4939,8.4792,8.3968,8.3638,8.3381,8.259,8.1782,8.1158,8.1158,8.0571,7.9963,7.9963,7.9339,7.8552,7.7803,7.6885,7.5799,7.4147,7.3854,7.3634,7.2936,7.2716,7.2422,7.1711,7.1454,7.105,7.033,6.8949,6.8031,6.8031,6.8031,6.8031,6.8031,6.8031,6.7958,6.7884,6.7847,6.7811,6.77,6.77,6.77,6.77,6.77,6.737,6.6659,6.6659,6.6292,6.5618,6.5618,6.5618,9.4412,9.6019,9.6749,9.448,9.2133,8.8402,8.087,7.5053,6.8975,6.1044,5.6896,5.4126,5.2169,5.6752,6.3114,7.0011,7.7212,8.4614,9.2207,9.4782,9.6117,9.6817,9.7749,9.8365,9.8365,9.7711,9.7634,9.8519,9.7788,9.6942,9.6134,9.6211,9.6136,9.5828,9.5394,9.4918,9.4294,9.3873,9.3633,9.3449,9.2144,9.1046,9.0158,8.8891,8.7818,8.6978,8.6978,8.7399,8.7986,8.7986,8.7986,8.7986,8.7986,8.7582,8.6978,8.6978,8.6978,8.6978,8.6978,8.6978,8.6941,8.6647,8.6574,8.6444,8.5637,8.4903,8.4242,8.3418,8.2627,8.2003,8.2003,8.1379,8.0791,8.0791,8.0167,7.9559,7.9412,7.8185,7.6628,7.5014,7.4683,7.4647,7.45,7.3927,7.345,7.3303,7.2165,7.1233,7.1123,7.0257,6.9669,6.9669,6.9669,6.9669,6.9669,6.9669,6.9412,6.8752,6.8678,6.8385,6.7737,6.77,6.77,6.77,6.77,6.7627,6.748,6.748,6.7407,6.7297,6.7297,6.7297,9.5326,9.6249,9.6365,9.421,9.0479,8.5047,7.6476,6.9629,6.2781,5.4659,5.1697,5.0048,4.836,5.4155,6.0597,6.4949,7.1886,7.9714,8.8296,9.0343,9.2541,9.6778,9.8164,9.8981,9.9452,9.9096,9.9029,9.9452,9.8673,9.7827,9.698,9.6328,9.5818,9.5383,9.5018,9.4613,9.4255,9.4076,9.3902,9.3687,9.2987,9.2024,9.0836,8.9663,8.8802,8.8225,8.7802,8.8096,8.8812,8.8812,8.8573,8.8206,8.8206,8.7729,8.6978,8.6978,8.6978,8.6978,8.6978,8.6978,8.6978,8.6978,8.6978,8.6831,8.604,8.5233,8.4425,8.3638,8.281,8.2186,8.2186,8.1893,8.1636,8.1636,8.1012,8.0314,7.989,7.9176,7.8259,7.7047,7.6445,7.6004,7.5601,7.4515,7.3722,7.3722,7.2679,7.1931,7.1931,7.1578,7.1027,7.0183,7.011,7.011,7.011,7.011,6.9926,6.9559,6.9522,6.9339,6.8972,6.8949,6.8765,6.8311,6.8311,6.8141,6.77,6.77,6.77,6.77,6.77,6.77,9.5634,9.6288,9.6057,9.3941,8.8863,8.1939,7.2745,6.5243,5.7934,4.9774,4.7817,4.7278,4.6321,5.1839,5.7586,6.0808,6.6922,7.4642,8.434,8.659,8.9722,9.6578,9.8558,9.9596,10.0298,10.0221,10.0183,10.0289,9.95,9.8529,9.7548,9.6524,9.5724,9.5115,9.4769,9.4441,9.4108,9.4109,9.3958,9.3657,9.3468,9.2668,9.1287,9.0472,8.9845,8.9363,8.872,8.8886,8.9657,8.9657,8.929,8.872,8.8536,8.7986,8.7234,8.7051,8.6978,8.6978,8.6978,8.6978,8.6978,8.6978,8.6978,8.6867,8.6261,8.549,8.4719,8.4095,8.3214,8.248,8.2663,8.259,8.248,8.2663,8.2113,8.1305,8.0514,8.0183,7.9816,7.8993,7.8295,7.7582,7.679,7.5432,7.4404,7.4221,7.3523,7.2973,7.2789,7.2753,7.2202,7.077,7.0624,7.0624,7.0624,7.0624,7.055,7.0367,7.0367,7.0293,7.011,7.011,6.9816,6.9192,6.9155,6.8862,6.8214,6.8214,6.8214,6.8214,6.8214,6.8214,9.5066,9.6211,9.6634,9.3403,8.7517,8.0285,7.1745,6.3974,5.6549,4.9543,4.6894,4.6244,4.7625,4.9455,5.346,6.1727,6.5911,7.1934,8.2921,8.8064,9.2294,9.6546,9.9429,10.1087,10.1212,10.0481,10.0404,10.1087,10.0084,9.8853,9.7577,9.7109,9.6347,9.5153,9.5067,9.487,9.4468,9.4454,9.447,9.4474,9.3453,9.2507,9.1625,9.0886,9.0133,8.94,8.9326,8.973,9.0482,9.0482,9.0427,9.0298,8.9583,8.8776,8.7986,8.7288,8.6978,8.6978,8.6978,8.6978,8.6978,8.6978,8.6978,8.6978,8.6904,8.6334,8.5673,8.56,8.4462,8.3454,8.4205,8.3838,8.3454,8.4205,8.3765,8.2941,8.215,8.1415,8.0645,7.9853,7.9633,7.9302,7.8516,7.7582,7.6702,7.5983,7.5212,7.4426,7.367,7.3611,7.323,7.2386,7.2275,7.2275,7.2275,7.2275,7.1982,7.1233,7.1197,7.0866,7.011,7.011,7.0073,7.0,7.0,6.9963,6.9889,6.9889,6.9889,6.9889,6.9889,6.9889,9.4027,9.5489,9.5451,9.3095,8.6209,7.8207,7.1283,6.2589,5.4511,4.9197,4.6783,4.5975,4.7158,4.8173,5.0861,5.7027,5.8977,6.309,7.2602,7.6863,8.2207,9.0971,9.4791,9.8327,10.2481,10.2597,10.2289,10.2097,10.1208,9.992,9.8356,9.7216,9.6249,9.5477,9.5222,9.5031,9.4844,9.4679,9.4365,9.394,9.3277,9.2534,9.1727,9.0954,9.0702,9.0812,9.0317,9.0592,9.1326,9.1326,9.1033,9.0592,9.0244,8.962,8.8886,8.8556,8.8445,8.8445,8.8445,8.8115,8.7729,8.7729,8.7399,8.6978,8.6978,8.6444,8.58,8.58,8.4976,8.4205,8.4535,8.4352,8.4205,8.4535,8.4352,8.4022,8.3728,8.303,8.2353,8.2039,8.1195,8.0424,8.0094,7.85,7.7179,7.6885,7.5711,7.4793,7.4478,7.4441,7.4294,7.3986,7.3523,7.323,7.323,7.367,7.3597,7.2789,7.2753,7.2386,7.1578,7.2018,7.2018,7.1541,7.1541,7.1321,7.083,7.033,7.011,7.011,7.011,7.011,9.1018,9.3296,9.3796,9.1873,8.4516,7.6214,7.0283,6.1435,5.328,4.8966,4.6783,4.5859,4.6735,4.7351,4.912,5.3433,5.4511,5.7901,6.6635,7.0283,7.5784,8.5986,9.018,9.4604,10.0721,10.2597,10.3211,10.2504,10.1408,10.0102,9.8691,9.727,9.6223,9.5723,9.5444,9.5186,9.4956,9.4731,9.4167,9.3332,9.2992,9.2451,9.1767,9.1216,9.1253,9.1767,9.1216,9.1289,9.1803,9.1803,9.1473,9.0922,9.0702,9.0244,8.973,8.9473,8.94,8.94,8.94,8.8849,8.8206,8.8206,8.7655,8.6978,8.6978,8.6591,8.6151,8.6151,8.5747,8.527,8.5013,8.5123,8.5306,8.5306,8.5123,8.4939,8.4939,8.4315,8.3675,8.3454,8.2463,8.1562,8.1085,7.9528,7.8316,7.806,7.7084,7.6276,7.6019,7.5784,7.5527,7.527,7.4735,7.4236,7.3744,7.4221,7.4294,7.3758,7.3927,7.3817,7.323,7.3744,7.378,7.323,7.3215,7.2922,7.2371,7.1578,7.1138,7.1138,7.0917,7.066,8.5478,8.9286,9.1902,8.9372,8.2324,7.4476,6.8481,6.0594,5.328,4.8966,4.6783,4.5859,4.6735,4.6928,4.8312,5.2544,5.4626,5.8973,6.8359,7.2552,7.6899,8.2947,8.6679,9.0411,9.4681,9.9635,10.2389,10.2018,10.048,9.9141,9.826,9.7369,9.6516,9.5723,9.5685,9.5334,9.4616,9.4604,9.4057,9.2987,9.261,9.218,9.1803,9.1803,9.1803,9.1803,9.1803,9.1803,9.1803,9.1803,9.1803,9.1693,9.0922,9.0592,9.0482,8.9693,8.94,8.94,8.94,8.8849,8.8206,8.8206,8.7655,8.6978,8.6978,8.6978,8.6978,8.6978,8.6978,8.6811,8.5967,8.6371,8.6978,8.6978,8.6371,8.5783,8.5783,8.5159,8.4352,8.3564,8.3381,8.2867,8.1269,8.0975,8.0681,7.989,7.9779,7.9449,7.8662,7.7803,7.6959,7.6166,7.6093,7.5432,7.3832,7.3722,7.3722,7.3722,7.4441,7.4867,7.4867,7.4867,7.4867,7.4867,7.4867,7.4867,7.4867,7.4037,7.367,7.3648,7.2863,7.2041,7.6315,7.89,7.9708,7.7169,7.2322,6.6974,6.2166,5.6742,5.1697,4.8043,4.6394,4.5859,4.6735,4.6394,4.8355,5.5505,5.6626,5.9056,6.609,7.1475,7.6899,8.2909,9.3258,10.0414,10.1799,10.2904,10.3211,10.2494,10.0909,9.9526,9.8642,9.7788,9.6943,9.6136,9.5849,9.5484,9.5013,9.4235,9.3575,9.2987,9.261,9.218,9.1822,9.2074,9.2056,9.1803,9.1803,9.1803,9.1803,9.1803,9.1803,9.1767,9.151,9.1436,9.14,9.1143,9.1033,9.1033,9.1033,9.0519,8.9748,8.9179,8.85,8.7839,8.7839,8.7435,8.6978,8.6978,8.6978,8.6941,8.6701,8.6811,8.6978,8.6978,8.6811,8.6628,8.6628,8.6004,8.5343,8.5086,8.4168,8.3418,8.3471,8.2076,8.1122,8.1395,8.0514,7.9706,7.9449,7.9176,7.8919,7.8678,7.8148,7.7121,7.5469,7.5821,7.5931,7.5395,7.5579,7.5469,7.4903,7.5417,7.5726,7.5726,7.5726,7.5726,7.5726,7.4918,7.4515,7.4515,7.4258,7.3986,6.7814,7.1199,7.2353,7.0437,6.6513,6.2243,5.8621,5.4274,5.0197,4.7466,4.6201,4.5782,4.6317,4.5975,4.7668,5.3933,5.5011,5.7396,6.3974,6.9744,7.6322,8.4563,9.4835,10.1683,10.2597,10.3097,10.3008,10.2002,10.0489,9.9163,9.8152,9.7414,9.6732,9.6078,9.5839,9.5401,9.4793,9.393,9.3261,9.2769,9.2508,9.225,9.2038,9.2268,9.2162,9.1803,9.1803,9.1803,0.0,9.1803,9.1803,9.184,9.217,9.2281,9.2281,9.2281,9.2281,9.2244,9.1913,9.1253,9.0464,8.9657,8.8849,8.8243,8.8573,8.8299,8.7822,8.7528,8.7472,8.7399,8.7088,8.6978,8.6978,8.6978,8.6978,8.6978,8.6978,8.6628,8.6151,8.5874,8.4976,8.4278,8.4168,8.2904,8.2076,8.259,8.1525,8.0844,8.1122,8.0608,8.0241,8.0241,7.9507,7.8516,7.7157,7.7215,7.6959,7.6166,7.6387,7.6335,7.5821,7.6298,7.6555,7.6555,7.6555,7.6555,7.6555,7.5763,7.5344,7.5344,7.505,7.505,0.0,6.5166,6.8129,6.7199,6.3435,5.9319,5.6852,5.2659,0.0,4.7158,4.6163,4.5671,4.5825,4.571,4.659,4.9625,5.1428,5.5082,6.2698,6.8552,7.6361,8.7948,9.2988,9.6451,9.875,10.1212,10.2092,10.0815,9.9506,9.8278,9.7002,9.6549,9.6107,9.5696,9.5664,9.5145,9.4102,9.3679,9.311,9.2409,9.2409,9.2409,9.2375,9.2409,9.2162,9.1803,9.1803,9.1803,9.1803,9.1803,9.1803,9.1877,9.2758,9.3088,9.3125,9.3161,9.3161,9.2978,9.217,9.1363,9.0555,8.9693,8.8886,8.8426,8.9179,8.94,8.9253,8.85,8.8243,8.8023,8.7288,8.7014,8.6978,8.6978,8.6978,8.6978,8.6978,8.6978,8.6775,8.604,8.582,8.5343,8.3895,8.3564,8.3491,8.3564,8.2847,8.2553,8.3308,8.206,8.1085,8.1085,8.0424,7.9669,7.8846,7.7986,7.7142,7.6313,7.6995,7.7436,7.7472,7.7436,7.7436,7.7472,7.7472,7.7472,7.7472,7.6665,7.6313,7.635,7.5527,7.5601,5.0159,0.0,5.4785,5.328,5.2472,5.1587,0.0,4.8812,4.7932,4.6244,4.5744,4.6206,4.8168,4.6898,4.8129,5.5857,5.7473,6.016,6.7199,7.7053,8.6478,9.448,9.8634,10.0789,10.0712,10.1904,10.1913,10.0383,9.9365,9.8375,9.7414,9.6703,9.6107,9.5696,9.5394,9.4869,9.4048,9.3361,9.2827,9.2409,9.2409,9.2233,9.1948,9.225,9.2162,9.1803,9.1803,9.1803,9.1803,9.1803,9.1803,9.1877,9.2758,9.3088,9.3161,9.3786,9.3639,9.3088,9.2868,9.2244,9.1289,8.984,8.9253,8.9143,8.9326,8.94,8.9363,8.9179,8.8683,8.8169,8.7986,8.7472,8.6978,8.6978,8.6978,8.6978,8.6978,8.6978,8.6941,8.6775,8.6224,8.5857,8.6097,8.5123,8.4535,8.5123,8.4022,8.3197,8.3381,8.2517,8.1929,8.1929,8.1746,8.1305,8.0498,7.969,7.8883,7.8075,7.8185,7.8589,7.9176,7.8626,7.8589,7.9176,7.9213,7.9213,7.9213,7.8405,7.8332,7.8898,7.8112,7.8148,4.6201,4.8702,5.101,5.0082,4.9933,4.9745,4.8856,4.7778,4.6706,4.5782,4.5594,4.6129,4.7932,4.774,4.9514,5.6126,5.8511,6.2974,7.2937,8.2208,9.0517,9.7288,10.0096,10.1597,10.1904,10.202,10.1289,9.9644,9.9067,9.825,9.7019,9.6347,9.5849,9.5417,9.5043,9.4496,9.3775,9.3336,9.2897,9.2409,9.2545,9.2424,9.2074,9.2285,9.2162,9.1803,9.1803,9.1803,9.1803,9.1803,9.2024,9.2464,9.3308,9.3896,9.4263,9.4703,9.4336,9.3602,9.3235,9.2281,9.1179,9.0665,9.0244,9.0024,9.0391,9.0501,9.0427,9.006,8.9638,8.9124,8.839,8.7876,8.7472,8.7088,8.6978,8.6978,8.6978,8.6978,8.6978,8.6978,8.6664,8.6371,8.6444,8.5747,8.5306,8.571,8.4425,8.3528,8.3895,8.292,8.2186,8.2186,8.2186,8.1856,8.1085,8.0938,8.0404,7.9213,7.9155,7.9339,7.9779,7.9376,7.9376,7.9779,7.9816,7.9816,7.9816,7.9376,7.9543,8.0314,7.9522,7.9596,4.5667,4.9086,5.2082,5.1159,5.0702,5.0438,5.0168,4.7898,4.5821,4.5975,4.609,4.6552,4.7812,4.9317,5.1625,5.5434,5.9396,6.6397,7.8977,8.5555,9.1441,9.7827,9.949,10.0683,10.2097,10.1597,10.0519,9.8904,9.8673,9.7942,9.6365,9.591,9.5533,9.5115,9.4781,9.4164,9.3305,9.3376,9.3109,9.2459,9.2764,9.2697,9.2285,9.2355,9.2162,9.1803,9.1803,9.1803,9.1803,9.195,9.2427,9.3198,9.4116,9.4887,9.5492,9.5639,9.518,9.4336,9.3418,9.1987,9.0702,9.14,9.1179,9.0739,9.14,9.1693,9.1657,9.0996,9.0702,9.0262,8.8757,8.828,8.7986,8.7215,8.6978,8.6978,8.6978,8.6978,8.6978,8.6978,8.6978,8.6775,8.6114,8.5967,8.5967,8.5967,8.4609,8.3821,8.4499,8.3214,8.2186,8.2186,8.2186,8.1929,8.1232,8.1819,8.1615,8.0257,8.0036,8.0,8.0,8.011,8.0183,8.0183,8.0183,8.0183,8.0183,8.0036,8.0388,8.1158,8.0351,8.0388,4.7086,5.0856,5.2895,4.7822,4.8091,4.924,4.7812,4.7081,4.6889,4.7586,4.8317,4.974,5.2779,5.4087,5.6549,6.2127,6.8898,7.6207,8.4016,8.8402,9.2518,9.7134,9.9096,10.0183,10.0491,10.0414,9.9875,9.8865,9.8134,9.7288,9.6365,9.591,9.5533,9.5115,9.5043,9.4156,9.2426,9.3053,9.3221,9.2831,9.2881,9.2562,9.1912,9.2233,9.2162,9.1803,9.1803,9.1803,9.184,9.2611,9.2978,9.3235,9.474,9.5382,9.5565,9.6282,9.6025,9.5107,9.3639,9.1987,9.0629,9.0739,9.0702,9.0629,9.0739,9.1253,9.1767,9.1657,9.1143,9.0391,8.9473,8.872,8.7986,8.7215,8.6978,8.6978,8.6978,8.6978,8.6978,8.6978,8.6978,8.6941,8.6848,8.6811,8.6811,8.6811,8.5453,8.4462,8.4572,8.3214,8.2186,8.2186,8.2186,8.215,8.2039,8.2113,8.2076,8.1856,8.1195,8.0828,8.0828,8.1452,8.1819,8.1819,8.1819,8.1819,8.1819,8.1158,8.1232,8.2003,8.1195,8.1232,4.547,4.8856,5.1207,4.8937,5.1323,5.3895,5.2626,5.1664,5.1125,5.1471,5.2202,5.3549,5.6088,5.8357,6.2204,6.9552,7.563,8.1131,8.6094,8.9325,9.2787,9.7019,9.8634,9.9567,10.0106,10.0106,9.9529,9.8211,9.7711,9.6942,9.5672,9.5028,9.4543,9.4108,9.3637,9.2983,9.21,9.2462,9.2511,9.2245,9.2423,9.2163,9.1501,9.1621,9.1499,9.1179,9.162,9.1803,9.184,9.2244,9.2684,9.3235,9.441,9.5144,9.5528,9.5914,9.5547,9.4666,9.3529,9.2281,9.1253,9.1253,9.1253,9.1253,9.1253,9.151,9.1803,9.1803,9.1546,9.1069,9.0244,8.9436,8.8647,8.7839,8.7308,8.6978,8.6978,8.6978,8.6978,8.6978,8.6978,8.6978,8.6978,8.6978,8.6978,8.6978,8.5637,8.4609,8.4609,8.3214,8.2186,8.2186,8.2186,8.2186,8.2186,8.2186,8.2186,8.2186,8.1856,8.1636,8.1636,8.2003,8.2406,8.2847,8.2847,8.3067,8.3508,8.3141,8.3141,8.3471,8.2663,8.2463,4.4662,4.724,4.9663,5.0707,5.378,5.6742,5.7671,5.6285,5.5241,5.6819,5.7671,5.8511,5.9819,6.3314,6.843,7.5976,8.0746,8.4632,8.7825,9.0325,9.3287,9.7326,9.8404,9.9144,9.999,9.9913,9.9183,9.7634,9.7222,9.6415,9.4926,9.4146,9.3525,9.3071,9.2461,9.2013,9.1734,9.2013,9.1925,9.154,9.1995,9.1833,9.1173,9.1321,9.1224,9.0922,9.1546,9.1803,9.1858,9.2316,9.2849,9.3492,9.4558,9.5292,9.5804,9.5804,9.5144,9.4189,9.3602,9.2684,9.1803,9.1803,9.1876,9.193,9.184,9.1876,9.193,9.184,9.1803,9.162,9.0812,9.0134,8.9473,8.8683,8.8023,8.7565,8.7565,8.7418,8.7344,8.7528,8.7271,8.7051,8.7252,8.7124,8.6978,8.6978,8.5783,8.4866,8.4866,8.3471,8.248,8.248,8.2296,8.2186,8.2186,8.2186,8.2186,8.2186,8.2186,8.2186,8.2186,8.237,8.2774,8.3381,8.3601,8.3985,8.4609,8.4609,8.4609,8.4609,8.3968,8.3564,4.7163,4.8586,4.9779,5.1428,5.1548,5.2861,5.9094,5.7978,5.7401,6.3782,6.5134,6.5205,6.5327,7.0014,7.5399,7.9977,8.4286,8.794,9.0556,9.2402,9.4826,9.8288,9.875,9.9144,9.999,9.9375,9.8519,9.7557,9.6478,9.5431,9.4484,9.3752,9.3113,9.2664,9.258,9.2009,9.0915,9.1997,9.2062,9.1049,9.1842,9.1833,9.1119,9.1949,9.2089,9.173,9.1767,9.1803,9.195,9.382,9.4448,9.441,9.6253,9.6823,9.6612,9.6612,9.5621,9.4299,9.4226,9.3161,9.1803,9.1803,9.2056,9.2268,9.1912,9.2056,9.2268,9.1912,9.1803,9.162,9.0812,9.0537,9.0317,8.951,8.9253,8.9216,8.9216,8.8629,8.8316,8.9069,8.8005,8.7234,8.7986,8.7509,8.6978,8.6978,8.6261,8.571,8.571,8.4315,8.3308,8.3308,8.2663,8.2186,8.2186,8.2186,8.2186,8.2186,8.2186,8.2186,8.2186,8.292,8.3344,8.3381,8.4132,8.4535,8.4609,8.4609,8.4609,8.4609,8.4535,8.4115,4.4586,4.7548,5.063,5.2274,5.4087,5.6626,6.132,6.3435,6.5743,7.0398,7.2245,7.2822,7.2283,7.5284,7.8938,8.2131,8.5794,8.9248,9.2326,9.3287,9.4749,9.7634,9.798,9.8134,9.8442,9.8173,9.7558,9.6468,9.5463,9.4424,9.3327,9.2556,9.1883,9.1364,9.1156,9.0821,9.0376,9.0621,9.0421,8.9783,9.057,9.0616,8.9991,9.0807,9.0858,9.0354,9.1363,9.2097,9.2666,9.3437,9.397,9.4428,9.568,9.6378,9.6685,9.6685,9.5988,9.496,9.4483,9.3565,9.2537,9.1987,9.1912,9.2038,9.2145,9.2268,9.239,9.2476,9.2338,9.2036,9.1509,9.0959,9.0519,9.0207,8.9767,8.94,8.94,8.9143,8.9033,8.9326,8.8923,8.8592,8.8886,8.828,8.7766,8.7766,8.6628,8.58,8.58,8.4829,8.3948,8.3454,8.27,8.2186,8.2186,8.2186,8.2186,8.2186,8.2186,8.2406,8.292,8.3234,8.3858,8.4866,8.5196,8.56,8.6114,8.6114,8.6114,8.6077,8.5563,8.5159,4.4197,4.724,5.0707,5.2351,5.5967,6.0242,6.4699,6.7975,7.1475,7.6476,7.7823,7.7977,7.7669,7.9015,8.1054,8.3593,8.7094,9.0479,9.3287,9.3941,9.4914,9.7077,9.7424,9.7443,9.7346,9.7424,9.6895,9.5421,9.4654,9.3594,9.2107,9.1525,9.0966,9.044,9.0225,9.0091,9.0091,8.979,8.9386,8.8992,8.9555,8.9637,8.9273,9.0058,9.0163,8.9858,9.103,9.2169,9.3125,9.3474,9.4265,9.5258,9.5809,9.6322,9.6685,9.6685,9.6208,9.5382,9.4593,9.3749,9.2978,9.206,9.1894,9.2038,9.234,9.2459,9.2596,9.2847,9.2731,9.2493,9.2233,9.158,9.1032,9.1139,9.0645,9.0169,9.0331,9.0039,8.9911,9.0415,8.9995,8.9702,9.0045,8.9251,8.8551,8.8551,8.7288,8.6337,8.6337,8.5521,8.4572,8.3491,8.292,8.259,8.259,8.259,8.27,8.292,8.2957,8.3104,8.3381,8.3638,8.4425,8.5764,8.604,8.6444,8.6978,8.6978,8.6978,8.6978,8.6444,8.604,4.7081,4.8125,4.9856,5.1543,5.6472,6.2672,6.9436,7.0975,7.3399,8.1908,8.1631,8.0123,8.0977,8.1131,8.1977,8.4508,8.844,9.1787,9.3441,9.445,9.5493,9.681,9.7297,9.7318,9.7002,9.7259,9.6588,9.4551,9.404,9.2981,9.0915,9.0801,9.0561,9.0118,9.0091,9.0091,9.0091,8.974,8.9373,8.8992,8.8992,8.9091,8.9236,9.0037,9.0459,9.061,9.0964,9.1869,9.3198,9.4335,9.5734,9.7193,9.7193,9.7008,9.6685,9.6685,9.6208,9.5382,9.4593,9.3749,9.2978,9.206,9.2074,9.2409,9.2409,9.263,9.2914,9.2914,9.2914,9.2914,9.2914,9.2353,9.1912,9.2285,9.2091,9.193,9.2303,9.1465,9.1081,9.2595,9.135,9.0382,9.1506,9.0366,8.931,8.931,8.828,8.7514,8.7514,8.6498,8.5196,8.3601,8.3418,8.3418,8.3418,8.3418,8.3748,8.4535,8.4609,8.4242,8.3454,8.4205,8.4976,8.58,8.6591,8.6978,8.6978,8.6978,8.6978,8.6978,8.6978,8.6591,4.5624,4.8509,5.2779,5.5698,6.1775,6.8667,7.4829,7.6707,7.9054,8.5794,8.5593,8.4124,8.3824,8.4247,8.4863,8.5632,8.8825,9.1787,9.3441,9.445,9.5262,9.6006,9.5876,9.5598,9.5191,9.4755,9.4109,9.3217,9.2247,9.1306,9.0415,9.0104,8.9906,8.9753,8.9766,8.9766,8.9766,8.9359,8.9129,8.8992,8.8992,8.8892,8.8719,8.9525,8.9984,9.0133,9.0809,9.1869,9.3161,9.4062,9.5184,9.6343,9.6361,9.6289,9.629,9.6843,9.6417,9.5382,9.4593,9.3749,9.2978,9.206,9.1894,9.2074,9.2596,9.2831,9.3012,9.3541,9.3457,9.3332,9.3603,9.3125,9.2576,9.2731,9.2663,9.263,9.2731,9.2478,9.2367,9.279,9.2423,9.2167,9.2488,9.1667,9.0998,9.0998,9.0212,8.9324,8.8507,8.7083,8.5885,8.5156,8.4572,8.4242,8.4242,8.4242,8.4352,8.4572,8.4609,8.4756,8.5086,8.5306,8.582,8.6628,8.6867,8.6978,8.6978,8.6978,8.6978,8.6978,8.6978,8.6867,4.8894,5.2702,5.755,6.0935,6.6782,7.3399,8.0015,8.2439,8.4555,8.8825,8.8055,8.6555,8.644,8.6517,8.6748,8.7094,8.971,9.2056,9.3095,9.3849,9.4397,9.4683,9.4463,9.4261,9.4185,9.3593,9.2979,9.2425,9.1408,9.0482,8.9757,8.9624,8.9579,8.9579,8.9579,8.9579,8.9579,8.9211,8.8992,8.8992,8.8992,8.8894,8.8708,8.9531,8.9994,9.021,9.1538,9.2476,9.3161,9.4117,9.4889,9.5549,9.5672,9.5928,9.6226,9.6231,9.6013,9.5497,9.4245,9.3712,9.3382,9.217,9.2133,9.255,9.2805,9.3012,9.3237,9.3815,9.3815,9.3709,9.3941,9.3664,9.3285,9.3141,9.3012,9.2946,9.3077,9.3012,9.2996,9.3269,9.3205,9.3157,9.3301,9.2661,9.2101,9.2101,9.1283,9.0297,8.9144,8.8116,8.7147,8.6271,8.5644,8.5267,8.5267,8.5133,8.5196,8.5527,8.5563,8.5783,8.6261,8.5967,8.6187,8.6978,8.6978,8.6978,8.6978,8.6978,8.6978,8.6978,8.6978,8.6978,5.4593,5.8594,6.2787,6.6712,7.1783,7.7707,8.4747,8.7671,8.9325,9.0787,8.9286,8.794,8.8679,8.8171,8.7863,8.8564,9.0748,9.2355,9.2328,9.2824,9.3207,9.3155,9.3121,9.3196,9.354,9.3175,9.264,9.1913,9.1091,9.014,8.9057,8.9371,8.949,8.9452,8.9452,8.9452,8.9452,8.9084,8.8917,8.8992,8.8992,8.8992,8.9029,8.9818,9.0333,9.0706,9.2639,9.3342,9.318,9.4151,9.459,9.4717,9.5064,9.5663,9.626,9.5281,9.527,9.5513,9.375,9.3602,9.3951,9.2372,9.2662,9.3531,9.307,9.3173,9.3488,9.3912,9.4,9.4,9.4,9.4,9.3927,9.3535,9.3237,9.3093,9.3395,9.3221,9.3205,9.3882,9.3709,9.3565,9.3941,9.3347,9.2822,9.2822,9.1874,9.0788,8.9702,8.9506,8.8821,8.7192,8.6778,8.6549,8.6442,8.6146,8.6258,8.6958,8.7051,8.7088,8.6978,8.6297,8.6261,8.6978,8.6978,8.6978,8.6978,8.6978,8.6978,8.6978,8.6978,8.6978,5.3164,5.6819,6.2012,7.009,7.8438,8.5286,8.7602,8.944,9.0556,9.0239,9.0278,9.0248,8.9739,8.947,8.921,8.8756,9.0248,9.136,9.1049,9.2263,9.3075,9.2752,9.2389,9.2077,9.1853,9.1187,9.0604,9.0159,8.9671,8.9252,8.9006,8.9088,8.8829,8.8227,8.8189,8.8189,8.8189,8.8094,8.8391,8.8992,8.8992,8.8992,8.9029,8.9818,9.067,9.1486,9.2306,9.2826,9.3051,9.2629,9.2993,9.3885,9.4228,9.4474,9.4714,9.5397,9.5018,9.4071,9.3651,9.3418,9.3254,9.2531,9.2874,9.3566,9.3349,9.3364,9.3488,9.3912,9.4,9.4,9.4,9.4,9.3986,9.3874,9.38,9.377,9.3882,9.38,9.38,9.3971,9.3941,9.3912,9.3986,9.385,9.3737,9.3737,9.2913,9.2166,9.1625,9.1019,9.0165,8.8896,8.869,8.8287,8.7308,8.7173,8.708,8.7012,8.7582,8.7655,8.7014,8.6848,8.6794,8.6978,8.6978,8.6978,8.6978,8.6978,8.6978,8.6978,8.6978,8.6978,5.5088,5.9896,6.6006,7.5399,8.2285,8.7017,8.7872,8.9094,8.9863,8.9402,8.9979,9.0432,8.997,8.9239,8.8628,8.8457,8.8822,8.9142,8.9169,9.0133,9.0848,9.0826,9.0456,9.0426,9.0999,8.9975,8.9438,8.9848,8.9341,8.8992,8.8992,8.8992,8.8804,8.8391,8.8015,8.7978,8.8353,8.7978,8.8203,8.8992,8.8992,8.9179,8.9592,8.9991,9.0969,9.2266,9.2121,9.221,9.2427,9.1987,9.2296,9.3035,9.3225,9.3735,9.4387,9.444,9.4326,9.4032,9.3475,9.3398,9.3517,9.3282,9.3617,9.4061,9.4025,9.3871,9.374,9.3956,9.4,9.4044,9.4199,9.4255,9.4255,9.4255,9.4122,9.4,9.4,9.4,9.4,9.4,9.4,9.4,9.4,9.4,9.4,9.4,9.3625,9.3101,9.2526,9.2061,9.1425,9.0438,9.0211,8.9669,8.8641,8.8446,8.8187,8.7857,8.8208,8.8159,8.7582,8.7582,8.7399,8.7014,8.6978,8.6978,8.6978,8.6978,8.6978,8.6978,8.6978,8.6978,5.628,6.3275,7.093,7.9708,8.4016,8.6324,8.7209,8.8064,8.8624,8.8427,8.906,8.9586,8.9316,8.806,8.711,8.7208,8.6863,8.6734,8.7111,8.7689,8.8238,8.8622,8.8334,8.8646,9.0045,8.9024,8.8708,8.9695,8.9361,8.9075,8.9006,8.8924,8.8774,8.8592,8.779,8.7752,8.8541,8.7903,8.8053,8.8992,8.8992,8.9405,9.0179,9.0081,9.0999,9.2735,9.2001,9.1768,9.1894,9.184,9.2002,9.2285,9.2355,9.3243,9.4303,9.3354,9.3637,9.4329,9.3333,9.3483,9.4102,9.4185,9.4398,9.4622,9.4738,9.4429,9.4015,9.405,9.4079,9.418,9.4508,9.4589,9.4589,9.4589,9.4383,9.418,9.4094,9.4137,9.4194,9.4194,9.4137,9.405,9.4015,9.4,9.4,9.4,9.4,9.3737,9.3009,9.2934,9.2596,9.177,9.1477,9.0909,9.0005,8.9709,8.9432,8.9037,8.9132,8.9035,8.8598,8.8581,8.8213,8.7404,8.7189,8.7046,8.6978,8.7046,8.7046,8.6978,8.7124,8.7124,5.0822,6.1018,7.2129,7.8508,8.3131,8.6324,8.7209,8.8064,8.8389,8.734,8.8061,8.8402,8.6901,8.6174,8.5388,8.401,8.4659,8.537,8.5431,8.6475,8.7404,8.7736,8.745,8.7372,8.7549,8.8015,8.8255,8.8118,8.9005,8.9384,8.9019,8.8604,8.7913,8.6865,8.6049,8.6025,8.6814,8.6739,8.7452,8.8992,8.8992,8.9405,9.0179,8.948,9.0293,9.225,9.1854,9.1939,9.2268,9.1948,9.184,9.1912,9.225,9.2704,9.3161,9.3291,9.3454,9.356,9.3401,9.3679,9.4152,9.45,9.4627,9.4653,9.5037,9.4594,9.405,9.4342,9.4414,9.4534,9.4932,9.5031,9.5031,9.5031,9.4994,9.4857,9.4494,9.4704,9.4957,9.4957,9.4666,9.4328,9.4073,9.4,9.4,9.4,9.4,9.3963,9.385,9.385,9.3512,9.2634,9.2478,9.2008,9.0916,9.0781,9.0612,9.0297,9.0896,9.0954,9.02,9.0184,8.9813,8.8997,8.7965,8.7281,8.6978,8.7281,8.7265,8.7014,8.7729,8.7655,5.4747,6.2826,7.0552,7.7931,8.1554,8.3632,8.4978,8.5563,8.5642,8.4908,8.5347,8.5625,8.5006,8.4088,8.3276,8.2641,8.302,8.3487,8.377,8.5135,8.614,8.6291,8.6191,8.6264,8.6716,8.6679,8.6751,8.7053,8.7552,8.7805,8.7616,8.7415,8.7052,8.6527,8.6175,8.6282,8.694,8.694,8.7539,8.8737,8.8908,8.9179,8.9517,8.9142,9.0172,9.2141,9.1333,9.1511,9.2392,9.1966,9.193,9.2145,9.232,9.2714,9.3205,9.3364,9.3535,9.374,9.374,9.4173,9.4812,9.5454,9.5351,9.5066,9.5668,9.4999,9.4044,9.4156,9.4227,9.4342,9.4945,9.5103,9.5163,9.5372,9.561,9.5653,9.5257,9.5139,9.5103,9.5103,9.4969,9.4794,9.4651,9.4424,9.4273,9.4297,9.4122,9.4,9.4,9.4,9.385,9.346,9.3422,9.3026,9.2031,9.1941,9.1807,9.1485,9.1768,9.1763,9.12,9.1146,9.0552,8.9273,8.8276,8.7709,8.7563,8.7709,8.7709,8.7583,8.8196,8.8058,5.5555,6.1325,6.6122,7.418,7.817,8.0546,8.2183,8.3099,8.3435,8.2816,8.2983,8.3171,8.2748,8.2124,8.1632,8.1498,8.1757,8.2105,8.2548,8.3975,8.4938,8.4818,8.4726,8.4885,8.55,8.5237,8.5349,8.6138,8.647,8.6596,8.6527,8.6395,8.6371,8.6513,8.6288,8.6479,8.7079,8.7303,8.7784,8.8481,8.8851,8.8992,8.8992,8.8992,8.999,9.165,9.0864,9.1198,9.2197,9.2105,9.2215,9.2444,9.2593,9.3056,9.3574,9.3574,9.3784,9.4122,9.4044,9.4511,9.5337,9.6148,9.5848,9.5337,9.6148,9.5336,9.4165,9.4241,9.4352,9.4572,9.5222,9.5394,9.55,9.5797,9.6078,9.6222,9.591,9.5621,9.536,9.5268,9.5257,9.5222,9.5127,9.487,9.4626,9.4521,9.4311,9.4094,9.4015,9.4,9.4,9.4,9.4,9.3737,9.3084,9.3047,9.2907,9.2667,9.2652,9.2561,9.229,9.2087,9.1364,9.0119,8.9299,8.8589,8.801,8.8289,8.8385,8.8344,8.9111,8.8922,4.7124,5.2472,5.7889,6.4569,7.1909,7.7854,7.9297,8.1686,8.3192,8.1784,8.1961,8.1737,7.9717,8.0465,8.1036,7.9901,8.0814,8.1758,8.2109,8.3301,8.3952,8.3481,8.31,8.2933,8.3008,8.3697,8.4486,8.5298,8.643,8.6895,8.654,8.6078,8.6028,8.6489,8.5749,8.5749,8.6524,8.735,8.8036,8.8481,8.8851,8.8992,8.8992,8.8992,8.9466,9.0324,9.079,9.1252,9.1804,9.253,9.2663,9.2459,9.3152,9.3657,9.3986,9.3986,9.4184,9.4427,9.4108,9.4511,9.5337,9.6148,9.5848,9.5337,9.6148,9.5494,9.4561,9.4945,9.5303,9.5696,9.6117,9.6241,9.6241,9.626,9.6269,9.6279,9.6269,9.6251,9.6117,9.5727,9.5664,9.5555,9.5163,9.5091,9.4957,9.4574,9.4481,9.4356,9.4059,9.4,9.4,9.4,9.4,9.4,9.3925,9.3925,9.3911,9.3896,9.3896,9.3896,9.3881,9.3078,9.2613,9.2501,9.1727,9.0198,8.801,8.9077,8.9472,8.9273,9.0833,9.0706,4.4509,4.9394,5.4605,6.0224,6.623,7.1308,7.3459,7.7232,8.0065,7.9142,8.0343,8.1038,7.9406,7.989,8.0286,7.943,8.0154,8.0869,8.098,8.1884,8.2397,8.221,8.2097,8.222,8.2745,8.2608,8.3059,8.4448,8.4404,8.4266,8.4148,8.4479,8.453,8.4148,8.4885,8.5497,8.59,8.6028,8.6541,8.7413,8.774,8.8298,8.8992,8.8992,8.9142,8.9494,9.045,9.1308,9.2023,9.2318,9.2822,9.3484,9.401,9.427,9.4322,9.4308,9.4273,9.4142,9.4059,9.4716,9.5579,9.5614,9.5619,9.5635,9.5923,9.5331,9.4562,9.4994,9.5198,9.5394,9.5818,9.591,9.5961,9.6241,9.6288,9.6288,9.6288,9.6288,9.6251,9.6107,9.6078,9.6049,9.589,9.5653,9.5417,9.5292,9.5055,9.4756,9.4383,9.4315,9.4241,9.403,9.4,9.4,9.4,9.4,9.4,9.4,9.4,9.4,9.4,9.37,9.3379,9.3107,9.2806,9.1856,9.0251,9.0667,9.0803,9.0722,9.1594,9.1426,4.1585,4.5893,5.1067,5.6345,6.0503,6.4577,6.9617,7.3234,7.5795,7.6608,7.8611,7.9927,7.8879,7.9474,7.9864,7.9201,7.983,8.0405,8.0405,8.1069,8.1482,8.1219,8.1181,8.1407,8.1932,8.1519,8.1782,8.3171,8.2721,8.2408,8.2408,8.2946,8.3247,8.3234,8.4454,8.5265,8.561,8.5191,8.5599,8.6799,8.7271,8.8022,8.8992,8.8992,8.8992,8.9057,8.987,9.0818,9.1813,9.2194,9.2979,9.4048,9.4389,9.469,9.4882,9.492,9.4743,9.4519,9.4255,9.5166,9.6281,9.5602,9.5846,9.6347,9.6082,9.5452,9.4944,9.5233,9.5383,9.5566,9.5839,9.59,9.5951,9.6241,9.6519,9.6634,9.6365,9.6288,9.6288,9.6288,9.6288,9.6288,9.6288,9.6078,9.5859,9.5706,9.545,9.5163,9.4731,9.4717,9.46,9.4407,9.4366,9.4424,9.4585,9.4712,9.474,9.4608,9.4712,9.4809,9.4809,9.4531,9.4365,9.4351,9.4048,9.3527,9.272,9.2305,9.2086,9.2109,9.2577,9.23,0.0,0.0,0.0,5.2365,5.4632,5.8076,6.7788,6.9714,7.0489,7.4121,7.6688,7.8194,7.7922,7.9031,7.9815,7.9138,7.9767,8.033,8.033,8.0956,8.1181,8.0443,8.033,8.033,8.0405,8.0368,8.0668,8.1557,8.1594,8.1557,8.1557,8.1594,8.2345,8.3998,8.4502,8.5013,8.5536,8.4998,8.5409,8.6762,8.7407,8.8189,8.8954,8.8992,8.8992,8.9006,8.9019,8.9788,9.1066,9.2153,9.3163,9.4033,9.435,9.4979,9.5685,9.5685,9.5713,9.5604,9.4794,9.5856,9.7375,9.6154,9.659,9.7423,9.6574,9.6059,9.5772,9.5783,9.6057,9.6326,9.6326,9.6288,9.6288,9.6288,9.6903,9.725,9.648,9.6288,9.6288,9.6288,9.6288,9.6288,9.6288,9.6288,9.6184,9.5797,9.5706,9.5577,9.5175,9.5127,9.5115,9.5103,9.5103,9.5287,9.5772,9.6199,9.6211,9.5834,9.6199,9.6421,9.6383,9.561,9.5572,9.6433,9.5622,9.5203,9.5215,9.3947,9.3362,9.3335,9.3803,9.335,3.7542,0.0,0.0,0.0,0.0,0.0,5.6938,6.0701,6.4539,6.8991,7.1862,7.424,7.6354,7.7396,7.7879,7.767,7.817,7.8603,7.8603,7.829,7.8403,7.9341,7.8403,7.8365,8.0218,7.9316,7.9429,8.1444,8.1069,8.0743,8.0743,8.1294,8.2083,8.3121,8.3434,8.364,8.3775,8.3226,8.3633,8.5075,8.5827,8.6895,8.8166,8.8729,8.8992,8.9033,8.9566,9.0209,9.0968,9.2123,9.3282,9.4399,9.5402,9.5749,9.5685,9.5685,9.5746,9.5641,9.4814,9.5464,9.645,9.5259,9.5906,9.7122,9.6893,9.7161,9.7559,9.7873,9.7568,9.7019,9.6442,9.6288,9.6288,9.6288,9.648,9.6557,9.6365,9.6288,9.6288,9.6288,9.6288,9.6288,9.6288,9.6288,9.626,9.6136,9.6117,9.6009,9.5588,9.5544,9.5406,9.5139,9.5103,9.5409,9.6185,9.636,9.6335,9.6223,9.6867,9.7004,9.6421,9.6726,9.7163,9.7707,9.7477,9.7484,9.7764,9.5623,9.4465,9.4167,9.4067,9.3468,0.0,0.0,0.0,4.5316,0.0,0.0,5.4511,5.7049,5.9634,6.4752,6.7943,7.0371,7.2287,7.3821,7.4749,7.4512,7.5316,7.6303,7.7263,7.6976,7.7126,7.844,7.7727,7.7839,7.9679,7.8966,7.9004,8.0468,8.013,7.988,7.988,8.0668,8.1482,8.2257,8.2477,8.2757,8.3106,8.296,8.3566,8.4904,8.5857,8.7001,8.8316,8.8804,8.8992,8.9033,8.9629,9.0127,9.0621,9.2211,9.347,9.4502,9.5406,9.5713,9.5685,9.5685,9.5738,9.5704,9.5389,9.5938,9.6729,9.6229,9.6814,9.7754,9.7754,9.8099,9.8408,9.8279,9.7634,9.6903,9.6442,9.6288,9.6288,9.6288,9.6557,9.6711,9.6365,9.6557,9.6711,9.6365,9.6288,9.6288,9.6288,9.6288,9.6288,9.6288,9.6288,9.6222,9.5961,9.5941,9.5859,9.5621,9.561,9.585,9.6543,9.71,9.7313,9.7154,9.8105,9.8424,9.7965,9.8041,9.8359,9.8981,9.8636,9.8574,9.8788,9.685,9.5505,9.4769,9.4559,9.4173,0.0,0.0,0.0,0.0,4.7898,0.0,5.6165,5.6088,5.5643,6.0768,6.3846,6.5848,6.6491,6.8831,7.0464,6.9882,7.1446,7.3614,7.6085,7.6375,7.6713,7.7652,7.7589,7.7839,7.8741,7.8741,7.8778,7.8966,7.9041,7.9116,7.9116,7.9917,8.0781,8.1557,8.1834,8.2303,8.3106,8.3642,8.4435,8.5477,8.6676,8.7804,8.8879,8.8954,8.8992,8.9019,8.9464,8.9813,9.0277,9.2397,9.367,9.4311,9.4907,9.5348,9.5642,9.5717,9.5772,9.5828,9.6321,9.6943,9.7654,9.8061,9.8542,9.8942,9.8942,9.9019,9.8865,9.7904,9.7057,9.6403,9.6326,9.6288,9.6288,9.6288,9.6865,9.7211,9.6557,9.6903,9.7173,9.6557,9.6365,9.6288,9.6288,9.6365,9.6403,9.6326,9.6365,9.6403,9.6326,9.6288,9.6288,9.6288,9.6288,9.6482,9.6908,9.8085,9.8634,9.8297,9.9488,10.0183,10.0106,9.9442,9.9442,10.0221,9.9481,9.9019,9.8942,9.7741,9.65,9.5327,9.5355,9.5293,0.0,0.0,0.0,0.0,0.0,0.0,4.9851,5.0928,5.2913,5.4715,5.5856,5.7468,6.0501,6.2786,6.4049,6.349,6.6715,7.0554,7.4194,7.4674,7.5199,7.6675,7.5699,7.5511,7.6926,7.6488,7.6675,7.8039,7.8741,7.9116,7.9116,7.9917,8.0781,8.1557,8.2053,8.257,8.3106,8.3642,8.416,8.4644,8.6191,8.7287,8.8053,8.8691,8.8992,8.9047,8.9715,9.0022,9.03,9.2641,9.3553,9.3621,9.5358,9.5706,9.5292,9.5931,9.617,9.6236,9.6706,9.7407,9.8078,9.8178,9.8964,9.9837,9.9837,10.0289,10.0519,9.8981,9.7942,9.7134,9.648,9.6288,9.6288,9.6288,9.6442,9.6673,9.7173,9.6865,9.6673,9.7173,9.6749,9.6288,9.6288,9.6826,9.7057,9.6403,9.6865,9.7019,9.6365,9.6288,9.6288,9.6288,9.6288,9.6606,9.7318,9.825,9.8769,9.8702,10.0211,10.0789,10.0106,10.0596,10.0904,10.1096,10.0894,10.0481,9.9837,9.8595,9.7511,9.6631,9.6946,9.6383,0.0,0.0,0.0,5.2774,0.0,0.0,0.0,5.0971,5.151,5.4472,5.3646,5.3557,5.7533,5.8693,5.9327,6.022,6.3672,6.6906,6.8976,7.1377,7.3397,7.461,7.4423,7.4685,7.5887,7.588,7.6094,7.6804,7.7728,7.8291,7.8291,7.9204,8.013,8.0969,8.1471,8.2076,8.2742,8.3648,8.4257,8.4605,8.582,8.6665,8.7189,8.8015,8.8477,8.8717,8.9695,9.0192,9.0513,9.2766,9.3361,9.3148,9.5416,9.5818,9.5175,9.5797,9.5995,9.6093,9.6752,9.7075,9.7477,9.8716,9.9287,9.9606,10.0404,10.0404,9.9788,9.8519,9.7557,9.6826,9.6403,9.6288,9.6288,9.6288,9.6288,9.6403,9.6826,9.6596,9.6442,9.6826,9.6596,9.6288,9.6288,9.6634,9.6749,9.6365,9.6634,9.6749,9.6365,9.6288,9.6288,9.6288,9.6288,9.648,9.6865,9.8057,9.8788,9.8788,10.0404,10.1096,10.0712,10.1096,10.1279,10.1279,10.1279,10.1096,10.0712,10.0092,9.9099,9.7899,9.8089,9.7735,0.0,0.0,0.0,0.0,0.0,5.4582,0.0,0.0,0.0,5.4593,5.2554,5.1246,5.467,5.4862,5.5034,5.6727,6.0286,6.2765,6.2374,6.6573,7.0105,7.1216,7.2049,7.2935,7.4038,7.426,7.4549,7.506,7.5529,7.623,7.7202,7.8216,7.9292,8.0368,8.0925,8.1564,8.2406,8.3719,8.4553,8.4811,8.5605,8.6172,8.6513,8.7227,8.7792,8.8255,8.9374,9.0073,9.0565,9.2527,9.3016,9.2746,9.5288,9.5738,9.5067,9.561,9.5787,9.581,9.6652,9.6716,9.6818,9.9019,9.9404,9.9327,10.0779,10.0096,9.8634,9.7942,9.7057,9.6288,9.6288,9.6288,9.6288,9.6288,9.6288,9.6326,9.6519,9.6403,9.6365,9.6519,9.6403,9.6288,9.6288,9.6442,9.6519,9.6519,9.6519,9.6519,9.6519,9.6403,9.6288,9.6288,9.6288,9.6288,9.6288,9.7827,9.8788,9.8788,10.0404,10.1279,10.1279,10.1279,10.1279,10.1279,10.151,10.151,10.1279,10.151,10.0712,9.9058,9.9211,9.9096,0.0,0.0,0.0,0.0,6.0671,0.0,0.0,0.0,5.301,4.9779,0.0,4.8548,4.9009,0.0,0.0,4.9437,5.4524,5.7747,5.5484,5.9361,6.3236,6.5546,6.6202,6.7327,6.9435,6.8388,6.8973,7.2359,7.0735,7.1603,7.6193,7.7228,7.8515,8.033,8.1156,8.1801,8.2406,8.3971,8.4755,8.4811,8.5605,8.6172,8.6513,8.6588,8.7104,8.7913,8.8699,8.9295,8.9854,9.144,9.2077,9.2367,9.5208,9.5599,9.4692,9.5828,9.6019,9.581,9.6691,9.6953,9.7099,9.8106,9.911,10.0106,10.1019,10.0096,9.8788,9.8673,9.7519,9.6288,9.6288,9.6288,9.6288,9.6288,9.6288,9.6519,9.7211,9.6788,9.6519,9.725,9.6788,9.6288,9.6288,9.6903,9.7365,9.7365,9.7365,9.7365,9.7365,9.6749,9.6288,9.6288,9.6288,9.6288,9.6288,9.7827,9.8788,9.8788,10.0404,10.1279,10.1279,10.1279,10.1279,10.1279,10.2097,10.2097,10.1279,10.2097,10.1597,9.999,10.0712,10.0212,0.0,0.0,0.0,0.0,0.0,0.0,5.4434,0.0,5.1587,0.0,0.0,0.0,0.0,0.0,0.0,0.0,5.2274,5.3725,5.1921,5.3512,5.6639,6.1448,6.1939,6.2905,6.5405,6.5445,6.6145,6.8057,6.7815,6.915,7.2728,7.4921,7.6892,7.864,7.9642,8.0705,8.19,8.3062,8.3886,8.4387,8.4748,8.4966,8.5124,8.5575,8.6384,8.7423,8.8189,8.9181,9.0295,9.1718,9.2459,9.2897,9.4823,9.5163,9.4626,9.5599,9.5849,9.5761,9.6117,9.6396,9.6826,9.8132,9.8922,9.9413,9.975,9.9019,9.7942,9.748,9.6826,9.6288,9.6288,9.6288,9.6288,9.6288,9.6673,9.7096,9.7442,9.7634,9.7711,9.7519,9.725,9.6865,9.6365,9.6596,9.698,9.7442,9.7519,9.7519,9.7519,9.7211,9.6826,9.6365,9.6711,9.7019,9.7019,9.8557,9.9567,9.9567,10.0712,10.1279,10.1279,10.1279,10.1279,10.1279,10.1712,10.1712,10.1279,10.1712,10.152,10.0789,10.1087,10.0894,6.5282,0.0,0.0,0.0,0.0,0.0,0.0,0.0,0.0,0.0,0.0,0.0,0.0,0.0,0.0,0.0,0.0,5.1544,4.9432,4.9674,5.1819,5.6608,5.8114,5.961,6.1901,6.1755,6.2286,6.4139,6.3984,6.5583,6.9636,7.2421,7.4898,7.709,7.8416,7.9905,8.1594,8.2182,8.2896,8.3735,8.3735,8.3735,8.3772,8.481,8.5884,8.6984,8.789,8.899,9.0257,9.1342,9.2164,9.2836,9.3878,9.4174,9.4125,9.5169,9.5544,9.5533,9.5394,9.5631,9.6258,9.7917,9.8614,9.8904,9.9365,9.8904,9.8057,9.7211,9.6826,9.6596,9.6365,9.6288,9.6288,9.6288,9.6903,9.7519,9.7519,9.8019,9.825,9.7634,9.7326,9.698,9.6403,9.6288,9.6557,9.7365,9.7519,9.7519,9.7519,9.7711,9.7557,9.6711,9.7365,9.7865,9.7865,9.9259,10.0183,10.0404,10.1019,10.1279,10.1279,10.1279,10.1279,10.1279,10.151,10.151,10.1279,10.151,10.151,10.1279,10.1279,10.1279,0.0,0.0,0.0,6.0704,0.0,0.0,0.0,0.0,5.6082,0.0,0.0,0.0,0.0,0.0,0.0,0.0,0.0,0.0,0.0,4.838,4.966,5.0242,5.4447,5.7782,5.9014,5.6006,5.6098,6.1324,5.813,5.9555,6.7739,7.0053,7.2745,7.6231,7.8129,7.9905,8.1594,8.1632,8.2032,8.2858,8.2858,8.2858,8.2896,8.4548,8.5762,8.6605,8.7764,8.8593,8.9088,8.9526,9.0429,9.1583,9.202,9.2428,9.2951,9.4529,9.5127,9.5067,9.4679,9.4807,9.5417,9.7079,9.8173,9.9096,10.0702,10.0712,9.9837,9.8952,9.8096,9.7288,9.6519,9.6288,9.6288,9.6288,9.6903,9.7519,9.7519,9.7519,9.7519,9.7519,9.6865,9.6326,9.6288,9.6288,9.6557,9.7365,9.7519,9.7519,9.7519,9.825,9.8442,9.7557,9.825,9.875,9.875,9.9567,10.0404,10.1202,10.1279,10.1279,10.1279,10.1279,10.1279,10.1279,10.2097,10.2097,10.1279,10.2097,10.2097,10.1279,10.1279,10.1279,0.0,0.0,7.286,6.5243,0.0,0.0,0.0,0.0,0.0,0.0,0.0,0.0,0.0,0.0,0.0,0.0,0.0,0.0,0.0,4.4657,4.5524,4.7319,5.1654,5.4055,5.2907,5.3584,5.4874,5.6686,5.6565,5.8777,6.4302,6.7467,7.0485,7.3478,7.5919,7.8079,7.9942,8.0505,8.1219,8.2007,8.2558,8.2821,8.2858,8.4548,8.5762,8.6564,8.7526,8.85,8.9448,8.983,9.0557,9.1496,9.2213,9.2734,9.3237,9.4324,9.4389,9.4023,9.4972,9.5372,9.5823,9.7755,9.82,9.825,9.9981,9.9904,9.9058,9.8173,9.8134,9.8057,9.6673,9.6711,9.698,9.6442,9.7365,9.8211,9.7634,9.8827,9.9519,9.7827,9.775,9.7788,9.7211,9.7096,9.7365,9.8211,9.8365,9.8557,9.9144,9.949,9.9336,9.8442,9.9144,9.9644,9.9644,10.0404,10.1019,10.1279,10.1279,10.1279,10.1279,10.1279,10.1279,10.1279,10.1597,10.1587,10.1279,10.1587,10.1597,10.1279,10.1279,10.1279,7.4353,7.5168,0.0,6.8783,6.659,0.0,5.8165,0.0,0.0,0.0,0.0,0.0,0.0,0.0,0.0,0.0,0.0,0.0,0.0,4.3316,4.3815,4.5611,4.8997,5.0899,5.0315,5.0922,5.2234,5.4252,5.4289,5.6381,6.1251,6.4881,6.816,7.1079,7.3787,7.6392,7.8941,7.9216,8.0129,8.1594,8.2107,8.252,8.2858,8.4548,8.5762,8.6551,8.7415,8.8391,8.9422,8.9666,9.0236,9.1054,9.1921,9.2444,9.2781,9.3913,9.4084,9.3868,9.4913,9.545,9.5957,9.7641,9.7856,9.7788,9.9221,9.9259,9.8634,9.775,9.7904,9.8019,9.6634,9.6673,9.6942,9.6442,9.7596,9.8634,9.8096,9.9519,10.0404,9.875,9.8634,9.8634,9.8057,9.7942,9.8134,9.8711,9.9058,9.949,9.999,10.0289,10.0289,9.975,10.0212,10.0481,10.0481,10.1019,10.1279,10.1279,10.1279,10.1279,10.1279,10.1279,10.1597,10.2212,10.1587,10.1587,10.2212,10.1587,10.1279,10.1279,10.1279,10.1279]}]]